<?xml version="1.0" encoding="UTF-8" standalone="no" ?>
<gpx xmlns="http://www.topografix.com/GPX/1/1" xmlns:xsi="http://www.w3.org/2001/XMLSchema-instance" xsi:schemaLocation="http://www.topografix.com/GPX/1/1 http://www.topografix.com/GPX/1/1/gpx.xsd" version="1.1" creator="VisuGPX - https://www.visugpx.com">
  <metadata>
    <name>TET_E-05-CYL-NO_20241226</name>
    <desc><![CDATA[

]]></desc>
  </metadata>
  <wpt lat="42.66561" lon="-6.50306">
    <ele>627.3</ele>
    <name><![CDATA[INFO_EasyGoBackPoint:GNR07:4A]]></name>
    <desc><![CDATA[EasyGoBackPoint:GNR07:4A]]></desc>
  </wpt>
  <wpt lat="42.67177" lon="-6.50092">
    <ele>630.5</ele>
    <name><![CDATA[INFO_EasyGoBackPoint:GNR07:4B]]></name>
    <desc><![CDATA[EasyGoBackPoint:GNR07:4B]]></desc>
  </wpt>
  <wpt lat="42.72787" lon="-6.27758">
    <ele>911</ele>
    <name><![CDATA[SWIM_free river swiming pool , nice menu on the bar behind]]></name>
  </wpt>
  <trk>
    <name><![CDATA[TET_E-05-CYL-NO_20241226]]></name>
    <extensions>
      <line xmlns="http://www.topografix.com/GPX/gpx_style/0/2">
        <color>FF0000</color>
        <width>4</width>
      </line>
    </extensions>
    <trkseg>
      <trkpt lat="43.05841" lon="-6.00435">
        <ele>1591.5</ele>
        <time>2023-06-16T02:01:26.000+02:00</time>
      </trkpt>
      <trkpt lat="43.05839" lon="-6.00433">
        <ele>1592</ele>
        <time>2023-06-16T02:01:27.000+02:00</time>
      </trkpt>
      <trkpt lat="43.05824" lon="-6.00428">
        <ele>1592.3</ele>
        <time>2023-06-16T02:01:30.000+02:00</time>
      </trkpt>
      <trkpt lat="43.05802" lon="-6.0043">
        <ele>1589</ele>
        <time>2023-06-16T02:01:33.000+02:00</time>
      </trkpt>
      <trkpt lat="43.05777" lon="-6.00437">
        <ele>1586</ele>
        <time>2023-06-16T02:01:37.000+02:00</time>
      </trkpt>
      <trkpt lat="43.05761" lon="-6.00447">
        <ele>1585.3</ele>
        <time>2023-06-16T02:01:40.000+02:00</time>
      </trkpt>
      <trkpt lat="43.05752" lon="-6.00458">
        <ele>1585.5</ele>
        <time>2023-06-16T02:01:41.000+02:00</time>
      </trkpt>
      <trkpt lat="43.05742" lon="-6.0047">
        <ele>1584</ele>
        <time>2023-06-16T02:01:44.000+02:00</time>
      </trkpt>
      <trkpt lat="43.05722" lon="-6.00499">
        <ele>1580.3</ele>
        <time>2023-06-16T02:01:48.000+02:00</time>
      </trkpt>
      <trkpt lat="43.05716" lon="-6.00512">
        <ele>1580</ele>
        <time>2023-06-16T02:01:50.000+02:00</time>
      </trkpt>
      <trkpt lat="43.0571" lon="-6.00527">
        <ele>1580.5</ele>
        <time>2023-06-16T02:01:52.000+02:00</time>
      </trkpt>
      <trkpt lat="43.05708" lon="-6.00546">
        <ele>1582.8</ele>
        <time>2023-06-16T02:01:54.000+02:00</time>
      </trkpt>
      <trkpt lat="43.05707" lon="-6.00574">
        <ele>1586.8</ele>
        <time>2023-06-16T02:01:57.000+02:00</time>
      </trkpt>
      <trkpt lat="43.05704" lon="-6.00587">
        <ele>1588.3</ele>
        <time>2023-06-16T02:01:58.000+02:00</time>
      </trkpt>
      <trkpt lat="43.05699" lon="-6.00603">
        <ele>1590.8</ele>
        <time>2023-06-16T02:02:00.000+02:00</time>
      </trkpt>
      <trkpt lat="43.05691" lon="-6.00614">
        <ele>1590.8</ele>
        <time>2023-06-16T02:02:02.000+02:00</time>
      </trkpt>
      <trkpt lat="43.05681" lon="-6.00621">
        <ele>1589.3</ele>
        <time>2023-06-16T02:02:04.000+02:00</time>
      </trkpt>
      <trkpt lat="43.05604" lon="-6.00659">
        <ele>1576.8</ele>
        <time>2023-06-16T02:02:16.000+02:00</time>
      </trkpt>
      <trkpt lat="43.05563" lon="-6.00683">
        <ele>1578.3</ele>
        <time>2023-06-16T02:02:23.000+02:00</time>
      </trkpt>
      <trkpt lat="43.0555" lon="-6.00686">
        <ele>1578</ele>
        <time>2023-06-16T02:02:25.000+02:00</time>
      </trkpt>
      <trkpt lat="43.05535" lon="-6.00684">
        <ele>1575.5</ele>
        <time>2023-06-16T02:02:27.000+02:00</time>
      </trkpt>
      <trkpt lat="43.05504" lon="-6.00673">
        <ele>1566.8</ele>
        <time>2023-06-16T02:02:32.000+02:00</time>
      </trkpt>
      <trkpt lat="43.05495" lon="-6.00674">
        <ele>1565.3</ele>
        <time>2023-06-16T02:02:34.000+02:00</time>
      </trkpt>
      <trkpt lat="43.05489" lon="-6.00677">
        <ele>1565</ele>
        <time>2023-06-16T02:02:35.000+02:00</time>
      </trkpt>
      <trkpt lat="43.05374" lon="-6.00773">
        <ele>1561.8</ele>
        <time>2023-06-16T02:02:55.000+02:00</time>
      </trkpt>
      <trkpt lat="43.05348" lon="-6.00781">
        <ele>1556.8</ele>
        <time>2023-06-16T02:02:59.000+02:00</time>
      </trkpt>
      <trkpt lat="43.05321" lon="-6.00786">
        <ele>1551.5</ele>
        <time>2023-06-16T02:03:04.000+02:00</time>
      </trkpt>
      <trkpt lat="43.05309" lon="-6.00797">
        <ele>1551.5</ele>
        <time>2023-06-16T02:03:06.000+02:00</time>
      </trkpt>
      <trkpt lat="43.05304" lon="-6.00811">
        <ele>1552.8</ele>
        <time>2023-06-16T02:03:07.000+02:00</time>
      </trkpt>
      <trkpt lat="43.05302" lon="-6.0083">
        <ele>1555.5</ele>
        <time>2023-06-16T02:03:10.000+02:00</time>
      </trkpt>
      <trkpt lat="43.05308" lon="-6.00855">
        <ele>1557.8</ele>
        <time>2023-06-16T02:03:13.000+02:00</time>
      </trkpt>
      <trkpt lat="43.0531" lon="-6.00868">
        <ele>1558.5</ele>
        <time>2023-06-16T02:03:14.000+02:00</time>
      </trkpt>
      <trkpt lat="43.05312" lon="-6.00881">
        <ele>1559.3</ele>
        <time>2023-06-16T02:03:15.000+02:00</time>
      </trkpt>
      <trkpt lat="43.0531" lon="-6.00893">
        <ele>1559</ele>
        <time>2023-06-16T02:03:17.000+02:00</time>
      </trkpt>
      <trkpt lat="43.05307" lon="-6.00901">
        <ele>1558.3</ele>
        <time>2023-06-16T02:03:18.000+02:00</time>
      </trkpt>
      <trkpt lat="43.05292" lon="-6.00925">
        <ele>1555</ele>
        <time>2023-06-16T02:03:21.000+02:00</time>
      </trkpt>
      <trkpt lat="43.05279" lon="-6.00952">
        <ele>1552.8</ele>
        <time>2023-06-16T02:03:25.000+02:00</time>
      </trkpt>
      <trkpt lat="43.05272" lon="-6.00985">
        <ele>1552.5</ele>
        <time>2023-06-16T02:03:29.000+02:00</time>
      </trkpt>
      <trkpt lat="43.05262" lon="-6.01057">
        <ele>1551.5</ele>
        <time>2023-06-16T02:03:37.000+02:00</time>
      </trkpt>
      <trkpt lat="43.05258" lon="-6.011">
        <ele>1553</ele>
        <time>2023-06-16T02:03:42.000+02:00</time>
      </trkpt>
      <trkpt lat="43.05254" lon="-6.01122">
        <ele>1553.5</ele>
        <time>2023-06-16T02:03:44.000+02:00</time>
      </trkpt>
      <trkpt lat="43.05248" lon="-6.01137">
        <ele>1552.8</ele>
        <time>2023-06-16T02:03:46.000+02:00</time>
      </trkpt>
      <trkpt lat="43.05237" lon="-6.01151">
        <ele>1550</ele>
        <time>2023-06-16T02:03:49.000+02:00</time>
      </trkpt>
      <trkpt lat="43.05142" lon="-6.01225">
        <ele>1536</ele>
        <time>2023-06-16T02:04:05.000+02:00</time>
      </trkpt>
      <trkpt lat="43.05118" lon="-6.0125">
        <ele>1533</ele>
        <time>2023-06-16T02:04:10.000+02:00</time>
      </trkpt>
      <trkpt lat="43.05107" lon="-6.01271">
        <ele>1531.5</ele>
        <time>2023-06-16T02:04:13.000+02:00</time>
      </trkpt>
      <trkpt lat="43.05094" lon="-6.0134">
        <ele>1534.8</ele>
        <time>2023-06-16T02:04:21.000+02:00</time>
      </trkpt>
      <trkpt lat="43.05087" lon="-6.01357">
        <ele>1536.3</ele>
        <time>2023-06-16T02:04:23.000+02:00</time>
      </trkpt>
      <trkpt lat="43.05082" lon="-6.01365">
        <ele>1536</ele>
        <time>2023-06-16T02:04:24.000+02:00</time>
      </trkpt>
      <trkpt lat="43.05075" lon="-6.01374">
        <ele>1535.3</ele>
        <time>2023-06-16T02:04:26.000+02:00</time>
      </trkpt>
      <trkpt lat="43.05038" lon="-6.01399">
        <ele>1527.5</ele>
        <time>2023-06-16T02:04:32.000+02:00</time>
      </trkpt>
      <trkpt lat="43.05018" lon="-6.01415">
        <ele>1523.8</ele>
        <time>2023-06-16T02:04:35.000+02:00</time>
      </trkpt>
      <trkpt lat="43.04999" lon="-6.01433">
        <ele>1519</ele>
        <time>2023-06-16T02:04:39.000+02:00</time>
      </trkpt>
      <trkpt lat="43.04985" lon="-6.01457">
        <ele>1515.5</ele>
        <time>2023-06-16T02:04:42.000+02:00</time>
      </trkpt>
      <trkpt lat="43.04976" lon="-6.01486">
        <ele>1515.3</ele>
        <time>2023-06-16T02:04:46.000+02:00</time>
      </trkpt>
      <trkpt lat="43.04963" lon="-6.01612">
        <ele>1520</ele>
        <time>2023-06-16T02:05:00.000+02:00</time>
      </trkpt>
      <trkpt lat="43.0496" lon="-6.01624">
        <ele>1519.8</ele>
        <time>2023-06-16T02:05:02.000+02:00</time>
      </trkpt>
      <trkpt lat="43.04955" lon="-6.01638">
        <ele>1518.8</ele>
        <time>2023-06-16T02:05:03.000+02:00</time>
      </trkpt>
      <trkpt lat="43.04932" lon="-6.01662">
        <ele>1510</ele>
        <time>2023-06-16T02:05:08.000+02:00</time>
      </trkpt>
      <trkpt lat="43.04926" lon="-6.0168">
        <ele>1507.8</ele>
        <time>2023-06-16T02:05:10.000+02:00</time>
      </trkpt>
      <trkpt lat="43.04901" lon="-6.01978">
        <ele>1494.4</ele>
        <time>2023-06-16T02:05:43.000+02:00</time>
      </trkpt>
      <trkpt lat="43.04952" lon="-6.02096">
        <ele>1490.1</ele>
        <time>2023-06-16T02:05:59.000+02:00</time>
      </trkpt>
      <trkpt lat="43.04986" lon="-6.02286">
        <ele>1487.2</ele>
        <time>2023-06-16T02:06:21.000+02:00</time>
      </trkpt>
      <trkpt lat="43.04981" lon="-6.0233">
        <ele>1482.7</ele>
        <time>2023-06-16T02:06:26.000+02:00</time>
      </trkpt>
      <trkpt lat="43.04952" lon="-6.0235">
        <ele>1481</ele>
        <time>2023-06-16T02:06:31.000+02:00</time>
      </trkpt>
      <trkpt lat="43.04603" lon="-6.01888">
        <ele>1455</ele>
        <time>2023-06-16T02:07:45.000+02:00</time>
      </trkpt>
      <trkpt lat="43.04558" lon="-6.01463">
        <ele>1433.8</ele>
        <time>2023-06-16T02:08:33.000+02:00</time>
      </trkpt>
      <trkpt lat="43.04475" lon="-6.01426">
        <ele>1432.4</ele>
        <time>2023-06-16T02:08:46.000+02:00</time>
      </trkpt>
      <trkpt lat="43.04317" lon="-6.01241">
        <ele>1425.1</ele>
        <time>2023-06-16T02:09:18.000+02:00</time>
      </trkpt>
      <trkpt lat="43.04137" lon="-6.01236">
        <ele>1416</ele>
        <time>2023-06-16T02:09:45.000+02:00</time>
      </trkpt>
      <trkpt lat="43.04049" lon="-6.01346">
        <ele>1409.8</ele>
        <time>2023-06-16T02:10:04.000+02:00</time>
      </trkpt>
      <trkpt lat="43.03948" lon="-6.01331">
        <ele>1402.7</ele>
        <time>2023-06-16T02:10:19.000+02:00</time>
      </trkpt>
      <trkpt lat="43.03869" lon="-6.01381">
        <ele>1399.3</ele>
        <time>2023-06-16T02:10:33.000+02:00</time>
      </trkpt>
      <trkpt lat="43.03662" lon="-6.01424">
        <ele>1393.3</ele>
        <time>2023-06-16T02:11:05.000+02:00</time>
      </trkpt>
      <trkpt lat="43.03642" lon="-6.01383">
        <ele>1390.5</ele>
        <time>2023-06-16T02:11:10.000+02:00</time>
      </trkpt>
      <trkpt lat="43.03684" lon="-6.01258">
        <ele>1385.6</ele>
        <time>2023-06-16T02:11:25.000+02:00</time>
      </trkpt>
      <trkpt lat="43.03663" lon="-6.01217">
        <ele>1383.5</ele>
        <time>2023-06-16T02:11:31.000+02:00</time>
      </trkpt>
      <trkpt lat="43.0362" lon="-6.01205">
        <ele>1381</ele>
        <time>2023-06-16T02:11:38.000+02:00</time>
      </trkpt>
      <trkpt lat="43.03494" lon="-6.01377">
        <ele>1369.9</ele>
        <time>2023-06-16T02:12:05.000+02:00</time>
      </trkpt>
      <trkpt lat="43.03449" lon="-6.01559">
        <ele>1362.6</ele>
        <time>2023-06-16T02:12:26.000+02:00</time>
      </trkpt>
      <trkpt lat="43.03406" lon="-6.0163">
        <ele>1356.5</ele>
        <time>2023-06-16T02:12:37.000+02:00</time>
      </trkpt>
      <trkpt lat="43.0325" lon="-6.0174">
        <ele>1347.3</ele>
        <time>2023-06-16T02:13:04.000+02:00</time>
      </trkpt>
      <trkpt lat="43.03239" lon="-6.01685">
        <ele>1346.7</ele>
        <time>2023-06-16T02:13:10.000+02:00</time>
      </trkpt>
      <trkpt lat="43.03351" lon="-6.01566">
        <ele>1336</ele>
        <time>2023-06-16T02:13:32.000+02:00</time>
      </trkpt>
      <trkpt lat="43.0337" lon="-6.01478">
        <ele>1333.6</ele>
        <time>2023-06-16T02:13:42.000+02:00</time>
      </trkpt>
      <trkpt lat="43.03196" lon="-6.01203">
        <ele>1312.7</ele>
        <time>2023-06-16T02:14:23.000+02:00</time>
      </trkpt>
      <trkpt lat="43.03158" lon="-6.00909">
        <ele>1299.1</ele>
        <time>2023-06-16T02:14:56.000+02:00</time>
      </trkpt>
      <trkpt lat="43.03044" lon="-6.00787">
        <ele>1290.8</ele>
        <time>2023-06-16T02:15:18.000+02:00</time>
      </trkpt>
      <trkpt lat="43.02867" lon="-6.0068">
        <ele>1284.6</ele>
        <time>2023-06-16T02:15:48.000+02:00</time>
      </trkpt>
      <trkpt lat="43.0283" lon="-6.00523">
        <ele>1281.6</ele>
        <time>2023-06-16T02:16:06.000+02:00</time>
      </trkpt>
      <trkpt lat="43.02684" lon="-6.00382">
        <ele>1276.5</ele>
        <time>2023-06-16T02:16:33.000+02:00</time>
      </trkpt>
      <trkpt lat="43.02558" lon="-6.00129">
        <ele>1288.8</ele>
        <time>2023-06-16T02:17:08.000+02:00</time>
      </trkpt>
      <trkpt lat="43.02473" lon="-6.00081">
        <ele>1290.2</ele>
        <time>2023-06-16T02:17:22.000+02:00</time>
      </trkpt>
      <trkpt lat="43.02267" lon="-6.00098">
        <ele>1289</ele>
        <time>2023-06-16T02:17:53.000+02:00</time>
      </trkpt>
      <trkpt lat="43.01757" lon="-6.00053">
        <ele>1277.9</ele>
        <time>2023-06-16T02:19:11.000+02:00</time>
      </trkpt>
      <trkpt lat="43.01163" lon="-5.99817">
        <ele>1255.4</ele>
        <time>2023-06-16T02:20:46.000+02:00</time>
      </trkpt>
      <trkpt lat="43.00843" lon="-5.99623">
        <ele>1248.5</ele>
        <time>2023-06-16T02:21:39.000+02:00</time>
      </trkpt>
      <trkpt lat="43.0074" lon="-5.99611">
        <ele>1244.3</ele>
        <time>2023-06-16T02:21:55.000+02:00</time>
      </trkpt>
      <trkpt lat="43.00605" lon="-5.99646">
        <ele>1239</ele>
        <time>2023-06-16T02:22:16.000+02:00</time>
      </trkpt>
      <trkpt lat="43.00547" lon="-5.99616">
        <ele>1236.7</ele>
        <time>2023-06-16T02:22:26.000+02:00</time>
      </trkpt>
      <trkpt lat="43.00254" lon="-5.9959">
        <ele>1226.9</ele>
        <time>2023-06-16T02:23:10.000+02:00</time>
      </trkpt>
      <trkpt lat="43.00085" lon="-5.99713">
        <ele>1225</ele>
        <time>2023-06-16T02:23:40.000+02:00</time>
      </trkpt>
      <trkpt lat="42.99761" lon="-5.99875">
        <ele>1216.3</ele>
        <time>2023-06-16T02:24:32.000+02:00</time>
      </trkpt>
      <trkpt lat="42.99276" lon="-5.99814">
        <ele>1208.4</ele>
        <time>2023-06-16T02:25:47.000+02:00</time>
      </trkpt>
      <trkpt lat="42.98169" lon="-6.00168">
        <ele>1188</ele>
        <time>2023-06-16T02:28:41.000+02:00</time>
      </trkpt>
      <trkpt lat="42.97586" lon="-6.00054">
        <ele>1181.5</ele>
        <time>2023-06-16T02:30:11.000+02:00</time>
      </trkpt>
      <trkpt lat="42.97181" lon="-6.00079">
        <ele>1177.8</ele>
        <time>2023-06-16T02:31:12.000+02:00</time>
      </trkpt>
      <trkpt lat="42.97135" lon="-6.00043">
        <ele>1177.8</ele>
        <time>2023-06-16T02:31:21.000+02:00</time>
      </trkpt>
      <trkpt lat="42.97056" lon="-6.00133">
        <ele>1174</ele>
        <time>2023-06-16T02:31:36.000+02:00</time>
      </trkpt>
      <trkpt lat="42.96604" lon="-6.00315">
        <ele>1167.5</ele>
        <time>2023-06-16T02:32:48.000+02:00</time>
      </trkpt>
      <trkpt lat="42.9652" lon="-6.00284">
        <ele>1166.4</ele>
        <time>2023-06-16T02:33:02.000+02:00</time>
      </trkpt>
      <trkpt lat="42.96105" lon="-6.00291">
        <ele>1163</ele>
        <time>2023-06-16T02:34:05.000+02:00</time>
      </trkpt>
      <trkpt lat="42.959" lon="-6.00149">
        <ele>1161.1</ele>
        <time>2023-06-16T02:34:40.000+02:00</time>
      </trkpt>
      <trkpt lat="42.95819" lon="-6.00124">
        <ele>1158.3</ele>
        <time>2023-06-16T02:34:53.000+02:00</time>
      </trkpt>
      <trkpt lat="42.95444" lon="-6.00269">
        <ele>1156.7</ele>
        <time>2023-06-16T02:35:52.000+02:00</time>
      </trkpt>
      <trkpt lat="42.95087" lon="-6.00271">
        <ele>1149.9</ele>
        <time>2023-06-16T02:36:47.000+02:00</time>
      </trkpt>
      <trkpt lat="42.94983" lon="-6.00202">
        <ele>1147.8</ele>
        <time>2023-06-16T02:37:05.000+02:00</time>
      </trkpt>
      <trkpt lat="42.94866" lon="-6.00033">
        <ele>1147.5</ele>
        <time>2023-06-16T02:37:31.000+02:00</time>
      </trkpt>
      <trkpt lat="42.94831" lon="-6.00017">
        <ele>1147.6</ele>
        <time>2023-06-16T02:37:36.000+02:00</time>
      </trkpt>
      <trkpt lat="42.9478" lon="-5.99866">
        <ele>1144.8</ele>
        <time>2023-06-16T02:37:55.000+02:00</time>
      </trkpt>
      <trkpt lat="42.94574" lon="-5.99612">
        <ele>1141</ele>
        <time>2023-06-16T02:38:37.000+02:00</time>
      </trkpt>
      <trkpt lat="42.94306" lon="-5.99201">
        <ele>1139.1</ele>
        <time>2023-06-16T02:39:39.000+02:00</time>
      </trkpt>
      <trkpt lat="42.94295" lon="-5.98919">
        <ele>1135.6</ele>
        <time>2023-06-16T02:40:10.000+02:00</time>
      </trkpt>
      <trkpt lat="42.94215" lon="-5.98584">
        <ele>1133.3</ele>
        <time>2023-06-16T02:40:50.000+02:00</time>
      </trkpt>
      <trkpt lat="42.94283" lon="-5.98216">
        <ele>1132.2</ele>
        <time>2023-06-16T02:41:32.000+02:00</time>
      </trkpt>
      <trkpt lat="42.94272" lon="-5.98021">
        <ele>1130.7</ele>
        <time>2023-06-16T02:41:54.000+02:00</time>
      </trkpt>
      <trkpt lat="42.94229" lon="-5.97909">
        <ele>1130.2</ele>
        <time>2023-06-16T02:42:08.000+02:00</time>
      </trkpt>
      <trkpt lat="42.94107" lon="-5.97789">
        <ele>1130.9</ele>
        <time>2023-06-16T02:42:31.000+02:00</time>
      </trkpt>
      <trkpt lat="42.94037" lon="-5.97767">
        <ele>1130.9</ele>
        <time>2023-06-16T02:42:42.000+02:00</time>
      </trkpt>
      <trkpt lat="42.93922" lon="-5.97813">
        <ele>1129.9</ele>
        <time>2023-06-16T02:43:00.000+02:00</time>
      </trkpt>
      <trkpt lat="42.93869" lon="-5.97795">
        <ele>1128.3</ele>
        <time>2023-06-16T02:43:09.000+02:00</time>
      </trkpt>
      <trkpt lat="42.93832" lon="-5.97744">
        <ele>1128</ele>
        <time>2023-06-16T02:43:17.000+02:00</time>
      </trkpt>
      <trkpt lat="42.93782" lon="-5.9737">
        <ele>1126.6</ele>
        <time>2023-06-16T02:43:59.000+02:00</time>
      </trkpt>
      <trkpt lat="42.93842" lon="-5.97173">
        <ele>1125.2</ele>
        <time>2023-06-16T02:44:23.000+02:00</time>
      </trkpt>
      <trkpt lat="42.93833" lon="-5.9706">
        <ele>1123.8</ele>
        <time>2023-06-16T02:44:36.000+02:00</time>
      </trkpt>
      <trkpt lat="42.93548" lon="-5.96774">
        <ele>1123.2</ele>
        <time>2023-06-16T02:45:30.000+02:00</time>
      </trkpt>
      <trkpt lat="42.93353" lon="-5.96522">
        <ele>1132.2</ele>
        <time>2023-06-16T02:46:11.000+02:00</time>
      </trkpt>
      <trkpt lat="42.93272" lon="-5.96335">
        <ele>1133.9</ele>
        <time>2023-06-16T02:46:35.000+02:00</time>
      </trkpt>
      <trkpt lat="42.93007" lon="-5.96085">
        <ele>1135.4</ele>
        <time>2023-06-16T02:47:25.000+02:00</time>
      </trkpt>
      <trkpt lat="42.92873" lon="-5.96003">
        <ele>1125.8</ele>
        <time>2023-06-16T02:47:47.000+02:00</time>
      </trkpt>
      <trkpt lat="42.9275" lon="-5.95664">
        <ele>1120.9</ele>
        <time>2023-06-16T02:48:29.000+02:00</time>
      </trkpt>
      <trkpt lat="42.92659" lon="-5.95586">
        <ele>1120.4</ele>
        <time>2023-06-16T02:48:46.000+02:00</time>
      </trkpt>
      <trkpt lat="42.92409" lon="-5.95963">
        <ele>1111.2</ele>
        <time>2023-06-16T02:49:43.000+02:00</time>
      </trkpt>
      <trkpt lat="42.92242" lon="-5.96123">
        <ele>1110</ele>
        <time>2023-06-16T02:50:14.000+02:00</time>
      </trkpt>
      <trkpt lat="42.92172" lon="-5.96291">
        <ele>1112.9</ele>
        <time>2023-06-16T02:50:35.000+02:00</time>
      </trkpt>
      <trkpt lat="42.92049" lon="-5.96323">
        <ele>1113.1</ele>
        <time>2023-06-16T02:50:55.000+02:00</time>
      </trkpt>
      <trkpt lat="42.91866" lon="-5.96244">
        <ele>1113.6</ele>
        <time>2023-06-16T02:51:24.000+02:00</time>
      </trkpt>
      <trkpt lat="42.9168" lon="-5.96047">
        <ele>1116.5</ele>
        <time>2023-06-16T02:52:00.000+02:00</time>
      </trkpt>
      <trkpt lat="42.9163" lon="-5.95734">
        <ele>1119.4</ele>
        <time>2023-06-16T02:52:36.000+02:00</time>
      </trkpt>
      <trkpt lat="42.91641" lon="-5.95582">
        <ele>1114.1</ele>
        <time>2023-06-16T02:52:53.000+02:00</time>
      </trkpt>
      <trkpt lat="42.91622" lon="-5.95466">
        <ele>1116.8</ele>
        <time>2023-06-16T02:53:06.000+02:00</time>
      </trkpt>
      <trkpt lat="42.91509" lon="-5.95274">
        <ele>1113.9</ele>
        <time>2023-06-16T02:53:34.000+02:00</time>
      </trkpt>
      <trkpt lat="42.91382" lon="-5.95122">
        <ele>1114.1</ele>
        <time>2023-06-16T02:53:59.000+02:00</time>
      </trkpt>
      <trkpt lat="42.91314" lon="-5.95077">
        <ele>1112.2</ele>
        <time>2023-06-16T02:54:11.000+02:00</time>
      </trkpt>
      <trkpt lat="42.91281" lon="-5.95097">
        <ele>1116.5</ele>
        <time>2023-06-16T02:54:17.000+02:00</time>
      </trkpt>
      <trkpt lat="42.91218" lon="-5.95082">
        <ele>1114.2</ele>
        <time>2023-06-16T02:54:26.000+02:00</time>
      </trkpt>
      <trkpt lat="42.91095" lon="-5.95132">
        <ele>1119.1</ele>
        <time>2023-06-16T02:54:46.000+02:00</time>
      </trkpt>
      <trkpt lat="42.90938" lon="-5.95152">
        <ele>1115.8</ele>
        <time>2023-06-16T02:55:10.000+02:00</time>
      </trkpt>
      <trkpt lat="42.90679" lon="-5.94866">
        <ele>1114.4</ele>
        <time>2023-06-16T02:56:01.000+02:00</time>
      </trkpt>
      <trkpt lat="42.90569" lon="-5.94675">
        <ele>1114.1</ele>
        <time>2023-06-16T02:56:28.000+02:00</time>
      </trkpt>
      <trkpt lat="42.90234" lon="-5.94664">
        <ele>1118.6</ele>
        <time>2023-06-16T02:57:19.000+02:00</time>
      </trkpt>
      <trkpt lat="42.90082" lon="-5.94749">
        <ele>1128.5</ele>
        <time>2023-06-16T02:57:44.000+02:00</time>
      </trkpt>
      <trkpt lat="42.90104" lon="-5.94902">
        <ele>1133.9</ele>
        <time>2023-06-16T02:58:02.000+02:00</time>
      </trkpt>
      <trkpt lat="42.90169" lon="-5.94922">
        <ele>1132.7</ele>
        <time>2023-06-16T02:58:12.000+02:00</time>
      </trkpt>
      <trkpt lat="42.90197" lon="-5.95062">
        <ele>1139.3</ele>
        <time>2023-06-16T02:58:28.000+02:00</time>
      </trkpt>
      <trkpt lat="42.89957" lon="-5.95473">
        <ele>1158.8</ele>
        <time>2023-06-16T02:59:27.000+02:00</time>
      </trkpt>
      <trkpt lat="42.8992" lon="-5.95624">
        <ele>1165.4</ele>
        <time>2023-06-16T02:59:45.000+02:00</time>
      </trkpt>
      <trkpt lat="42.89863" lon="-5.95736">
        <ele>1165.2</ele>
        <time>2023-06-16T03:00:00.000+02:00</time>
      </trkpt>
      <trkpt lat="42.89872" lon="-5.95906">
        <ele>1178.4</ele>
        <time>2023-06-16T03:00:19.000+02:00</time>
      </trkpt>
      <trkpt lat="42.89774" lon="-5.96265">
        <ele>1190.6</ele>
        <time>2023-06-16T03:01:02.000+02:00</time>
      </trkpt>
      <trkpt lat="42.89762" lon="-5.96465">
        <ele>1202.2</ele>
        <time>2023-06-16T03:01:25.000+02:00</time>
      </trkpt>
      <trkpt lat="42.89724" lon="-5.96503">
        <ele>1202.1</ele>
        <time>2023-06-16T03:01:32.000+02:00</time>
      </trkpt>
      <trkpt lat="42.8964" lon="-5.96502">
        <ele>1204.6</ele>
        <time>2023-06-16T03:01:45.000+02:00</time>
      </trkpt>
      <trkpt lat="42.8962" lon="-5.9656">
        <ele>1210.4</ele>
        <time>2023-06-16T03:01:52.000+02:00</time>
      </trkpt>
      <trkpt lat="42.8952" lon="-5.96605">
        <ele>1212</ele>
        <time>2023-06-16T03:02:08.000+02:00</time>
      </trkpt>
      <trkpt lat="42.8938" lon="-5.96871">
        <ele>1223.5</ele>
        <time>2023-06-16T03:02:44.000+02:00</time>
      </trkpt>
      <trkpt lat="42.89381" lon="-5.97011">
        <ele>1231.2</ele>
        <time>2023-06-16T03:03:00.000+02:00</time>
      </trkpt>
      <trkpt lat="42.89319" lon="-5.97116">
        <ele>1237.6</ele>
        <time>2023-06-16T03:03:15.000+02:00</time>
      </trkpt>
      <trkpt lat="42.89339" lon="-5.97471">
        <ele>1249.6</ele>
        <time>2023-06-16T03:03:55.000+02:00</time>
      </trkpt>
      <trkpt lat="42.8925" lon="-5.97509">
        <ele>1252.1</ele>
        <time>2023-06-16T03:04:09.000+02:00</time>
      </trkpt>
      <trkpt lat="42.89125" lon="-5.97488">
        <ele>1255.9</ele>
        <time>2023-06-16T03:04:29.000+02:00</time>
      </trkpt>
      <trkpt lat="42.89046" lon="-5.97509">
        <ele>1256.4</ele>
        <time>2023-06-16T03:04:41.000+02:00</time>
      </trkpt>
      <trkpt lat="42.88895" lon="-5.97832">
        <ele>1279.5</ele>
        <time>2023-06-16T03:05:24.000+02:00</time>
      </trkpt>
      <trkpt lat="42.88828" lon="-5.97863">
        <ele>1278.9</ele>
        <time>2023-06-16T03:05:34.000+02:00</time>
      </trkpt>
      <trkpt lat="42.88771" lon="-5.97824">
        <ele>1272.3</ele>
        <time>2023-06-16T03:05:44.000+02:00</time>
      </trkpt>
      <trkpt lat="42.8872" lon="-5.97835">
        <ele>1270.3</ele>
        <time>2023-06-16T03:05:52.000+02:00</time>
      </trkpt>
      <trkpt lat="42.88675" lon="-5.97926">
        <ele>1273.1</ele>
        <time>2023-06-16T03:06:04.000+02:00</time>
      </trkpt>
      <trkpt lat="42.88603" lon="-5.97962">
        <ele>1274.6</ele>
        <time>2023-06-16T03:06:16.000+02:00</time>
      </trkpt>
      <trkpt lat="42.88588" lon="-5.98074">
        <ele>1279.6</ele>
        <time>2023-06-16T03:06:29.000+02:00</time>
      </trkpt>
      <trkpt lat="42.88515" lon="-5.98112">
        <ele>1282.4</ele>
        <time>2023-06-16T03:06:41.000+02:00</time>
      </trkpt>
      <trkpt lat="42.88492" lon="-5.98159">
        <ele>1278.8</ele>
        <time>2023-06-16T03:06:47.000+02:00</time>
      </trkpt>
      <trkpt lat="42.88422" lon="-5.98174">
        <ele>1286.1</ele>
        <time>2023-06-16T03:06:58.000+02:00</time>
      </trkpt>
      <trkpt lat="42.8834" lon="-5.98147">
        <ele>1289.9</ele>
        <time>2023-06-16T03:07:11.000+02:00</time>
      </trkpt>
      <trkpt lat="42.88293" lon="-5.9807">
        <ele>1298.8</ele>
        <time>2023-06-16T03:07:22.000+02:00</time>
      </trkpt>
      <trkpt lat="42.88305" lon="-5.9827">
        <ele>1314.4</ele>
        <time>2023-06-16T03:07:44.000+02:00</time>
      </trkpt>
      <trkpt lat="42.88284" lon="-5.98434">
        <ele>1331.7</ele>
        <time>2023-06-16T03:08:03.000+02:00</time>
      </trkpt>
      <trkpt lat="42.87988" lon="-5.9873">
        <ele>1352.5</ele>
        <time>2023-06-16T03:08:59.000+02:00</time>
      </trkpt>
      <trkpt lat="42.87983" lon="-5.9878">
        <ele>1356.6</ele>
        <time>2023-06-16T03:09:05.000+02:00</time>
      </trkpt>
      <trkpt lat="42.88034" lon="-5.9887">
        <ele>1362.5</ele>
        <time>2023-06-16T03:09:18.000+02:00</time>
      </trkpt>
      <trkpt lat="42.88032" lon="-5.98999">
        <ele>1361.9</ele>
        <time>2023-06-16T03:09:32.000+02:00</time>
      </trkpt>
      <trkpt lat="42.88094" lon="-5.99061">
        <ele>1360.4</ele>
        <time>2023-06-16T03:09:44.000+02:00</time>
      </trkpt>
      <trkpt lat="42.88142" lon="-5.99299">
        <ele>1361.4</ele>
        <time>2023-06-16T03:10:11.000+02:00</time>
      </trkpt>
      <trkpt lat="42.88142" lon="-5.99357">
        <ele>1360.4</ele>
        <time>2023-06-16T03:10:18.000+02:00</time>
      </trkpt>
      <trkpt lat="42.88088" lon="-5.99456">
        <ele>1364.8</ele>
        <time>2023-06-16T03:10:32.000+02:00</time>
      </trkpt>
      <trkpt lat="42.88081" lon="-5.99612">
        <ele>1366.4</ele>
        <time>2023-06-16T03:10:49.000+02:00</time>
      </trkpt>
      <trkpt lat="42.88161" lon="-5.99643">
        <ele>1364.9</ele>
        <time>2023-06-16T03:11:02.000+02:00</time>
      </trkpt>
      <trkpt lat="42.88197" lon="-5.99723">
        <ele>1368.4</ele>
        <time>2023-06-16T03:11:12.000+02:00</time>
      </trkpt>
      <trkpt lat="42.88157" lon="-5.99809">
        <ele>1375.3</ele>
        <time>2023-06-16T03:11:24.000+02:00</time>
      </trkpt>
      <trkpt lat="42.88168" lon="-5.99909">
        <ele>1373.4</ele>
        <time>2023-06-16T03:11:35.000+02:00</time>
      </trkpt>
      <trkpt lat="42.88024" lon="-6.00152">
        <ele>1372.5</ele>
        <time>2023-06-16T03:12:10.000+02:00</time>
      </trkpt>
      <trkpt lat="42.8805" lon="-6.00054">
        <ele>1381.7</ele>
        <time>2023-06-16T03:12:22.000+02:00</time>
      </trkpt>
      <trkpt lat="42.88094" lon="-6.00011">
        <ele>1383</ele>
        <time>2023-06-16T03:12:30.000+02:00</time>
      </trkpt>
      <trkpt lat="42.88106" lon="-5.99929">
        <ele>1387.2</ele>
        <time>2023-06-16T03:12:40.000+02:00</time>
      </trkpt>
      <trkpt lat="42.87964" lon="-5.99822">
        <ele>1398.1</ele>
        <time>2023-06-16T03:13:04.000+02:00</time>
      </trkpt>
      <trkpt lat="42.87935" lon="-5.99842">
        <ele>1403.9</ele>
        <time>2023-06-16T03:13:09.000+02:00</time>
      </trkpt>
      <trkpt lat="42.8793" lon="-5.99959">
        <ele>1412.8</ele>
        <time>2023-06-16T03:13:22.000+02:00</time>
      </trkpt>
      <trkpt lat="42.87851" lon="-5.99994">
        <ele>1420.8</ele>
        <time>2023-06-16T03:13:35.000+02:00</time>
      </trkpt>
      <trkpt lat="42.87795" lon="-5.99973">
        <ele>1427.3</ele>
        <time>2023-06-16T03:13:44.000+02:00</time>
      </trkpt>
      <trkpt lat="42.87671" lon="-6.00189">
        <ele>1447.1</ele>
        <time>2023-06-16T03:14:15.000+02:00</time>
      </trkpt>
      <trkpt lat="42.8763" lon="-6.00207">
        <ele>1452.4</ele>
        <time>2023-06-16T03:14:21.000+02:00</time>
      </trkpt>
      <trkpt lat="42.87534" lon="-6.00488">
        <ele>1481.8</ele>
        <time>2023-06-16T03:14:56.000+02:00</time>
      </trkpt>
      <trkpt lat="42.87476" lon="-6.00551">
        <ele>1500.4</ele>
        <time>2023-06-16T03:15:08.000+02:00</time>
      </trkpt>
      <trkpt lat="42.87422" lon="-6.00473">
        <ele>1507.3</ele>
        <time>2023-06-16T03:15:20.000+02:00</time>
      </trkpt>
      <trkpt lat="42.87174" lon="-6.00375">
        <ele>1533</ele>
        <time>2023-06-16T03:15:59.000+02:00</time>
      </trkpt>
      <trkpt lat="42.86819" lon="-6.00337">
        <ele>1518</ele>
        <time>2023-06-16T03:16:53.000+02:00</time>
      </trkpt>
      <trkpt lat="42.86657" lon="-6.00392">
        <ele>1502.3</ele>
        <time>2023-06-16T03:17:19.000+02:00</time>
      </trkpt>
      <trkpt lat="42.86638" lon="-6.00471">
        <ele>1493.9</ele>
        <time>2023-06-16T03:17:28.000+02:00</time>
      </trkpt>
      <trkpt lat="42.86491" lon="-6.00403">
        <ele>1482.3</ele>
        <time>2023-06-16T03:17:52.000+02:00</time>
      </trkpt>
      <trkpt lat="42.86297" lon="-6.00437">
        <ele>1463.6</ele>
        <time>2023-06-16T03:18:22.000+02:00</time>
      </trkpt>
      <trkpt lat="42.86172" lon="-6.00549">
        <ele>1450.3</ele>
        <time>2023-06-16T03:18:45.000+02:00</time>
      </trkpt>
      <trkpt lat="42.86062" lon="-6.00593">
        <ele>1448.1</ele>
        <time>2023-06-16T03:19:02.000+02:00</time>
      </trkpt>
      <trkpt lat="42.85854" lon="-6.00585">
        <ele>1427.5</ele>
        <time>2023-06-16T03:19:34.000+02:00</time>
      </trkpt>
      <trkpt lat="42.85748" lon="-6.00648">
        <ele>1407.7</ele>
        <time>2023-06-16T03:19:52.000+02:00</time>
      </trkpt>
      <trkpt lat="42.8553" lon="-6.00686">
        <ele>1374.7</ele>
        <time>2023-06-16T03:20:25.000+02:00</time>
      </trkpt>
      <trkpt lat="42.8546" lon="-6.00664">
        <ele>1364.6</ele>
        <time>2023-06-16T03:20:36.000+02:00</time>
      </trkpt>
      <trkpt lat="42.85424" lon="-6.00603">
        <ele>1356.7</ele>
        <time>2023-06-16T03:20:45.000+02:00</time>
      </trkpt>
      <trkpt lat="42.85401" lon="-6.00761">
        <ele>1342.7</ele>
        <time>2023-06-16T03:21:03.000+02:00</time>
      </trkpt>
      <trkpt lat="42.85456" lon="-6.00856">
        <ele>1329.4</ele>
        <time>2023-06-16T03:21:17.000+02:00</time>
      </trkpt>
      <trkpt lat="42.85356" lon="-6.00919">
        <ele>1314</ele>
        <time>2023-06-16T03:21:33.000+02:00</time>
      </trkpt>
      <trkpt lat="42.85303" lon="-6.00771">
        <ele>1297</ele>
        <time>2023-06-16T03:21:52.000+02:00</time>
      </trkpt>
      <trkpt lat="42.85293" lon="-6.00953">
        <ele>1287.1</ele>
        <time>2023-06-16T03:22:12.000+02:00</time>
      </trkpt>
      <trkpt lat="42.85128" lon="-6.01199">
        <ele>1270</ele>
        <time>2023-06-16T03:22:49.000+02:00</time>
      </trkpt>
      <trkpt lat="42.85126" lon="-6.01308">
        <ele>1260.6</ele>
        <time>2023-06-16T03:23:02.000+02:00</time>
      </trkpt>
      <trkpt lat="42.85053" lon="-6.01349">
        <ele>1260</ele>
        <time>2023-06-16T03:23:14.000+02:00</time>
      </trkpt>
      <trkpt lat="42.84831" lon="-6.01612">
        <ele>1239.4</ele>
        <time>2023-06-16T03:23:59.000+02:00</time>
      </trkpt>
      <trkpt lat="42.84818" lon="-6.01662">
        <ele>1241</ele>
        <time>2023-06-16T03:24:05.000+02:00</time>
      </trkpt>
      <trkpt lat="42.84841" lon="-6.01766">
        <ele>1234.1</ele>
        <time>2023-06-16T03:24:17.000+02:00</time>
      </trkpt>
      <trkpt lat="42.84794" lon="-6.01866">
        <ele>1229.1</ele>
        <time>2023-06-16T03:24:30.000+02:00</time>
      </trkpt>
      <trkpt lat="42.84761" lon="-6.01897">
        <ele>1227</ele>
        <time>2023-06-16T03:24:36.000+02:00</time>
      </trkpt>
      <trkpt lat="42.84441" lon="-6.01963">
        <ele>1212.6</ele>
        <time>2023-06-16T03:25:26.000+02:00</time>
      </trkpt>
      <trkpt lat="42.84433" lon="-6.02017">
        <ele>1214</ele>
        <time>2023-06-16T03:25:32.000+02:00</time>
      </trkpt>
      <trkpt lat="42.84387" lon="-6.02048">
        <ele>1223.8</ele>
        <time>2023-06-16T03:25:40.000+02:00</time>
      </trkpt>
      <trkpt lat="42.84203" lon="-6.02034">
        <ele>1241.1</ele>
        <time>2023-06-16T03:26:08.000+02:00</time>
      </trkpt>
      <trkpt lat="42.84196" lon="-6.02157">
        <ele>1251.1</ele>
        <time>2023-06-16T03:26:21.000+02:00</time>
      </trkpt>
      <trkpt lat="42.84232" lon="-6.0236">
        <ele>1270.7</ele>
        <time>2023-06-16T03:26:45.000+02:00</time>
      </trkpt>
      <trkpt lat="42.84178" lon="-6.02352">
        <ele>1276.6</ele>
        <time>2023-06-16T03:26:53.000+02:00</time>
      </trkpt>
      <trkpt lat="42.84121" lon="-6.02394">
        <ele>1287.7</ele>
        <time>2023-06-16T03:27:03.000+02:00</time>
      </trkpt>
      <trkpt lat="42.84035" lon="-6.02401">
        <ele>1301.8</ele>
        <time>2023-06-16T03:27:16.000+02:00</time>
      </trkpt>
      <trkpt lat="42.83989" lon="-6.02611">
        <ele>1319.8</ele>
        <time>2023-06-16T03:27:41.000+02:00</time>
      </trkpt>
      <trkpt lat="42.84009" lon="-6.02796">
        <ele>1311.7</ele>
        <time>2023-06-16T03:28:02.000+02:00</time>
      </trkpt>
      <trkpt lat="42.84037" lon="-6.02859">
        <ele>1306.4</ele>
        <time>2023-06-16T03:28:10.000+02:00</time>
      </trkpt>
      <trkpt lat="42.84192" lon="-6.03039">
        <ele>1292.5</ele>
        <time>2023-06-16T03:28:41.000+02:00</time>
      </trkpt>
      <trkpt lat="42.84299" lon="-6.03092">
        <ele>1289.5</ele>
        <time>2023-06-16T03:28:59.000+02:00</time>
      </trkpt>
      <trkpt lat="42.8432" lon="-6.03146">
        <ele>1287.5</ele>
        <time>2023-06-16T03:29:05.000+02:00</time>
      </trkpt>
      <trkpt lat="42.84214" lon="-6.03182">
        <ele>1297.9</ele>
        <time>2023-06-16T03:29:22.000+02:00</time>
      </trkpt>
      <trkpt lat="42.84084" lon="-6.03162">
        <ele>1301.4</ele>
        <time>2023-06-16T03:29:42.000+02:00</time>
      </trkpt>
      <trkpt lat="42.83826" lon="-6.03189">
        <ele>1328.3</ele>
        <time>2023-06-16T03:30:22.000+02:00</time>
      </trkpt>
      <trkpt lat="42.83702" lon="-6.03335">
        <ele>1320.3</ele>
        <time>2023-06-16T03:30:47.000+02:00</time>
      </trkpt>
      <trkpt lat="42.83727" lon="-6.03402">
        <ele>1314.1</ele>
        <time>2023-06-16T03:30:55.000+02:00</time>
      </trkpt>
      <trkpt lat="42.83613" lon="-6.03497">
        <ele>1306.1</ele>
        <time>2023-06-16T03:31:16.000+02:00</time>
      </trkpt>
      <trkpt lat="42.83635" lon="-6.03607">
        <ele>1299.8</ele>
        <time>2023-06-16T03:31:28.000+02:00</time>
      </trkpt>
      <trkpt lat="42.83451" lon="-6.03539">
        <ele>1321.3</ele>
        <time>2023-06-16T03:31:57.000+02:00</time>
      </trkpt>
      <trkpt lat="42.83388" lon="-6.03605">
        <ele>1325.6</ele>
        <time>2023-06-16T03:32:10.000+02:00</time>
      </trkpt>
      <trkpt lat="42.83303" lon="-6.03817">
        <ele>1333.8</ele>
        <time>2023-06-16T03:32:37.000+02:00</time>
      </trkpt>
      <trkpt lat="42.83188" lon="-6.03817">
        <ele>1331.7</ele>
        <time>2023-06-16T03:32:54.000+02:00</time>
      </trkpt>
      <trkpt lat="42.83122" lon="-6.03729">
        <ele>1325.5</ele>
        <time>2023-06-16T03:33:08.000+02:00</time>
      </trkpt>
      <trkpt lat="42.82964" lon="-6.03707">
        <ele>1310.2</ele>
        <time>2023-06-16T03:33:33.000+02:00</time>
      </trkpt>
      <trkpt lat="42.82899" lon="-6.03663">
        <ele>1300.5</ele>
        <time>2023-06-16T03:33:44.000+02:00</time>
      </trkpt>
      <trkpt lat="42.82816" lon="-6.03679">
        <ele>1294.9</ele>
        <time>2023-06-16T03:33:57.000+02:00</time>
      </trkpt>
      <trkpt lat="42.82693" lon="-6.03762">
        <ele>1289.1</ele>
        <time>2023-06-16T03:34:17.000+02:00</time>
      </trkpt>
      <trkpt lat="42.82652" lon="-6.03865">
        <ele>1287</ele>
        <time>2023-06-16T03:34:31.000+02:00</time>
      </trkpt>
      <trkpt lat="42.82475" lon="-6.04076">
        <ele>1269.9</ele>
        <time>2023-06-16T03:35:07.000+02:00</time>
      </trkpt>
      <trkpt lat="42.82402" lon="-6.04086">
        <ele>1263.9</ele>
        <time>2023-06-16T03:35:18.000+02:00</time>
      </trkpt>
      <trkpt lat="42.8226" lon="-6.03929">
        <ele>1248.2</ele>
        <time>2023-06-16T03:35:46.000+02:00</time>
      </trkpt>
      <trkpt lat="42.82206" lon="-6.03832">
        <ele>1237.8</ele>
        <time>2023-06-16T03:35:59.000+02:00</time>
      </trkpt>
      <trkpt lat="42.82089" lon="-6.03808">
        <ele>1233.9</ele>
        <time>2023-06-16T03:36:17.000+02:00</time>
      </trkpt>
      <trkpt lat="42.82058" lon="-6.04147">
        <ele>1220.4</ele>
        <time>2023-06-16T03:36:56.000+02:00</time>
      </trkpt>
      <trkpt lat="42.82011" lon="-6.04321">
        <ele>1218.2</ele>
        <time>2023-06-16T03:37:17.000+02:00</time>
      </trkpt>
      <trkpt lat="42.82065" lon="-6.04402">
        <ele>1208.9</ele>
        <time>2023-06-16T03:37:29.000+02:00</time>
      </trkpt>
      <trkpt lat="42.82162" lon="-6.04329">
        <ele>1202.9</ele>
        <time>2023-06-16T03:37:46.000+02:00</time>
      </trkpt>
      <trkpt lat="42.82168" lon="-6.04476">
        <ele>1197</ele>
        <time>2023-06-16T03:38:02.000+02:00</time>
      </trkpt>
      <trkpt lat="42.82088" lon="-6.04613">
        <ele>1180.7</ele>
        <time>2023-06-16T03:38:22.000+02:00</time>
      </trkpt>
      <trkpt lat="42.82081" lon="-6.04717">
        <ele>1170.2</ele>
        <time>2023-06-16T03:38:33.000+02:00</time>
      </trkpt>
      <trkpt lat="42.8202" lon="-6.04658">
        <ele>1163</ele>
        <time>2023-06-16T03:38:45.000+02:00</time>
      </trkpt>
      <trkpt lat="42.81986" lon="-6.04665">
        <ele>1161</ele>
        <time>2023-06-16T03:38:50.000+02:00</time>
      </trkpt>
      <trkpt lat="42.8189" lon="-6.0478">
        <ele>1173.4</ele>
        <time>2023-06-16T03:39:10.000+02:00</time>
      </trkpt>
      <trkpt lat="42.81869" lon="-6.04849">
        <ele>1178.5</ele>
        <time>2023-06-16T03:39:18.000+02:00</time>
      </trkpt>
      <trkpt lat="42.81881" lon="-6.04892">
        <ele>1183.5</ele>
        <time>2023-06-16T03:39:23.000+02:00</time>
      </trkpt>
      <trkpt lat="42.81983" lon="-6.04977">
        <ele>1199.2</ele>
        <time>2023-06-16T03:39:42.000+02:00</time>
      </trkpt>
      <trkpt lat="42.82071" lon="-6.0525">
        <ele>1189.1</ele>
        <time>2023-06-16T03:40:15.000+02:00</time>
      </trkpt>
      <trkpt lat="42.82127" lon="-6.05311">
        <ele>1190.1</ele>
        <time>2023-06-16T03:40:26.000+02:00</time>
      </trkpt>
      <trkpt lat="42.82206" lon="-6.05488">
        <ele>1191.2</ele>
        <time>2023-06-16T03:40:49.000+02:00</time>
      </trkpt>
      <trkpt lat="42.82235" lon="-6.05669">
        <ele>1213.1</ele>
        <time>2023-06-16T03:41:10.000+02:00</time>
      </trkpt>
      <trkpt lat="42.82255" lon="-6.05691">
        <ele>1215.1</ele>
        <time>2023-06-16T03:41:14.000+02:00</time>
      </trkpt>
      <trkpt lat="42.82289" lon="-6.05641">
        <ele>1219.8</ele>
        <time>2023-06-16T03:41:22.000+02:00</time>
      </trkpt>
      <trkpt lat="42.82311" lon="-6.05757">
        <ele>1230.6</ele>
        <time>2023-06-16T03:41:35.000+02:00</time>
      </trkpt>
      <trkpt lat="42.82286" lon="-6.05868">
        <ele>1244.2</ele>
        <time>2023-06-16T03:41:48.000+02:00</time>
      </trkpt>
      <trkpt lat="42.82301" lon="-6.05987">
        <ele>1255.9</ele>
        <time>2023-06-16T03:42:02.000+02:00</time>
      </trkpt>
      <trkpt lat="42.82181" lon="-6.05925">
        <ele>1271.4</ele>
        <time>2023-06-16T03:42:21.000+02:00</time>
      </trkpt>
      <trkpt lat="42.82119" lon="-6.05862">
        <ele>1277.2</ele>
        <time>2023-06-16T03:42:33.000+02:00</time>
      </trkpt>
      <trkpt lat="42.81999" lon="-6.05896">
        <ele>1281</ele>
        <time>2023-06-16T03:42:52.000+02:00</time>
      </trkpt>
      <trkpt lat="42.81889" lon="-6.0583">
        <ele>1285.1</ele>
        <time>2023-06-16T03:43:10.000+02:00</time>
      </trkpt>
      <trkpt lat="42.81595" lon="-6.05461">
        <ele>1291</ele>
        <time>2023-06-16T03:44:11.000+02:00</time>
      </trkpt>
      <trkpt lat="42.81548" lon="-6.05493">
        <ele>1288.9</ele>
        <time>2023-06-16T03:44:19.000+02:00</time>
      </trkpt>
      <trkpt lat="42.81284" lon="-6.05387">
        <ele>1274.1</ele>
        <time>2023-06-16T03:45:01.000+02:00</time>
      </trkpt>
      <trkpt lat="42.81052" lon="-6.05367">
        <ele>1261.2</ele>
        <time>2023-06-16T03:45:37.000+02:00</time>
      </trkpt>
      <trkpt lat="42.80949" lon="-6.05429">
        <ele>1255.7</ele>
        <time>2023-06-16T03:45:54.000+02:00</time>
      </trkpt>
      <trkpt lat="42.8083" lon="-6.05421">
        <ele>1246.8</ele>
        <time>2023-06-16T03:46:12.000+02:00</time>
      </trkpt>
      <trkpt lat="42.8069" lon="-6.05325">
        <ele>1237.5</ele>
        <time>2023-06-16T03:46:36.000+02:00</time>
      </trkpt>
      <trkpt lat="42.80555" lon="-6.05306">
        <ele>1226.9</ele>
        <time>2023-06-16T03:46:57.000+02:00</time>
      </trkpt>
      <trkpt lat="42.80473" lon="-6.05315">
        <ele>1220.7</ele>
        <time>2023-06-16T03:47:09.000+02:00</time>
      </trkpt>
      <trkpt lat="42.80393" lon="-6.05366">
        <ele>1216</ele>
        <time>2023-06-16T03:47:23.000+02:00</time>
      </trkpt>
      <trkpt lat="42.80369" lon="-6.05497">
        <ele>1205.7</ele>
        <time>2023-06-16T03:47:38.000+02:00</time>
      </trkpt>
      <trkpt lat="42.80424" lon="-6.05667">
        <ele>1189.6</ele>
        <time>2023-06-16T03:47:59.000+02:00</time>
      </trkpt>
      <trkpt lat="42.80374" lon="-6.05694">
        <ele>1181.5</ele>
        <time>2023-06-16T03:48:07.000+02:00</time>
      </trkpt>
      <trkpt lat="42.80375" lon="-6.0573">
        <ele>1175.6</ele>
        <time>2023-06-16T03:48:11.000+02:00</time>
      </trkpt>
      <trkpt lat="42.8034" lon="-6.05721">
        <ele>1172.1</ele>
        <time>2023-06-16T03:48:17.000+02:00</time>
      </trkpt>
      <trkpt lat="42.80322" lon="-6.05677">
        <ele>1168.7</ele>
        <time>2023-06-16T03:48:22.000+02:00</time>
      </trkpt>
      <trkpt lat="42.80304" lon="-6.05763">
        <ele>1156.7</ele>
        <time>2023-06-16T03:48:32.000+02:00</time>
      </trkpt>
      <trkpt lat="42.80323" lon="-6.05789">
        <ele>1152.3</ele>
        <time>2023-06-16T03:48:37.000+02:00</time>
      </trkpt>
      <trkpt lat="42.80278" lon="-6.05785">
        <ele>1148.9</ele>
        <time>2023-06-16T03:48:43.000+02:00</time>
      </trkpt>
      <trkpt lat="42.80267" lon="-6.05757">
        <ele>1150</ele>
        <time>2023-06-16T03:48:47.000+02:00</time>
      </trkpt>
      <trkpt lat="42.80171" lon="-6.05852">
        <ele>1130.2</ele>
        <time>2023-06-16T03:49:05.000+02:00</time>
      </trkpt>
      <trkpt lat="42.80121" lon="-6.05858">
        <ele>1123.2</ele>
        <time>2023-06-16T03:49:13.000+02:00</time>
      </trkpt>
      <trkpt lat="42.80077" lon="-6.05829">
        <ele>1117</ele>
        <time>2023-06-16T03:49:20.000+02:00</time>
      </trkpt>
      <trkpt lat="42.80065" lon="-6.05898">
        <ele>1107.7</ele>
        <time>2023-06-16T03:49:28.000+02:00</time>
      </trkpt>
      <trkpt lat="42.79979" lon="-6.05806">
        <ele>1106</ele>
        <time>2023-06-16T03:49:45.000+02:00</time>
      </trkpt>
      <trkpt lat="42.79876" lon="-6.05795">
        <ele>1103.9</ele>
        <time>2023-06-16T03:50:01.000+02:00</time>
      </trkpt>
      <trkpt lat="42.79715" lon="-6.05606">
        <ele>1104.7</ele>
        <time>2023-06-16T03:50:33.000+02:00</time>
      </trkpt>
      <trkpt lat="42.7956" lon="-6.05486">
        <ele>1101.7</ele>
        <time>2023-06-16T03:51:00.000+02:00</time>
      </trkpt>
      <trkpt lat="42.79486" lon="-6.053">
        <ele>1097.3</ele>
        <time>2023-06-16T03:51:24.000+02:00</time>
      </trkpt>
      <trkpt lat="42.7938" lon="-6.0513">
        <ele>1093.6</ele>
        <time>2023-06-16T03:51:49.000+02:00</time>
      </trkpt>
      <trkpt lat="42.7932" lon="-6.04905">
        <ele>1089.5</ele>
        <time>2023-06-16T03:52:16.000+02:00</time>
      </trkpt>
      <trkpt lat="42.79183" lon="-6.047">
        <ele>1084.3</ele>
        <time>2023-06-16T03:52:47.000+02:00</time>
      </trkpt>
      <trkpt lat="42.79116" lon="-6.04544">
        <ele>1080.8</ele>
        <time>2023-06-16T03:53:07.000+02:00</time>
      </trkpt>
      <trkpt lat="42.79063" lon="-6.04502">
        <ele>1081.9</ele>
        <time>2023-06-16T03:53:17.000+02:00</time>
      </trkpt>
      <trkpt lat="42.78987" lon="-6.04517">
        <ele>1078.9</ele>
        <time>2023-06-16T03:53:28.000+02:00</time>
      </trkpt>
      <trkpt lat="42.7892" lon="-6.04402">
        <ele>1076.3</ele>
        <time>2023-06-16T03:53:45.000+02:00</time>
      </trkpt>
      <trkpt lat="42.78839" lon="-6.04389">
        <ele>1074.8</ele>
        <time>2023-06-16T03:53:57.000+02:00</time>
      </trkpt>
      <trkpt lat="42.78761" lon="-6.04869">
        <ele>1080.6</ele>
        <time>2023-06-16T03:54:52.000+02:00</time>
      </trkpt>
      <trkpt lat="42.78717" lon="-6.04993">
        <ele>1080.4</ele>
        <time>2023-06-16T03:55:08.000+02:00</time>
      </trkpt>
      <trkpt lat="42.78764" lon="-6.0513">
        <ele>1084.3</ele>
        <time>2023-06-16T03:55:25.000+02:00</time>
      </trkpt>
      <trkpt lat="42.7892" lon="-6.05217">
        <ele>1085.8</ele>
        <time>2023-06-16T03:55:51.000+02:00</time>
      </trkpt>
      <trkpt lat="42.78963" lon="-6.05274">
        <ele>1087.1</ele>
        <time>2023-06-16T03:56:00.000+02:00</time>
      </trkpt>
      <trkpt lat="42.78992" lon="-6.05474">
        <ele>1092.1</ele>
        <time>2023-06-16T03:56:23.000+02:00</time>
      </trkpt>
      <trkpt lat="42.78995" lon="-6.05862">
        <ele>1092.5</ele>
        <time>2023-06-16T03:57:06.000+02:00</time>
      </trkpt>
      <trkpt lat="42.79078" lon="-6.05992">
        <ele>1092.3</ele>
        <time>2023-06-16T03:57:25.000+02:00</time>
      </trkpt>
      <trkpt lat="42.79165" lon="-6.06195">
        <ele>1091.6</ele>
        <time>2023-06-16T03:57:52.000+02:00</time>
      </trkpt>
      <trkpt lat="42.79177" lon="-6.06307">
        <ele>1092.8</ele>
        <time>2023-06-16T03:58:04.000+02:00</time>
      </trkpt>
      <trkpt lat="42.79104" lon="-6.06517">
        <ele>1095.3</ele>
        <time>2023-06-16T03:58:31.000+02:00</time>
      </trkpt>
      <trkpt lat="42.78941" lon="-6.06665">
        <ele>1095.7</ele>
        <time>2023-06-16T03:59:00.000+02:00</time>
      </trkpt>
      <trkpt lat="42.78896" lon="-6.068">
        <ele>1096.1</ele>
        <time>2023-06-16T03:59:17.000+02:00</time>
      </trkpt>
      <trkpt lat="42.7885" lon="-6.06801">
        <ele>1103</ele>
        <time>2023-06-16T03:59:24.000+02:00</time>
      </trkpt>
      <trkpt lat="42.78793" lon="-6.06745">
        <ele>1097.8</ele>
        <time>2023-06-16T03:59:35.000+02:00</time>
      </trkpt>
      <trkpt lat="42.78752" lon="-6.06755">
        <ele>1097.5</ele>
        <time>2023-06-16T03:59:41.000+02:00</time>
      </trkpt>
      <trkpt lat="42.78663" lon="-6.07136">
        <ele>1103.2</ele>
        <time>2023-06-16T04:00:26.000+02:00</time>
      </trkpt>
      <trkpt lat="42.78523" lon="-6.07458">
        <ele>1109.3</ele>
        <time>2023-06-16T04:01:08.000+02:00</time>
      </trkpt>
      <trkpt lat="42.78515" lon="-6.07554">
        <ele>1109.8</ele>
        <time>2023-06-16T04:01:19.000+02:00</time>
      </trkpt>
      <trkpt lat="42.7846" lon="-6.07725">
        <ele>1110.7</ele>
        <time>2023-06-16T04:01:40.000+02:00</time>
      </trkpt>
      <trkpt lat="42.78359" lon="-6.07883">
        <ele>1110.7</ele>
        <time>2023-06-16T04:02:03.000+02:00</time>
      </trkpt>
      <trkpt lat="42.78336" lon="-6.08021">
        <ele>1112</ele>
        <time>2023-06-16T04:02:19.000+02:00</time>
      </trkpt>
      <trkpt lat="42.78206" lon="-6.08317">
        <ele>1116.1</ele>
        <time>2023-06-16T04:02:58.000+02:00</time>
      </trkpt>
      <trkpt lat="42.78088" lon="-6.08474">
        <ele>1120.2</ele>
        <time>2023-06-16T04:03:23.000+02:00</time>
      </trkpt>
      <trkpt lat="42.78052" lon="-6.08604">
        <ele>1121.3</ele>
        <time>2023-06-16T04:03:39.000+02:00</time>
      </trkpt>
      <trkpt lat="42.78076" lon="-6.08847">
        <ele>1130.1</ele>
        <time>2023-06-16T04:04:06.000+02:00</time>
      </trkpt>
      <trkpt lat="42.78166" lon="-6.09073">
        <ele>1130.1</ele>
        <time>2023-06-16T04:04:35.000+02:00</time>
      </trkpt>
      <trkpt lat="42.7823" lon="-6.0917">
        <ele>1130.3</ele>
        <time>2023-06-16T04:04:50.000+02:00</time>
      </trkpt>
      <trkpt lat="42.78255" lon="-6.09565">
        <ele>1131.9</ele>
        <time>2023-06-16T04:05:34.000+02:00</time>
      </trkpt>
      <trkpt lat="42.78219" lon="-6.09651">
        <ele>1134</ele>
        <time>2023-06-16T04:05:45.000+02:00</time>
      </trkpt>
      <trkpt lat="42.78137" lon="-6.0974">
        <ele>1133.2</ele>
        <time>2023-06-16T04:06:01.000+02:00</time>
      </trkpt>
      <trkpt lat="42.7804" lon="-6.10012">
        <ele>1139.3</ele>
        <time>2023-06-16T04:06:35.000+02:00</time>
      </trkpt>
      <trkpt lat="42.78056" lon="-6.10224">
        <ele>1144.1</ele>
        <time>2023-06-16T04:06:59.000+02:00</time>
      </trkpt>
      <trkpt lat="42.78106" lon="-6.1043">
        <ele>1149.6</ele>
        <time>2023-06-16T04:07:23.000+02:00</time>
      </trkpt>
      <trkpt lat="42.78098" lon="-6.10508">
        <ele>1150.6</ele>
        <time>2023-06-16T04:07:32.000+02:00</time>
      </trkpt>
      <trkpt lat="42.78042" lon="-6.10631">
        <ele>1149.5</ele>
        <time>2023-06-16T04:07:48.000+02:00</time>
      </trkpt>
      <trkpt lat="42.78033" lon="-6.10766">
        <ele>1149</ele>
        <time>2023-06-16T04:08:03.000+02:00</time>
      </trkpt>
      <trkpt lat="42.78091" lon="-6.11266">
        <ele>1154.9</ele>
        <time>2023-06-16T04:09:00.000+02:00</time>
      </trkpt>
      <trkpt lat="42.78347" lon="-6.11797">
        <ele>1163.5</ele>
        <time>2023-06-16T04:10:12.000+02:00</time>
      </trkpt>
      <trkpt lat="42.78351" lon="-6.11903">
        <ele>1163.7</ele>
        <time>2023-06-16T04:10:23.000+02:00</time>
      </trkpt>
      <trkpt lat="42.78301" lon="-6.1211">
        <ele>1170.8</ele>
        <time>2023-06-16T04:10:48.000+02:00</time>
      </trkpt>
      <trkpt lat="42.78297" lon="-6.12241">
        <ele>1180.6</ele>
        <time>2023-06-16T04:11:03.000+02:00</time>
      </trkpt>
      <trkpt lat="42.78218" lon="-6.12445">
        <ele>1180.1</ele>
        <time>2023-06-16T04:11:28.000+02:00</time>
      </trkpt>
      <trkpt lat="42.78302" lon="-6.131">
        <ele>1197</ele>
        <time>2023-06-16T04:12:43.000+02:00</time>
      </trkpt>
      <trkpt lat="42.7837" lon="-6.13312">
        <ele>1199.8</ele>
        <time>2023-06-16T04:13:09.000+02:00</time>
      </trkpt>
      <trkpt lat="42.78372" lon="-6.13524">
        <ele>1200.6</ele>
        <time>2023-06-16T04:13:33.000+02:00</time>
      </trkpt>
      <trkpt lat="42.7845" lon="-6.13844">
        <ele>1197.6</ele>
        <time>2023-06-16T04:14:11.000+02:00</time>
      </trkpt>
      <trkpt lat="42.78444" lon="-6.14016">
        <ele>1199.4</ele>
        <time>2023-06-16T04:14:30.000+02:00</time>
      </trkpt>
      <trkpt lat="42.78494" lon="-6.14147">
        <ele>1204.1</ele>
        <time>2023-06-16T04:14:46.000+02:00</time>
      </trkpt>
      <trkpt lat="42.78542" lon="-6.14449">
        <ele>1202.8</ele>
        <time>2023-06-16T04:15:21.000+02:00</time>
      </trkpt>
      <trkpt lat="42.7865" lon="-6.14592">
        <ele>1210.1</ele>
        <time>2023-06-16T04:15:44.000+02:00</time>
      </trkpt>
      <trkpt lat="42.78964" lon="-6.15314">
        <ele>1211.7</ele>
        <time>2023-06-16T04:17:18.000+02:00</time>
      </trkpt>
      <trkpt lat="42.79038" lon="-6.15641">
        <ele>1209.5</ele>
        <time>2023-06-16T04:17:56.000+02:00</time>
      </trkpt>
      <trkpt lat="42.79028" lon="-6.15885">
        <ele>1211</ele>
        <time>2023-06-16T04:18:24.000+02:00</time>
      </trkpt>
      <trkpt lat="42.79023" lon="-6.15906">
        <ele>1211.7</ele>
        <time>2023-06-16T04:18:26.000+02:00</time>
      </trkpt>
      <trkpt lat="42.78958" lon="-6.15905">
        <ele>1212.1</ele>
        <time>2023-06-16T04:18:36.000+02:00</time>
      </trkpt>
      <trkpt lat="42.78883" lon="-6.15857">
        <ele>1205.5</ele>
        <time>2023-06-16T04:18:49.000+02:00</time>
      </trkpt>
      <trkpt lat="42.78752" lon="-6.15615">
        <ele>1209</ele>
        <time>2023-06-16T04:19:23.000+02:00</time>
      </trkpt>
      <trkpt lat="42.78574" lon="-6.15592">
        <ele>1211.3</ele>
        <time>2023-06-16T04:19:50.000+02:00</time>
      </trkpt>
      <trkpt lat="42.7855" lon="-6.15602">
        <ele>1214.4</ele>
        <time>2023-06-16T04:19:54.000+02:00</time>
      </trkpt>
      <trkpt lat="42.78542" lon="-6.15652">
        <ele>1220</ele>
        <time>2023-06-16T04:20:00.000+02:00</time>
      </trkpt>
      <trkpt lat="42.78379" lon="-6.15419">
        <ele>1252</ele>
        <time>2023-06-16T04:20:36.000+02:00</time>
      </trkpt>
      <trkpt lat="42.78296" lon="-6.15364">
        <ele>1268.1</ele>
        <time>2023-06-16T04:20:50.000+02:00</time>
      </trkpt>
      <trkpt lat="42.78108" lon="-6.15443">
        <ele>1295</ele>
        <time>2023-06-16T04:21:20.000+02:00</time>
      </trkpt>
      <trkpt lat="42.78022" lon="-6.15556">
        <ele>1309.4</ele>
        <time>2023-06-16T04:21:38.000+02:00</time>
      </trkpt>
      <trkpt lat="42.7799" lon="-6.15695">
        <ele>1328.4</ele>
        <time>2023-06-16T04:21:55.000+02:00</time>
      </trkpt>
      <trkpt lat="42.77947" lon="-6.15612">
        <ele>1337.2</ele>
        <time>2023-06-16T04:22:06.000+02:00</time>
      </trkpt>
      <trkpt lat="42.77954" lon="-6.15467">
        <ele>1351.6</ele>
        <time>2023-06-16T04:22:22.000+02:00</time>
      </trkpt>
      <trkpt lat="42.77881" lon="-6.15559">
        <ele>1366.5</ele>
        <time>2023-06-16T04:22:38.000+02:00</time>
      </trkpt>
      <trkpt lat="42.77869" lon="-6.15642">
        <ele>1372.1</ele>
        <time>2023-06-16T04:22:47.000+02:00</time>
      </trkpt>
      <trkpt lat="42.77784" lon="-6.15839">
        <ele>1399</ele>
        <time>2023-06-16T04:23:13.000+02:00</time>
      </trkpt>
      <trkpt lat="42.77832" lon="-6.15957">
        <ele>1409.5</ele>
        <time>2023-06-16T04:23:28.000+02:00</time>
      </trkpt>
      <trkpt lat="42.77801" lon="-6.16142">
        <ele>1429</ele>
        <time>2023-06-16T04:23:49.000+02:00</time>
      </trkpt>
      <trkpt lat="42.77669" lon="-6.16359">
        <ele>1456.5</ele>
        <time>2023-06-16T04:24:21.000+02:00</time>
      </trkpt>
      <trkpt lat="42.77672" lon="-6.16234">
        <ele>1468.2</ele>
        <time>2023-06-16T04:24:35.000+02:00</time>
      </trkpt>
      <trkpt lat="42.77637" lon="-6.16071">
        <ele>1482.9</ele>
        <time>2023-06-16T04:24:54.000+02:00</time>
      </trkpt>
      <trkpt lat="42.77557" lon="-6.15984">
        <ele>1495.2</ele>
        <time>2023-06-16T04:25:09.000+02:00</time>
      </trkpt>
      <trkpt lat="42.77481" lon="-6.16011">
        <ele>1505.6</ele>
        <time>2023-06-16T04:25:21.000+02:00</time>
      </trkpt>
      <trkpt lat="42.77424" lon="-6.15994">
        <ele>1511</ele>
        <time>2023-06-16T04:25:30.000+02:00</time>
      </trkpt>
      <trkpt lat="42.77257" lon="-6.16132">
        <ele>1537.2</ele>
        <time>2023-06-16T04:26:00.000+02:00</time>
      </trkpt>
      <trkpt lat="42.771" lon="-6.16118">
        <ele>1559</ele>
        <time>2023-06-16T04:26:24.000+02:00</time>
      </trkpt>
      <trkpt lat="42.77087" lon="-6.15984">
        <ele>1571.7</ele>
        <time>2023-06-16T04:26:39.000+02:00</time>
      </trkpt>
      <trkpt lat="42.77002" lon="-6.15947">
        <ele>1584</ele>
        <time>2023-06-16T04:26:53.000+02:00</time>
      </trkpt>
      <trkpt lat="42.77016" lon="-6.15906">
        <ele>1586</ele>
        <time>2023-06-16T04:26:58.000+02:00</time>
      </trkpt>
      <trkpt lat="42.76981" lon="-6.15796">
        <ele>1597.6</ele>
        <time>2023-06-16T04:27:12.000+02:00</time>
      </trkpt>
      <trkpt lat="42.76844" lon="-6.15964">
        <ele>1628.5</ele>
        <time>2023-06-16T04:27:40.000+02:00</time>
      </trkpt>
      <trkpt lat="42.76674" lon="-6.15895">
        <ele>1654.4</ele>
        <time>2023-06-16T04:28:07.000+02:00</time>
      </trkpt>
      <trkpt lat="42.76476" lon="-6.15877">
        <ele>1690.6</ele>
        <time>2023-06-16T04:28:37.000+02:00</time>
      </trkpt>
      <trkpt lat="42.76547" lon="-6.15973">
        <ele>1710.5</ele>
        <time>2023-06-16T04:28:53.000+02:00</time>
      </trkpt>
      <trkpt lat="42.76574" lon="-6.16062">
        <ele>1727.7</ele>
        <time>2023-06-16T04:29:04.000+02:00</time>
      </trkpt>
      <trkpt lat="42.76702" lon="-6.16224">
        <ele>1748.2</ele>
        <time>2023-06-16T04:29:30.000+02:00</time>
      </trkpt>
      <trkpt lat="42.76732" lon="-6.16308">
        <ele>1748.6</ele>
        <time>2023-06-16T04:29:41.000+02:00</time>
      </trkpt>
      <trkpt lat="42.76761" lon="-6.16693">
        <ele>1742.6</ele>
        <time>2023-06-16T04:30:24.000+02:00</time>
      </trkpt>
      <trkpt lat="42.76856" lon="-6.17318">
        <ele>1752.2</ele>
        <time>2023-06-16T04:31:36.000+02:00</time>
      </trkpt>
      <trkpt lat="42.76885" lon="-6.17446">
        <ele>1763.7</ele>
        <time>2023-06-16T04:31:51.000+02:00</time>
      </trkpt>
      <trkpt lat="42.76966" lon="-6.1764">
        <ele>1783.4</ele>
        <time>2023-06-16T04:32:16.000+02:00</time>
      </trkpt>
      <trkpt lat="42.7695" lon="-6.18159">
        <ele>1728.7</ele>
        <time>2023-06-16T04:33:14.000+02:00</time>
      </trkpt>
      <trkpt lat="42.76999" lon="-6.18264">
        <ele>1718.6</ele>
        <time>2023-06-16T04:33:28.000+02:00</time>
      </trkpt>
      <trkpt lat="42.77008" lon="-6.18428">
        <ele>1702.9</ele>
        <time>2023-06-16T04:33:46.000+02:00</time>
      </trkpt>
      <trkpt lat="42.77146" lon="-6.18617">
        <ele>1684.1</ele>
        <time>2023-06-16T04:34:16.000+02:00</time>
      </trkpt>
      <trkpt lat="42.77158" lon="-6.18832">
        <ele>1674</ele>
        <time>2023-06-16T04:34:40.000+02:00</time>
      </trkpt>
      <trkpt lat="42.77237" lon="-6.18956">
        <ele>1671.9</ele>
        <time>2023-06-16T04:34:59.000+02:00</time>
      </trkpt>
      <trkpt lat="42.77294" lon="-6.19148">
        <ele>1670.4</ele>
        <time>2023-06-16T04:35:22.000+02:00</time>
      </trkpt>
      <trkpt lat="42.77559" lon="-6.19426">
        <ele>1670.3</ele>
        <time>2023-06-16T04:36:13.000+02:00</time>
      </trkpt>
      <trkpt lat="42.77675" lon="-6.19405">
        <ele>1671.5</ele>
        <time>2023-06-16T04:36:31.000+02:00</time>
      </trkpt>
      <trkpt lat="42.7776" lon="-6.19338">
        <ele>1674</ele>
        <time>2023-06-16T04:36:46.000+02:00</time>
      </trkpt>
      <trkpt lat="42.77863" lon="-6.19349">
        <ele>1674.3</ele>
        <time>2023-06-16T04:37:02.000+02:00</time>
      </trkpt>
      <trkpt lat="42.78069" lon="-6.19476">
        <ele>1674.6</ele>
        <time>2023-06-16T04:37:36.000+02:00</time>
      </trkpt>
      <trkpt lat="42.78139" lon="-6.19623">
        <ele>1676.4</ele>
        <time>2023-06-16T04:37:56.000+02:00</time>
      </trkpt>
      <trkpt lat="42.78104" lon="-6.19623">
        <ele>1672.5</ele>
        <time>2023-06-16T04:38:02.000+02:00</time>
      </trkpt>
      <trkpt lat="42.77975" lon="-6.19498">
        <ele>1652.2</ele>
        <time>2023-06-16T04:38:26.000+02:00</time>
      </trkpt>
      <trkpt lat="42.77882" lon="-6.19466">
        <ele>1641.6</ele>
        <time>2023-06-16T04:38:40.000+02:00</time>
      </trkpt>
      <trkpt lat="42.77943" lon="-6.19604">
        <ele>1622.8</ele>
        <time>2023-06-16T04:38:58.000+02:00</time>
      </trkpt>
      <trkpt lat="42.77955" lon="-6.19686">
        <ele>1618.2</ele>
        <time>2023-06-16T04:39:08.000+02:00</time>
      </trkpt>
      <trkpt lat="42.77896" lon="-6.19631">
        <ele>1603.4</ele>
        <time>2023-06-16T04:39:19.000+02:00</time>
      </trkpt>
      <trkpt lat="42.77904" lon="-6.19695">
        <ele>1595.8</ele>
        <time>2023-06-16T04:39:26.000+02:00</time>
      </trkpt>
      <trkpt lat="42.7787" lon="-6.1982">
        <ele>1583.7</ele>
        <time>2023-06-16T04:39:41.000+02:00</time>
      </trkpt>
      <trkpt lat="42.77846" lon="-6.19724">
        <ele>1568.9</ele>
        <time>2023-06-16T04:39:52.000+02:00</time>
      </trkpt>
      <trkpt lat="42.77789" lon="-6.19686">
        <ele>1560</ele>
        <time>2023-06-16T04:40:02.000+02:00</time>
      </trkpt>
      <trkpt lat="42.77794" lon="-6.1974">
        <ele>1550.2</ele>
        <time>2023-06-16T04:40:08.000+02:00</time>
      </trkpt>
      <trkpt lat="42.77675" lon="-6.19854">
        <ele>1526.6</ele>
        <time>2023-06-16T04:40:30.000+02:00</time>
      </trkpt>
      <trkpt lat="42.77614" lon="-6.19975">
        <ele>1518</ele>
        <time>2023-06-16T04:40:47.000+02:00</time>
      </trkpt>
      <trkpt lat="42.77474" lon="-6.2008">
        <ele>1502.2</ele>
        <time>2023-06-16T04:41:11.000+02:00</time>
      </trkpt>
      <trkpt lat="42.77396" lon="-6.20252">
        <ele>1492.1</ele>
        <time>2023-06-16T04:41:34.000+02:00</time>
      </trkpt>
      <trkpt lat="42.77274" lon="-6.20362">
        <ele>1473.3</ele>
        <time>2023-06-16T04:41:56.000+02:00</time>
      </trkpt>
      <trkpt lat="42.77171" lon="-6.20386">
        <ele>1469.2</ele>
        <time>2023-06-16T04:42:12.000+02:00</time>
      </trkpt>
      <trkpt lat="42.77046" lon="-6.20351">
        <ele>1462.2</ele>
        <time>2023-06-16T04:42:32.000+02:00</time>
      </trkpt>
      <trkpt lat="42.7695" lon="-6.20434">
        <ele>1447.7</ele>
        <time>2023-06-16T04:42:49.000+02:00</time>
      </trkpt>
      <trkpt lat="42.76838" lon="-6.20432">
        <ele>1429.5</ele>
        <time>2023-06-16T04:43:06.000+02:00</time>
      </trkpt>
      <trkpt lat="42.76747" lon="-6.20488">
        <ele>1408.9</ele>
        <time>2023-06-16T04:43:22.000+02:00</time>
      </trkpt>
      <trkpt lat="42.76672" lon="-6.20444">
        <ele>1398</ele>
        <time>2023-06-16T04:43:34.000+02:00</time>
      </trkpt>
      <trkpt lat="42.76641" lon="-6.20501">
        <ele>1387.9</ele>
        <time>2023-06-16T04:43:42.000+02:00</time>
      </trkpt>
      <trkpt lat="42.76336" lon="-6.2073">
        <ele>1360.3</ele>
        <time>2023-06-16T04:44:35.000+02:00</time>
      </trkpt>
      <trkpt lat="42.76276" lon="-6.20722">
        <ele>1356.7</ele>
        <time>2023-06-16T04:44:44.000+02:00</time>
      </trkpt>
      <trkpt lat="42.75985" lon="-6.20568">
        <ele>1332.8</ele>
        <time>2023-06-16T04:45:32.000+02:00</time>
      </trkpt>
      <trkpt lat="42.757" lon="-6.20529">
        <ele>1313.3</ele>
        <time>2023-06-16T04:46:16.000+02:00</time>
      </trkpt>
      <trkpt lat="42.75567" lon="-6.20553">
        <ele>1304.3</ele>
        <time>2023-06-16T04:46:37.000+02:00</time>
      </trkpt>
      <trkpt lat="42.75394" lon="-6.20464">
        <ele>1285.9</ele>
        <time>2023-06-16T04:47:05.000+02:00</time>
      </trkpt>
      <trkpt lat="42.75136" lon="-6.20426">
        <ele>1281.5</ele>
        <time>2023-06-16T04:47:44.000+02:00</time>
      </trkpt>
      <trkpt lat="42.75013" lon="-6.20348">
        <ele>1307.4</ele>
        <time>2023-06-16T04:48:05.000+02:00</time>
      </trkpt>
      <trkpt lat="42.74789" lon="-6.20347">
        <ele>1351.1</ele>
        <time>2023-06-16T04:48:39.000+02:00</time>
      </trkpt>
      <trkpt lat="42.74619" lon="-6.20173">
        <ele>1343.6</ele>
        <time>2023-06-16T04:49:12.000+02:00</time>
      </trkpt>
      <trkpt lat="42.74449" lon="-6.20084">
        <ele>1333.8</ele>
        <time>2023-06-16T04:49:40.000+02:00</time>
      </trkpt>
      <trkpt lat="42.74362" lon="-6.19978">
        <ele>1314</ele>
        <time>2023-06-16T04:49:58.000+02:00</time>
      </trkpt>
      <trkpt lat="42.74363" lon="-6.19866">
        <ele>1299</ele>
        <time>2023-06-16T04:50:10.000+02:00</time>
      </trkpt>
      <trkpt lat="42.74285" lon="-6.19933">
        <ele>1277.8</ele>
        <time>2023-06-16T04:50:24.000+02:00</time>
      </trkpt>
      <trkpt lat="42.74254" lon="-6.20017">
        <ele>1262.8</ele>
        <time>2023-06-16T04:50:35.000+02:00</time>
      </trkpt>
      <trkpt lat="42.74251" lon="-6.20113">
        <ele>1251.8</ele>
        <time>2023-06-16T04:50:46.000+02:00</time>
      </trkpt>
      <trkpt lat="42.74206" lon="-6.20038">
        <ele>1249.4</ele>
        <time>2023-06-16T04:50:57.000+02:00</time>
      </trkpt>
      <trkpt lat="42.74217" lon="-6.19938">
        <ele>1243.2</ele>
        <time>2023-06-16T04:51:08.000+02:00</time>
      </trkpt>
      <trkpt lat="42.74195" lon="-6.19848">
        <ele>1232.3</ele>
        <time>2023-06-16T04:51:18.000+02:00</time>
      </trkpt>
      <trkpt lat="42.74106" lon="-6.19802">
        <ele>1212.3</ele>
        <time>2023-06-16T04:51:33.000+02:00</time>
      </trkpt>
      <trkpt lat="42.74056" lon="-6.19855">
        <ele>1204.1</ele>
        <time>2023-06-16T04:51:43.000+02:00</time>
      </trkpt>
      <trkpt lat="42.74064" lon="-6.20004">
        <ele>1190.2</ele>
        <time>2023-06-16T04:52:00.000+02:00</time>
      </trkpt>
      <trkpt lat="42.74042" lon="-6.20119">
        <ele>1171.7</ele>
        <time>2023-06-16T04:52:13.000+02:00</time>
      </trkpt>
      <trkpt lat="42.7406" lon="-6.20159">
        <ele>1170.4</ele>
        <time>2023-06-16T04:52:18.000+02:00</time>
      </trkpt>
      <trkpt lat="42.7406" lon="-6.20304">
        <ele>1143</ele>
        <time>2023-06-16T04:52:35.000+02:00</time>
      </trkpt>
      <trkpt lat="42.73977" lon="-6.20381">
        <ele>1159.6</ele>
        <time>2023-06-16T04:52:50.000+02:00</time>
      </trkpt>
      <trkpt lat="42.73876" lon="-6.20416">
        <ele>1176.3</ele>
        <time>2023-06-16T04:53:06.000+02:00</time>
      </trkpt>
      <trkpt lat="42.73702" lon="-6.20658">
        <ele>1165.2</ele>
        <time>2023-06-16T04:53:44.000+02:00</time>
      </trkpt>
      <trkpt lat="42.73601" lon="-6.20639">
        <ele>1164.2</ele>
        <time>2023-06-16T04:53:59.000+02:00</time>
      </trkpt>
      <trkpt lat="42.73479" lon="-6.20763">
        <ele>1159.7</ele>
        <time>2023-06-16T04:54:23.000+02:00</time>
      </trkpt>
      <trkpt lat="42.73396" lon="-6.20787">
        <ele>1154.3</ele>
        <time>2023-06-16T04:54:36.000+02:00</time>
      </trkpt>
      <trkpt lat="42.73257" lon="-6.20898">
        <ele>1125.3</ele>
        <time>2023-06-16T04:55:00.000+02:00</time>
      </trkpt>
      <trkpt lat="42.73241" lon="-6.20899">
        <ele>1123.8</ele>
        <time>2023-06-16T04:55:03.000+02:00</time>
      </trkpt>
      <trkpt lat="42.73218" lon="-6.20886">
        <ele>1121.5</ele>
        <time>2023-06-16T04:55:07.000+02:00</time>
      </trkpt>
      <trkpt lat="42.73201" lon="-6.20869">
        <ele>1121</ele>
        <time>2023-06-16T04:55:10.000+02:00</time>
      </trkpt>
      <trkpt lat="42.73183" lon="-6.20849">
        <ele>1121.5</ele>
        <time>2023-06-16T04:55:13.000+02:00</time>
      </trkpt>
      <trkpt lat="42.73114" lon="-6.20815">
        <ele>1105.5</ele>
        <time>2023-06-16T04:55:25.000+02:00</time>
      </trkpt>
      <trkpt lat="42.73094" lon="-6.20798">
        <ele>1100.8</ele>
        <time>2023-06-16T04:55:28.000+02:00</time>
      </trkpt>
      <trkpt lat="42.73079" lon="-6.20764">
        <ele>1098.5</ele>
        <time>2023-06-16T04:55:33.000+02:00</time>
      </trkpt>
      <trkpt lat="42.73078" lon="-6.20762">
        <ele>1098.5</ele>
        <time>2023-06-16T04:55:33.000+02:00</time>
      </trkpt>
      <trkpt lat="42.73073" lon="-6.20727">
        <ele>1094.5</ele>
        <time>2023-06-16T04:55:37.000+02:00</time>
      </trkpt>
      <trkpt lat="42.7308" lon="-6.20696">
        <ele>1092</ele>
        <time>2023-06-16T04:55:41.000+02:00</time>
      </trkpt>
      <trkpt lat="42.7308" lon="-6.20687">
        <ele>1090.8</ele>
        <time>2023-06-16T04:55:42.000+02:00</time>
      </trkpt>
      <trkpt lat="42.73074" lon="-6.20682">
        <ele>1088.8</ele>
        <time>2023-06-16T04:55:43.000+02:00</time>
      </trkpt>
      <trkpt lat="42.73018" lon="-6.20739">
        <ele>1082.5</ele>
        <time>2023-06-16T04:55:53.000+02:00</time>
      </trkpt>
      <trkpt lat="42.73011" lon="-6.20827">
        <ele>1072.3</ele>
        <time>2023-06-16T04:56:03.000+02:00</time>
      </trkpt>
      <trkpt lat="42.73003" lon="-6.20831">
        <ele>1069</ele>
        <time>2023-06-16T04:56:05.000+02:00</time>
      </trkpt>
      <trkpt lat="42.72986" lon="-6.20818">
        <ele>1066</ele>
        <time>2023-06-16T04:56:08.000+02:00</time>
      </trkpt>
      <trkpt lat="42.72971" lon="-6.20788">
        <ele>1065</ele>
        <time>2023-06-16T04:56:12.000+02:00</time>
      </trkpt>
      <trkpt lat="42.72956" lon="-6.20724">
        <ele>1062.8</ele>
        <time>2023-06-16T04:56:19.000+02:00</time>
      </trkpt>
      <trkpt lat="42.72953" lon="-6.20716">
        <ele>1060.8</ele>
        <time>2023-06-16T04:56:20.000+02:00</time>
      </trkpt>
      <trkpt lat="42.72953" lon="-6.20691">
        <ele>1058</ele>
        <time>2023-06-16T04:56:23.000+02:00</time>
      </trkpt>
      <trkpt lat="42.72956" lon="-6.20659">
        <ele>1054.8</ele>
        <time>2023-06-16T04:56:27.000+02:00</time>
      </trkpt>
      <trkpt lat="42.72968" lon="-6.2063">
        <ele>1053</ele>
        <time>2023-06-16T04:56:30.000+02:00</time>
      </trkpt>
      <trkpt lat="42.72968" lon="-6.20627">
        <ele>1050.3</ele>
        <time>2023-06-16T04:56:31.000+02:00</time>
      </trkpt>
      <trkpt lat="42.72967" lon="-6.20615">
        <ele>1050.3</ele>
        <time>2023-06-16T04:56:32.000+02:00</time>
      </trkpt>
      <trkpt lat="42.72945" lon="-6.20651">
        <ele>1050.5</ele>
        <time>2023-06-16T04:56:37.000+02:00</time>
      </trkpt>
      <trkpt lat="42.72933" lon="-6.2072">
        <ele>1056.3</ele>
        <time>2023-06-16T04:56:45.000+02:00</time>
      </trkpt>
      <trkpt lat="42.72906" lon="-6.20767">
        <ele>1053</ele>
        <time>2023-06-16T04:56:52.000+02:00</time>
      </trkpt>
      <trkpt lat="42.72898" lon="-6.20792">
        <ele>1050</ele>
        <time>2023-06-16T04:56:55.000+02:00</time>
      </trkpt>
      <trkpt lat="42.72895" lon="-6.20807">
        <ele>1048.8</ele>
        <time>2023-06-16T04:56:57.000+02:00</time>
      </trkpt>
      <trkpt lat="42.72894" lon="-6.20837">
        <ele>1045.8</ele>
        <time>2023-06-16T04:57:00.000+02:00</time>
      </trkpt>
      <trkpt lat="42.7289" lon="-6.20879">
        <ele>1040.5</ele>
        <time>2023-06-16T04:57:05.000+02:00</time>
      </trkpt>
      <trkpt lat="42.72889" lon="-6.20904">
        <ele>1037.3</ele>
        <time>2023-06-16T04:57:08.000+02:00</time>
      </trkpt>
      <trkpt lat="42.72883" lon="-6.20948">
        <ele>1028.8</ele>
        <time>2023-06-16T04:57:13.000+02:00</time>
      </trkpt>
      <trkpt lat="42.72905" lon="-6.20973">
        <ele>1030.4</ele>
        <time>2023-06-16T04:57:17.000+02:00</time>
      </trkpt>
      <trkpt lat="42.72949" lon="-6.20957">
        <ele>1026</ele>
        <time>2023-06-16T04:57:24.000+02:00</time>
      </trkpt>
      <trkpt lat="42.72953" lon="-6.21103">
        <ele>1008.8</ele>
        <time>2023-06-16T04:57:45.000+02:00</time>
      </trkpt>
      <trkpt lat="42.72927" lon="-6.2114">
        <ele>998.5</ele>
        <time>2023-06-16T04:57:52.000+02:00</time>
      </trkpt>
      <trkpt lat="42.72922" lon="-6.21135">
        <ele>998.5</ele>
        <time>2023-06-16T04:57:53.000+02:00</time>
      </trkpt>
      <trkpt lat="42.72904" lon="-6.2111">
        <ele>999.5</ele>
        <time>2023-06-16T04:57:58.000+02:00</time>
      </trkpt>
      <trkpt lat="42.7289" lon="-6.21118">
        <ele>996.5</ele>
        <time>2023-06-16T04:58:01.000+02:00</time>
      </trkpt>
      <trkpt lat="42.72883" lon="-6.21136">
        <ele>993</ele>
        <time>2023-06-16T04:58:03.000+02:00</time>
      </trkpt>
      <trkpt lat="42.72876" lon="-6.21132">
        <ele>992.8</ele>
        <time>2023-06-16T04:58:05.000+02:00</time>
      </trkpt>
      <trkpt lat="42.72869" lon="-6.21131">
        <ele>992</ele>
        <time>2023-06-16T04:58:06.000+02:00</time>
      </trkpt>
      <trkpt lat="42.72848" lon="-6.21128">
        <ele>989.8</ele>
        <time>2023-06-16T04:58:10.000+02:00</time>
      </trkpt>
      <trkpt lat="42.72831" lon="-6.21121">
        <ele>988.8</ele>
        <time>2023-06-16T04:58:14.000+02:00</time>
      </trkpt>
      <trkpt lat="42.72823" lon="-6.21123">
        <ele>987.5</ele>
        <time>2023-06-16T04:58:15.000+02:00</time>
      </trkpt>
      <trkpt lat="42.72821" lon="-6.21121">
        <ele>987.8</ele>
        <time>2023-06-16T04:58:16.000+02:00</time>
      </trkpt>
      <trkpt lat="42.72817" lon="-6.21116">
        <ele>987.8</ele>
        <time>2023-06-16T04:58:17.000+02:00</time>
      </trkpt>
      <trkpt lat="42.72805" lon="-6.21133">
        <ele>984.8</ele>
        <time>2023-06-16T04:58:20.000+02:00</time>
      </trkpt>
      <trkpt lat="42.72803" lon="-6.21138">
        <ele>984</ele>
        <time>2023-06-16T04:58:21.000+02:00</time>
      </trkpt>
      <trkpt lat="42.72797" lon="-6.21151">
        <ele>982.8</ele>
        <time>2023-06-16T04:58:23.000+02:00</time>
      </trkpt>
      <trkpt lat="42.72794" lon="-6.21166">
        <ele>981.5</ele>
        <time>2023-06-16T04:58:25.000+02:00</time>
      </trkpt>
      <trkpt lat="42.72795" lon="-6.21177">
        <ele>983.8</ele>
        <time>2023-06-16T04:58:27.000+02:00</time>
      </trkpt>
      <trkpt lat="42.72811" lon="-6.21197">
        <ele>987.5</ele>
        <time>2023-06-16T04:58:31.000+02:00</time>
      </trkpt>
      <trkpt lat="42.72827" lon="-6.21216">
        <ele>990.5</ele>
        <time>2023-06-16T04:58:35.000+02:00</time>
      </trkpt>
      <trkpt lat="42.72841" lon="-6.21235">
        <ele>993</ele>
        <time>2023-06-16T04:58:38.000+02:00</time>
      </trkpt>
      <trkpt lat="42.72854" lon="-6.21249">
        <ele>994</ele>
        <time>2023-06-16T04:58:41.000+02:00</time>
      </trkpt>
      <trkpt lat="42.72863" lon="-6.21263">
        <ele>997.3</ele>
        <time>2023-06-16T04:58:44.000+02:00</time>
      </trkpt>
      <trkpt lat="42.72888" lon="-6.21281">
        <ele>1000</ele>
        <time>2023-06-16T04:58:49.000+02:00</time>
      </trkpt>
      <trkpt lat="42.72922" lon="-6.21285">
        <ele>998</ele>
        <time>2023-06-16T04:58:56.000+02:00</time>
      </trkpt>
      <trkpt lat="42.72929" lon="-6.21291">
        <ele>999.5</ele>
        <time>2023-06-16T04:58:58.000+02:00</time>
      </trkpt>
      <trkpt lat="42.7295" lon="-6.21317">
        <ele>1005.3</ele>
        <time>2023-06-16T04:59:03.000+02:00</time>
      </trkpt>
      <trkpt lat="42.72959" lon="-6.21323">
        <ele>1006</ele>
        <time>2023-06-16T04:59:05.000+02:00</time>
      </trkpt>
      <trkpt lat="42.72989" lon="-6.21324">
        <ele>1004.8</ele>
        <time>2023-06-16T04:59:11.000+02:00</time>
      </trkpt>
      <trkpt lat="42.73008" lon="-6.21347">
        <ele>1011</ele>
        <time>2023-06-16T04:59:16.000+02:00</time>
      </trkpt>
      <trkpt lat="42.73014" lon="-6.21352">
        <ele>1012.8</ele>
        <time>2023-06-16T04:59:17.000+02:00</time>
      </trkpt>
      <trkpt lat="42.73043" lon="-6.21363">
        <ele>1015.8</ele>
        <time>2023-06-16T04:59:23.000+02:00</time>
      </trkpt>
      <trkpt lat="42.73072" lon="-6.21381">
        <ele>1020.3</ele>
        <time>2023-06-16T04:59:29.000+02:00</time>
      </trkpt>
      <trkpt lat="42.73085" lon="-6.21387">
        <ele>1021.5</ele>
        <time>2023-06-16T04:59:32.000+02:00</time>
      </trkpt>
      <trkpt lat="42.73105" lon="-6.21387">
        <ele>1019.3</ele>
        <time>2023-06-16T04:59:36.000+02:00</time>
      </trkpt>
      <trkpt lat="42.73124" lon="-6.21395">
        <ele>1019.3</ele>
        <time>2023-06-16T04:59:40.000+02:00</time>
      </trkpt>
      <trkpt lat="42.73141" lon="-6.21411">
        <ele>1021.3</ele>
        <time>2023-06-16T04:59:44.000+02:00</time>
      </trkpt>
      <trkpt lat="42.73149" lon="-6.21422">
        <ele>1023</ele>
        <time>2023-06-16T04:59:46.000+02:00</time>
      </trkpt>
      <trkpt lat="42.73153" lon="-6.21433">
        <ele>1025</ele>
        <time>2023-06-16T04:59:48.000+02:00</time>
      </trkpt>
      <trkpt lat="42.73166" lon="-6.21469">
        <ele>1030.3</ele>
        <time>2023-06-16T04:59:53.000+02:00</time>
      </trkpt>
      <trkpt lat="42.73174" lon="-6.21497">
        <ele>1037</ele>
        <time>2023-06-16T04:59:58.000+02:00</time>
      </trkpt>
      <trkpt lat="42.73184" lon="-6.21528">
        <ele>1045.3</ele>
        <time>2023-06-16T05:00:03.000+02:00</time>
      </trkpt>
      <trkpt lat="42.73191" lon="-6.21535">
        <ele>1047.5</ele>
        <time>2023-06-16T05:00:04.000+02:00</time>
      </trkpt>
      <trkpt lat="42.73198" lon="-6.21527">
        <ele>1046.5</ele>
        <time>2023-06-16T05:00:06.000+02:00</time>
      </trkpt>
      <trkpt lat="42.73218" lon="-6.21501">
        <ele>1043.3</ele>
        <time>2023-06-16T05:00:11.000+02:00</time>
      </trkpt>
      <trkpt lat="42.7324" lon="-6.21438">
        <ele>1036.8</ele>
        <time>2023-06-16T05:00:21.000+02:00</time>
      </trkpt>
      <trkpt lat="42.73252" lon="-6.2142">
        <ele>1036.3</ele>
        <time>2023-06-16T05:00:25.000+02:00</time>
      </trkpt>
      <trkpt lat="42.73262" lon="-6.21419">
        <ele>1036.3</ele>
        <time>2023-06-16T05:00:27.000+02:00</time>
      </trkpt>
      <trkpt lat="42.73259" lon="-6.21429">
        <ele>1037.8</ele>
        <time>2023-06-16T05:00:28.000+02:00</time>
      </trkpt>
      <trkpt lat="42.73254" lon="-6.21436">
        <ele>1038.5</ele>
        <time>2023-06-16T05:00:30.000+02:00</time>
      </trkpt>
      <trkpt lat="42.73251" lon="-6.21463">
        <ele>1042</ele>
        <time>2023-06-16T05:00:34.000+02:00</time>
      </trkpt>
      <trkpt lat="42.73249" lon="-6.21498">
        <ele>1046.5</ele>
        <time>2023-06-16T05:00:39.000+02:00</time>
      </trkpt>
      <trkpt lat="42.73244" lon="-6.21547">
        <ele>1054.8</ele>
        <time>2023-06-16T05:00:46.000+02:00</time>
      </trkpt>
      <trkpt lat="42.7324" lon="-6.21575">
        <ele>1059.8</ele>
        <time>2023-06-16T05:00:50.000+02:00</time>
      </trkpt>
      <trkpt lat="42.73241" lon="-6.21602">
        <ele>1064.5</ele>
        <time>2023-06-16T05:00:54.000+02:00</time>
      </trkpt>
      <trkpt lat="42.73244" lon="-6.21612">
        <ele>1066.3</ele>
        <time>2023-06-16T05:00:55.000+02:00</time>
      </trkpt>
      <trkpt lat="42.73248" lon="-6.2161">
        <ele>1066</ele>
        <time>2023-06-16T05:00:56.000+02:00</time>
      </trkpt>
      <trkpt lat="42.73251" lon="-6.21589">
        <ele>1063</ele>
        <time>2023-06-16T05:00:59.000+02:00</time>
      </trkpt>
      <trkpt lat="42.73253" lon="-6.21576">
        <ele>1061.3</ele>
        <time>2023-06-16T05:01:01.000+02:00</time>
      </trkpt>
      <trkpt lat="42.73265" lon="-6.21544">
        <ele>1057.5</ele>
        <time>2023-06-16T05:01:06.000+02:00</time>
      </trkpt>
      <trkpt lat="42.73283" lon="-6.21524">
        <ele>1056.8</ele>
        <time>2023-06-16T05:01:11.000+02:00</time>
      </trkpt>
      <trkpt lat="42.73292" lon="-6.21525">
        <ele>1058.5</ele>
        <time>2023-06-16T05:01:12.000+02:00</time>
      </trkpt>
      <trkpt lat="42.73317" lon="-6.21552">
        <ele>1069.5</ele>
        <time>2023-06-16T05:01:19.000+02:00</time>
      </trkpt>
      <trkpt lat="42.73356" lon="-6.21609">
        <ele>1087.8</ele>
        <time>2023-06-16T05:01:30.000+02:00</time>
      </trkpt>
      <trkpt lat="42.73354" lon="-6.21618">
        <ele>1089.8</ele>
        <time>2023-06-16T05:01:31.000+02:00</time>
      </trkpt>
      <trkpt lat="42.73349" lon="-6.21617">
        <ele>1089.5</ele>
        <time>2023-06-16T05:01:32.000+02:00</time>
      </trkpt>
      <trkpt lat="42.7333" lon="-6.21605">
        <ele>1085.5</ele>
        <time>2023-06-16T05:01:36.000+02:00</time>
      </trkpt>
      <trkpt lat="42.73318" lon="-6.21603">
        <ele>1082</ele>
        <time>2023-06-16T05:01:38.000+02:00</time>
      </trkpt>
      <trkpt lat="42.73313" lon="-6.21611">
        <ele>1082.5</ele>
        <time>2023-06-16T05:01:40.000+02:00</time>
      </trkpt>
      <trkpt lat="42.73311" lon="-6.21626">
        <ele>1085.3</ele>
        <time>2023-06-16T05:01:42.000+02:00</time>
      </trkpt>
      <trkpt lat="42.73308" lon="-6.21684">
        <ele>1096.8</ele>
        <time>2023-06-16T05:01:50.000+02:00</time>
      </trkpt>
      <trkpt lat="42.73308" lon="-6.21718">
        <ele>1103</ele>
        <time>2023-06-16T05:01:55.000+02:00</time>
      </trkpt>
      <trkpt lat="42.73314" lon="-6.21754">
        <ele>1111.3</ele>
        <time>2023-06-16T05:02:01.000+02:00</time>
      </trkpt>
      <trkpt lat="42.73317" lon="-6.21788">
        <ele>1118</ele>
        <time>2023-06-16T05:02:05.000+02:00</time>
      </trkpt>
      <trkpt lat="42.73314" lon="-6.21811">
        <ele>1121.8</ele>
        <time>2023-06-16T05:02:09.000+02:00</time>
      </trkpt>
      <trkpt lat="42.73318" lon="-6.21813">
        <ele>1122.8</ele>
        <time>2023-06-16T05:02:09.000+02:00</time>
      </trkpt>
      <trkpt lat="42.73326" lon="-6.21807">
        <ele>1122.8</ele>
        <time>2023-06-16T05:02:11.000+02:00</time>
      </trkpt>
      <trkpt lat="42.7336" lon="-6.21766">
        <ele>1121.3</ele>
        <time>2023-06-16T05:02:20.000+02:00</time>
      </trkpt>
      <trkpt lat="42.73366" lon="-6.2177">
        <ele>1122.8</ele>
        <time>2023-06-16T05:02:21.000+02:00</time>
      </trkpt>
      <trkpt lat="42.73371" lon="-6.21792">
        <ele>1127.8</ele>
        <time>2023-06-16T05:02:25.000+02:00</time>
      </trkpt>
      <trkpt lat="42.73374" lon="-6.21838">
        <ele>1137.8</ele>
        <time>2023-06-16T05:02:31.000+02:00</time>
      </trkpt>
      <trkpt lat="42.73373" lon="-6.21864">
        <ele>1143</ele>
        <time>2023-06-16T05:02:35.000+02:00</time>
      </trkpt>
      <trkpt lat="42.73368" lon="-6.21889">
        <ele>1147.5</ele>
        <time>2023-06-16T05:02:39.000+02:00</time>
      </trkpt>
      <trkpt lat="42.73349" lon="-6.21927">
        <ele>1151</ele>
        <time>2023-06-16T05:02:45.000+02:00</time>
      </trkpt>
      <trkpt lat="42.73342" lon="-6.21931">
        <ele>1150.3</ele>
        <time>2023-06-16T05:02:47.000+02:00</time>
      </trkpt>
      <trkpt lat="42.7333" lon="-6.21929">
        <ele>1148.5</ele>
        <time>2023-06-16T05:02:49.000+02:00</time>
      </trkpt>
      <trkpt lat="42.73319" lon="-6.21931">
        <ele>1147.5</ele>
        <time>2023-06-16T05:02:51.000+02:00</time>
      </trkpt>
      <trkpt lat="42.73313" lon="-6.21936">
        <ele>1147.3</ele>
        <time>2023-06-16T05:02:53.000+02:00</time>
      </trkpt>
      <trkpt lat="42.73304" lon="-6.21933">
        <ele>1146.3</ele>
        <time>2023-06-16T05:02:55.000+02:00</time>
      </trkpt>
      <trkpt lat="42.73287" lon="-6.2194">
        <ele>1144.8</ele>
        <time>2023-06-16T05:02:58.000+02:00</time>
      </trkpt>
      <trkpt lat="42.73266" lon="-6.21952">
        <ele>1143</ele>
        <time>2023-06-16T05:03:02.000+02:00</time>
      </trkpt>
      <trkpt lat="42.73248" lon="-6.21967">
        <ele>1141.5</ele>
        <time>2023-06-16T05:03:06.000+02:00</time>
      </trkpt>
      <trkpt lat="42.73245" lon="-6.21981">
        <ele>1141.5</ele>
        <time>2023-06-16T05:03:08.000+02:00</time>
      </trkpt>
      <trkpt lat="42.73246" lon="-6.21997">
        <ele>1141.8</ele>
        <time>2023-06-16T05:03:11.000+02:00</time>
      </trkpt>
      <trkpt lat="42.73254" lon="-6.22022">
        <ele>1141.3</ele>
        <time>2023-06-16T05:03:15.000+02:00</time>
      </trkpt>
      <trkpt lat="42.73272" lon="-6.22058">
        <ele>1141.3</ele>
        <time>2023-06-16T05:03:21.000+02:00</time>
      </trkpt>
      <trkpt lat="42.7329" lon="-6.22086">
        <ele>1141.5</ele>
        <time>2023-06-16T05:03:26.000+02:00</time>
      </trkpt>
      <trkpt lat="42.73301" lon="-6.22094">
        <ele>1143.5</ele>
        <time>2023-06-16T05:03:29.000+02:00</time>
      </trkpt>
      <trkpt lat="42.73316" lon="-6.22098">
        <ele>1144.5</ele>
        <time>2023-06-16T05:03:32.000+02:00</time>
      </trkpt>
      <trkpt lat="42.73321" lon="-6.22103">
        <ele>1145.3</ele>
        <time>2023-06-16T05:03:33.000+02:00</time>
      </trkpt>
      <trkpt lat="42.73322" lon="-6.2211">
        <ele>1145.8</ele>
        <time>2023-06-16T05:03:34.000+02:00</time>
      </trkpt>
      <trkpt lat="42.73316" lon="-6.22117">
        <ele>1146.3</ele>
        <time>2023-06-16T05:03:35.000+02:00</time>
      </trkpt>
      <trkpt lat="42.73308" lon="-6.22138">
        <ele>1148.3</ele>
        <time>2023-06-16T05:03:39.000+02:00</time>
      </trkpt>
      <trkpt lat="42.733" lon="-6.22153">
        <ele>1150.3</ele>
        <time>2023-06-16T05:03:41.000+02:00</time>
      </trkpt>
      <trkpt lat="42.73287" lon="-6.22158">
        <ele>1151.5</ele>
        <time>2023-06-16T05:03:44.000+02:00</time>
      </trkpt>
      <trkpt lat="42.73263" lon="-6.22155">
        <ele>1152.5</ele>
        <time>2023-06-16T05:03:49.000+02:00</time>
      </trkpt>
      <trkpt lat="42.73247" lon="-6.22143">
        <ele>1151.3</ele>
        <time>2023-06-16T05:03:52.000+02:00</time>
      </trkpt>
      <trkpt lat="42.73225" lon="-6.22114">
        <ele>1147</ele>
        <time>2023-06-16T05:03:58.000+02:00</time>
      </trkpt>
      <trkpt lat="42.73196" lon="-6.22093">
        <ele>1143.5</ele>
        <time>2023-06-16T05:04:05.000+02:00</time>
      </trkpt>
      <trkpt lat="42.73169" lon="-6.22078">
        <ele>1141.5</ele>
        <time>2023-06-16T05:04:10.000+02:00</time>
      </trkpt>
      <trkpt lat="42.73139" lon="-6.22083">
        <ele>1139.8</ele>
        <time>2023-06-16T05:04:16.000+02:00</time>
      </trkpt>
      <trkpt lat="42.73113" lon="-6.22072">
        <ele>1137.3</ele>
        <time>2023-06-16T05:04:21.000+02:00</time>
      </trkpt>
      <trkpt lat="42.73072" lon="-6.22059">
        <ele>1133.5</ele>
        <time>2023-06-16T05:04:29.000+02:00</time>
      </trkpt>
      <trkpt lat="42.73053" lon="-6.22051">
        <ele>1131.5</ele>
        <time>2023-06-16T05:04:33.000+02:00</time>
      </trkpt>
      <trkpt lat="42.73025" lon="-6.22023">
        <ele>1128.8</ele>
        <time>2023-06-16T05:04:40.000+02:00</time>
      </trkpt>
      <trkpt lat="42.72994" lon="-6.22013">
        <ele>1126.5</ele>
        <time>2023-06-16T05:04:46.000+02:00</time>
      </trkpt>
      <trkpt lat="42.7292" lon="-6.2202">
        <ele>1119.3</ele>
        <time>2023-06-16T05:05:01.000+02:00</time>
      </trkpt>
      <trkpt lat="42.72885" lon="-6.22039">
        <ele>1115</ele>
        <time>2023-06-16T05:05:08.000+02:00</time>
      </trkpt>
      <trkpt lat="42.72867" lon="-6.22047">
        <ele>1113.3</ele>
        <time>2023-06-16T05:05:12.000+02:00</time>
      </trkpt>
      <trkpt lat="42.72853" lon="-6.22047">
        <ele>1112</ele>
        <time>2023-06-16T05:05:15.000+02:00</time>
      </trkpt>
      <trkpt lat="42.72822" lon="-6.22018">
        <ele>1111</ele>
        <time>2023-06-16T05:05:22.000+02:00</time>
      </trkpt>
      <trkpt lat="42.72805" lon="-6.22014">
        <ele>1110.5</ele>
        <time>2023-06-16T05:05:25.000+02:00</time>
      </trkpt>
      <trkpt lat="42.72793" lon="-6.2202">
        <ele>1110</ele>
        <time>2023-06-16T05:05:28.000+02:00</time>
      </trkpt>
      <trkpt lat="42.72761" lon="-6.22059">
        <ele>1106.8</ele>
        <time>2023-06-16T05:05:36.000+02:00</time>
      </trkpt>
      <trkpt lat="42.72732" lon="-6.22073">
        <ele>1102.3</ele>
        <time>2023-06-16T05:05:42.000+02:00</time>
      </trkpt>
      <trkpt lat="42.72693" lon="-6.22077">
        <ele>1094.5</ele>
        <time>2023-06-16T05:05:50.000+02:00</time>
      </trkpt>
      <trkpt lat="42.72673" lon="-6.22075">
        <ele>1091</ele>
        <time>2023-06-16T05:05:53.000+02:00</time>
      </trkpt>
      <trkpt lat="42.72645" lon="-6.22066">
        <ele>1087.8</ele>
        <time>2023-06-16T05:05:59.000+02:00</time>
      </trkpt>
      <trkpt lat="42.72625" lon="-6.22065">
        <ele>1085.5</ele>
        <time>2023-06-16T05:06:03.000+02:00</time>
      </trkpt>
      <trkpt lat="42.72606" lon="-6.22073">
        <ele>1076</ele>
        <time>2023-06-16T05:06:07.000+02:00</time>
      </trkpt>
      <trkpt lat="42.72585" lon="-6.2208">
        <ele>1076</ele>
        <time>2023-06-16T05:06:11.000+02:00</time>
      </trkpt>
      <trkpt lat="42.7257" lon="-6.22082">
        <ele>1076.3</ele>
        <time>2023-06-16T05:06:14.000+02:00</time>
      </trkpt>
      <trkpt lat="42.72557" lon="-6.22083">
        <ele>1076.8</ele>
        <time>2023-06-16T05:06:16.000+02:00</time>
      </trkpt>
      <trkpt lat="42.72547" lon="-6.22089">
        <ele>1077</ele>
        <time>2023-06-16T05:06:19.000+02:00</time>
      </trkpt>
      <trkpt lat="42.7253" lon="-6.22119">
        <ele>1076</ele>
        <time>2023-06-16T05:06:24.000+02:00</time>
      </trkpt>
      <trkpt lat="42.72506" lon="-6.22154">
        <ele>1069.8</ele>
        <time>2023-06-16T05:06:31.000+02:00</time>
      </trkpt>
      <trkpt lat="42.72486" lon="-6.22201">
        <ele>1072</ele>
        <time>2023-06-16T05:06:39.000+02:00</time>
      </trkpt>
      <trkpt lat="42.72457" lon="-6.22264">
        <ele>1072.5</ele>
        <time>2023-06-16T05:06:49.000+02:00</time>
      </trkpt>
      <trkpt lat="42.72424" lon="-6.22328">
        <ele>1065.8</ele>
        <time>2023-06-16T05:07:00.000+02:00</time>
      </trkpt>
      <trkpt lat="42.72404" lon="-6.22354">
        <ele>1065.8</ele>
        <time>2023-06-16T05:07:06.000+02:00</time>
      </trkpt>
      <trkpt lat="42.72361" lon="-6.22385">
        <ele>1062.3</ele>
        <time>2023-06-16T05:07:15.000+02:00</time>
      </trkpt>
      <trkpt lat="42.72317" lon="-6.2241">
        <ele>1054</ele>
        <time>2023-06-16T05:07:25.000+02:00</time>
      </trkpt>
      <trkpt lat="42.72269" lon="-6.22429">
        <ele>1051.5</ele>
        <time>2023-06-16T05:07:34.000+02:00</time>
      </trkpt>
      <trkpt lat="42.72247" lon="-6.22433">
        <ele>1049.8</ele>
        <time>2023-06-16T05:07:39.000+02:00</time>
      </trkpt>
      <trkpt lat="42.7222" lon="-6.2245">
        <ele>1049.8</ele>
        <time>2023-06-16T05:07:44.000+02:00</time>
      </trkpt>
      <trkpt lat="42.72183" lon="-6.22458">
        <ele>1043.8</ele>
        <time>2023-06-16T05:07:52.000+02:00</time>
      </trkpt>
      <trkpt lat="42.72103" lon="-6.22482">
        <ele>1032.8</ele>
        <time>2023-06-16T05:08:08.000+02:00</time>
      </trkpt>
      <trkpt lat="42.72078" lon="-6.22498">
        <ele>1029</ele>
        <time>2023-06-16T05:08:13.000+02:00</time>
      </trkpt>
      <trkpt lat="42.72055" lon="-6.22498">
        <ele>1025.5</ele>
        <time>2023-06-16T05:08:17.000+02:00</time>
      </trkpt>
      <trkpt lat="42.72029" lon="-6.22494">
        <ele>1021.3</ele>
        <time>2023-06-16T05:08:22.000+02:00</time>
      </trkpt>
      <trkpt lat="42.72003" lon="-6.22504">
        <ele>1018.8</ele>
        <time>2023-06-16T05:08:28.000+02:00</time>
      </trkpt>
      <trkpt lat="42.71982" lon="-6.22507">
        <ele>1020.5</ele>
        <time>2023-06-16T05:08:32.000+02:00</time>
      </trkpt>
      <trkpt lat="42.71967" lon="-6.22503">
        <ele>1019.8</ele>
        <time>2023-06-16T05:08:35.000+02:00</time>
      </trkpt>
      <trkpt lat="42.71962" lon="-6.22483">
        <ele>1017</ele>
        <time>2023-06-16T05:08:38.000+02:00</time>
      </trkpt>
      <trkpt lat="42.71953" lon="-6.2247">
        <ele>1015</ele>
        <time>2023-06-16T05:08:40.000+02:00</time>
      </trkpt>
      <trkpt lat="42.7192" lon="-6.22473">
        <ele>1014.8</ele>
        <time>2023-06-16T05:08:47.000+02:00</time>
      </trkpt>
      <trkpt lat="42.71903" lon="-6.22453">
        <ele>1010</ele>
        <time>2023-06-16T05:08:51.000+02:00</time>
      </trkpt>
      <trkpt lat="42.71871" lon="-6.22436">
        <ele>1005.8</ele>
        <time>2023-06-16T05:08:58.000+02:00</time>
      </trkpt>
      <trkpt lat="42.71828" lon="-6.22426">
        <ele>1002.3</ele>
        <time>2023-06-16T05:09:06.000+02:00</time>
      </trkpt>
      <trkpt lat="42.71805" lon="-6.22419">
        <ele>998.8</ele>
        <time>2023-06-16T05:09:11.000+02:00</time>
      </trkpt>
      <trkpt lat="42.71744" lon="-6.22393">
        <ele>994.3</ele>
        <time>2023-06-16T05:09:23.000+02:00</time>
      </trkpt>
      <trkpt lat="42.71692" lon="-6.2237">
        <ele>996.3</ele>
        <time>2023-06-16T05:09:34.000+02:00</time>
      </trkpt>
      <trkpt lat="42.71673" lon="-6.22352">
        <ele>992.5</ele>
        <time>2023-06-16T05:09:38.000+02:00</time>
      </trkpt>
      <trkpt lat="42.71659" lon="-6.22324">
        <ele>986.3</ele>
        <time>2023-06-16T05:09:43.000+02:00</time>
      </trkpt>
      <trkpt lat="42.71652" lon="-6.2229">
        <ele>981.5</ele>
        <time>2023-06-16T05:09:48.000+02:00</time>
      </trkpt>
      <trkpt lat="42.71649" lon="-6.22258">
        <ele>976</ele>
        <time>2023-06-16T05:09:53.000+02:00</time>
      </trkpt>
      <trkpt lat="42.7164" lon="-6.22227">
        <ele>974.5</ele>
        <time>2023-06-16T05:09:58.000+02:00</time>
      </trkpt>
      <trkpt lat="42.71628" lon="-6.22209">
        <ele>973</ele>
        <time>2023-06-16T05:10:01.000+02:00</time>
      </trkpt>
      <trkpt lat="42.71613" lon="-6.22196">
        <ele>970.8</ele>
        <time>2023-06-16T05:10:04.000+02:00</time>
      </trkpt>
      <trkpt lat="42.716" lon="-6.22203">
        <ele>970.3</ele>
        <time>2023-06-16T05:10:07.000+02:00</time>
      </trkpt>
      <trkpt lat="42.71584" lon="-6.22227">
        <ele>973.5</ele>
        <time>2023-06-16T05:10:12.000+02:00</time>
      </trkpt>
      <trkpt lat="42.71571" lon="-6.22221">
        <ele>974.5</ele>
        <time>2023-06-16T05:10:15.000+02:00</time>
      </trkpt>
      <trkpt lat="42.71554" lon="-6.22201">
        <ele>972.5</ele>
        <time>2023-06-16T05:10:19.000+02:00</time>
      </trkpt>
      <trkpt lat="42.71489" lon="-6.2216">
        <ele>971.3</ele>
        <time>2023-06-16T05:10:33.000+02:00</time>
      </trkpt>
      <trkpt lat="42.71465" lon="-6.22137">
        <ele>972.8</ele>
        <time>2023-06-16T05:10:39.000+02:00</time>
      </trkpt>
      <trkpt lat="42.71435" lon="-6.22085">
        <ele>963.3</ele>
        <time>2023-06-16T05:10:48.000+02:00</time>
      </trkpt>
      <trkpt lat="42.71419" lon="-6.2207">
        <ele>962</ele>
        <time>2023-06-16T05:10:52.000+02:00</time>
      </trkpt>
      <trkpt lat="42.71403" lon="-6.22057">
        <ele>962.8</ele>
        <time>2023-06-16T05:10:55.000+02:00</time>
      </trkpt>
      <trkpt lat="42.71361" lon="-6.22034">
        <ele>964.8</ele>
        <time>2023-06-16T05:11:04.000+02:00</time>
      </trkpt>
      <trkpt lat="42.7133" lon="-6.22013">
        <ele>961.5</ele>
        <time>2023-06-16T05:11:11.000+02:00</time>
      </trkpt>
      <trkpt lat="42.71305" lon="-6.21979">
        <ele>960</ele>
        <time>2023-06-16T05:11:18.000+02:00</time>
      </trkpt>
      <trkpt lat="42.71264" lon="-6.21929">
        <ele>954</ele>
        <time>2023-06-16T05:11:28.000+02:00</time>
      </trkpt>
      <trkpt lat="42.71225" lon="-6.21871">
        <ele>944.5</ele>
        <time>2023-06-16T05:11:40.000+02:00</time>
      </trkpt>
      <trkpt lat="42.71193" lon="-6.21831">
        <ele>938</ele>
        <time>2023-06-16T05:11:48.000+02:00</time>
      </trkpt>
      <trkpt lat="42.71181" lon="-6.21825">
        <ele>938.3</ele>
        <time>2023-06-16T05:11:51.000+02:00</time>
      </trkpt>
      <trkpt lat="42.7116" lon="-6.21827">
        <ele>938.8</ele>
        <time>2023-06-16T05:11:55.000+02:00</time>
      </trkpt>
      <trkpt lat="42.71114" lon="-6.21854">
        <ele>940.8</ele>
        <time>2023-06-16T05:12:05.000+02:00</time>
      </trkpt>
      <trkpt lat="42.71103" lon="-6.21849">
        <ele>938.5</ele>
        <time>2023-06-16T05:12:07.000+02:00</time>
      </trkpt>
      <trkpt lat="42.71072" lon="-6.21868">
        <ele>939.8</ele>
        <time>2023-06-16T05:12:13.000+02:00</time>
      </trkpt>
      <trkpt lat="42.71025" lon="-6.21885">
        <ele>939</ele>
        <time>2023-06-16T05:12:23.000+02:00</time>
      </trkpt>
      <trkpt lat="42.70994" lon="-6.21906">
        <ele>939.8</ele>
        <time>2023-06-16T05:12:29.000+02:00</time>
      </trkpt>
      <trkpt lat="42.70965" lon="-6.21932">
        <ele>941.5</ele>
        <time>2023-06-16T05:12:36.000+02:00</time>
      </trkpt>
      <trkpt lat="42.70901" lon="-6.2199">
        <ele>942.3</ele>
        <time>2023-06-16T05:12:51.000+02:00</time>
      </trkpt>
      <trkpt lat="42.70874" lon="-6.22009">
        <ele>940.8</ele>
        <time>2023-06-16T05:12:57.000+02:00</time>
      </trkpt>
      <trkpt lat="42.70737" lon="-6.22071">
        <ele>937.5</ele>
        <time>2023-06-16T05:13:24.000+02:00</time>
      </trkpt>
      <trkpt lat="42.70721" lon="-6.22086">
        <ele>937.3</ele>
        <time>2023-06-16T05:13:28.000+02:00</time>
      </trkpt>
      <trkpt lat="42.70704" lon="-6.22118">
        <ele>940.3</ele>
        <time>2023-06-16T05:13:33.000+02:00</time>
      </trkpt>
      <trkpt lat="42.70683" lon="-6.22144">
        <ele>940.8</ele>
        <time>2023-06-16T05:13:39.000+02:00</time>
      </trkpt>
      <trkpt lat="42.70658" lon="-6.22166">
        <ele>939.5</ele>
        <time>2023-06-16T05:13:45.000+02:00</time>
      </trkpt>
      <trkpt lat="42.7063" lon="-6.22183">
        <ele>938</ele>
        <time>2023-06-16T05:13:50.000+02:00</time>
      </trkpt>
      <trkpt lat="42.70578" lon="-6.22202">
        <ele>931.3</ele>
        <time>2023-06-16T05:14:01.000+02:00</time>
      </trkpt>
      <trkpt lat="42.70518" lon="-6.22247">
        <ele>931.5</ele>
        <time>2023-06-16T05:14:14.000+02:00</time>
      </trkpt>
      <trkpt lat="42.70495" lon="-6.22254">
        <ele>931.8</ele>
        <time>2023-06-16T05:14:18.000+02:00</time>
      </trkpt>
      <trkpt lat="42.70404" lon="-6.22256">
        <ele>926.5</ele>
        <time>2023-06-16T05:14:36.000+02:00</time>
      </trkpt>
      <trkpt lat="42.70387" lon="-6.22264">
        <ele>926</ele>
        <time>2023-06-16T05:14:39.000+02:00</time>
      </trkpt>
      <trkpt lat="42.70297" lon="-6.22345">
        <ele>926.8</ele>
        <time>2023-06-16T05:15:00.000+02:00</time>
      </trkpt>
      <trkpt lat="42.70229" lon="-6.22398">
        <ele>924.8</ele>
        <time>2023-06-16T05:15:15.000+02:00</time>
      </trkpt>
      <trkpt lat="42.70208" lon="-6.22418">
        <ele>924.5</ele>
        <time>2023-06-16T05:15:20.000+02:00</time>
      </trkpt>
      <trkpt lat="42.70154" lon="-6.22498">
        <ele>928.5</ele>
        <time>2023-06-16T05:15:35.000+02:00</time>
      </trkpt>
      <trkpt lat="42.70116" lon="-6.22543">
        <ele>925.3</ele>
        <time>2023-06-16T05:15:45.000+02:00</time>
      </trkpt>
      <trkpt lat="42.7012" lon="-6.22551">
        <ele>927.5</ele>
        <time>2023-06-16T05:15:46.000+02:00</time>
      </trkpt>
      <trkpt lat="42.70122" lon="-6.22559">
        <ele>929.3</ele>
        <time>2023-06-16T05:15:47.000+02:00</time>
      </trkpt>
      <trkpt lat="42.70115" lon="-6.22579">
        <ele>929.8</ele>
        <time>2023-06-16T05:15:50.000+02:00</time>
      </trkpt>
      <trkpt lat="42.701" lon="-6.22609">
        <ele>929.3</ele>
        <time>2023-06-16T05:15:56.000+02:00</time>
      </trkpt>
      <trkpt lat="42.70083" lon="-6.22649">
        <ele>930.8</ele>
        <time>2023-06-16T05:16:02.000+02:00</time>
      </trkpt>
      <trkpt lat="42.70079" lon="-6.2266">
        <ele>930.8</ele>
        <time>2023-06-16T05:16:04.000+02:00</time>
      </trkpt>
      <trkpt lat="42.70068" lon="-6.2268">
        <ele>932.8</ele>
        <time>2023-06-16T05:16:07.000+02:00</time>
      </trkpt>
      <trkpt lat="42.70043" lon="-6.22713">
        <ele>934.8</ele>
        <time>2023-06-16T05:16:14.000+02:00</time>
      </trkpt>
      <trkpt lat="42.70029" lon="-6.22733">
        <ele>935.3</ele>
        <time>2023-06-16T05:16:18.000+02:00</time>
      </trkpt>
      <trkpt lat="42.7002" lon="-6.22753">
        <ele>936.8</ele>
        <time>2023-06-16T05:16:21.000+02:00</time>
      </trkpt>
      <trkpt lat="42.70009" lon="-6.22793">
        <ele>939</ele>
        <time>2023-06-16T05:16:27.000+02:00</time>
      </trkpt>
      <trkpt lat="42.69997" lon="-6.22841">
        <ele>942</ele>
        <time>2023-06-16T05:16:34.000+02:00</time>
      </trkpt>
      <trkpt lat="42.69988" lon="-6.22862">
        <ele>941.5</ele>
        <time>2023-06-16T05:16:38.000+02:00</time>
      </trkpt>
      <trkpt lat="42.69976" lon="-6.22877">
        <ele>940.3</ele>
        <time>2023-06-16T05:16:41.000+02:00</time>
      </trkpt>
      <trkpt lat="42.69956" lon="-6.22914">
        <ele>939.8</ele>
        <time>2023-06-16T05:16:47.000+02:00</time>
      </trkpt>
      <trkpt lat="42.6995" lon="-6.22931">
        <ele>938.3</ele>
        <time>2023-06-16T05:16:50.000+02:00</time>
      </trkpt>
      <trkpt lat="42.69949" lon="-6.22949">
        <ele>937.5</ele>
        <time>2023-06-16T05:16:52.000+02:00</time>
      </trkpt>
      <trkpt lat="42.69953" lon="-6.22969">
        <ele>938.3</ele>
        <time>2023-06-16T05:16:55.000+02:00</time>
      </trkpt>
      <trkpt lat="42.6996" lon="-6.2298">
        <ele>939.3</ele>
        <time>2023-06-16T05:16:57.000+02:00</time>
      </trkpt>
      <trkpt lat="42.69967" lon="-6.22986">
        <ele>940.3</ele>
        <time>2023-06-16T05:16:59.000+02:00</time>
      </trkpt>
      <trkpt lat="42.69972" lon="-6.2299">
        <ele>941</ele>
        <time>2023-06-16T05:17:00.000+02:00</time>
      </trkpt>
      <trkpt lat="42.69983" lon="-6.22992">
        <ele>942.8</ele>
        <time>2023-06-16T05:17:02.000+02:00</time>
      </trkpt>
      <trkpt lat="42.69996" lon="-6.22991">
        <ele>945</ele>
        <time>2023-06-16T05:17:05.000+02:00</time>
      </trkpt>
      <trkpt lat="42.70021" lon="-6.22982">
        <ele>950.3</ele>
        <time>2023-06-16T05:17:10.000+02:00</time>
      </trkpt>
      <trkpt lat="42.70036" lon="-6.22978">
        <ele>953.8</ele>
        <time>2023-06-16T05:17:13.000+02:00</time>
      </trkpt>
      <trkpt lat="42.70052" lon="-6.22974">
        <ele>957.3</ele>
        <time>2023-06-16T05:17:16.000+02:00</time>
      </trkpt>
      <trkpt lat="42.70068" lon="-6.22982">
        <ele>958.8</ele>
        <time>2023-06-16T05:17:19.000+02:00</time>
      </trkpt>
      <trkpt lat="42.70077" lon="-6.22991">
        <ele>958.8</ele>
        <time>2023-06-16T05:17:21.000+02:00</time>
      </trkpt>
      <trkpt lat="42.70083" lon="-6.23004">
        <ele>958.3</ele>
        <time>2023-06-16T05:17:23.000+02:00</time>
      </trkpt>
      <trkpt lat="42.70086" lon="-6.23018">
        <ele>960.3</ele>
        <time>2023-06-16T05:17:25.000+02:00</time>
      </trkpt>
      <trkpt lat="42.70086" lon="-6.23032">
        <ele>961.3</ele>
        <time>2023-06-16T05:17:27.000+02:00</time>
      </trkpt>
      <trkpt lat="42.70082" lon="-6.23046">
        <ele>961.5</ele>
        <time>2023-06-16T05:17:29.000+02:00</time>
      </trkpt>
      <trkpt lat="42.70075" lon="-6.23062">
        <ele>961.8</ele>
        <time>2023-06-16T05:17:32.000+02:00</time>
      </trkpt>
      <trkpt lat="42.70021" lon="-6.23122">
        <ele>966</ele>
        <time>2023-06-16T05:17:45.000+02:00</time>
      </trkpt>
      <trkpt lat="42.69976" lon="-6.2316">
        <ele>966.3</ele>
        <time>2023-06-16T05:17:55.000+02:00</time>
      </trkpt>
      <trkpt lat="42.69965" lon="-6.23174">
        <ele>965.5</ele>
        <time>2023-06-16T05:17:58.000+02:00</time>
      </trkpt>
      <trkpt lat="42.6996" lon="-6.23188">
        <ele>965</ele>
        <time>2023-06-16T05:18:00.000+02:00</time>
      </trkpt>
      <trkpt lat="42.69956" lon="-6.23209">
        <ele>965.3</ele>
        <time>2023-06-16T05:18:04.000+02:00</time>
      </trkpt>
      <trkpt lat="42.69957" lon="-6.23227">
        <ele>966.5</ele>
        <time>2023-06-16T05:18:06.000+02:00</time>
      </trkpt>
      <trkpt lat="42.69964" lon="-6.23244">
        <ele>970</ele>
        <time>2023-06-16T05:18:09.000+02:00</time>
      </trkpt>
      <trkpt lat="42.69989" lon="-6.23292">
        <ele>981.5</ele>
        <time>2023-06-16T05:18:17.000+02:00</time>
      </trkpt>
      <trkpt lat="42.69992" lon="-6.23301">
        <ele>983</ele>
        <time>2023-06-16T05:18:18.000+02:00</time>
      </trkpt>
      <trkpt lat="42.69993" lon="-6.23314">
        <ele>983.8</ele>
        <time>2023-06-16T05:18:20.000+02:00</time>
      </trkpt>
      <trkpt lat="42.69992" lon="-6.23325">
        <ele>983.8</ele>
        <time>2023-06-16T05:18:22.000+02:00</time>
      </trkpt>
      <trkpt lat="42.69971" lon="-6.23352">
        <ele>979.8</ele>
        <time>2023-06-16T05:18:27.000+02:00</time>
      </trkpt>
      <trkpt lat="42.69968" lon="-6.23364">
        <ele>980</ele>
        <time>2023-06-16T05:18:29.000+02:00</time>
      </trkpt>
      <trkpt lat="42.69966" lon="-6.23375">
        <ele>980.8</ele>
        <time>2023-06-16T05:18:31.000+02:00</time>
      </trkpt>
      <trkpt lat="42.69969" lon="-6.23389">
        <ele>983.3</ele>
        <time>2023-06-16T05:18:33.000+02:00</time>
      </trkpt>
      <trkpt lat="42.69983" lon="-6.2343">
        <ele>991.5</ele>
        <time>2023-06-16T05:18:39.000+02:00</time>
      </trkpt>
      <trkpt lat="42.69988" lon="-6.23448">
        <ele>994.8</ele>
        <time>2023-06-16T05:18:42.000+02:00</time>
      </trkpt>
      <trkpt lat="42.69987" lon="-6.23472">
        <ele>997.5</ele>
        <time>2023-06-16T05:18:45.000+02:00</time>
      </trkpt>
      <trkpt lat="42.69982" lon="-6.23484">
        <ele>998.3</ele>
        <time>2023-06-16T05:18:47.000+02:00</time>
      </trkpt>
      <trkpt lat="42.6997" lon="-6.23497">
        <ele>998</ele>
        <time>2023-06-16T05:18:50.000+02:00</time>
      </trkpt>
      <trkpt lat="42.69955" lon="-6.23518">
        <ele>1001.3</ele>
        <time>2023-06-16T05:18:54.000+02:00</time>
      </trkpt>
      <trkpt lat="42.69941" lon="-6.23541">
        <ele>1004.8</ele>
        <time>2023-06-16T05:18:58.000+02:00</time>
      </trkpt>
      <trkpt lat="42.69933" lon="-6.23547">
        <ele>1005</ele>
        <time>2023-06-16T05:19:00.000+02:00</time>
      </trkpt>
      <trkpt lat="42.69926" lon="-6.23549">
        <ele>1004.3</ele>
        <time>2023-06-16T05:19:02.000+02:00</time>
      </trkpt>
      <trkpt lat="42.69916" lon="-6.23545">
        <ele>1001.8</ele>
        <time>2023-06-16T05:19:04.000+02:00</time>
      </trkpt>
      <trkpt lat="42.69907" lon="-6.23535">
        <ele>999.8</ele>
        <time>2023-06-16T05:19:06.000+02:00</time>
      </trkpt>
      <trkpt lat="42.69879" lon="-6.2349">
        <ele>993.5</ele>
        <time>2023-06-16T05:19:14.000+02:00</time>
      </trkpt>
      <trkpt lat="42.69869" lon="-6.23477">
        <ele>993.3</ele>
        <time>2023-06-16T05:19:17.000+02:00</time>
      </trkpt>
      <trkpt lat="42.6986" lon="-6.23474">
        <ele>994</ele>
        <time>2023-06-16T05:19:19.000+02:00</time>
      </trkpt>
      <trkpt lat="42.69849" lon="-6.23474">
        <ele>995.8</ele>
        <time>2023-06-16T05:19:20.000+02:00</time>
      </trkpt>
      <trkpt lat="42.69841" lon="-6.2348">
        <ele>997.3</ele>
        <time>2023-06-16T05:19:22.000+02:00</time>
      </trkpt>
      <trkpt lat="42.69835" lon="-6.23492">
        <ele>999.3</ele>
        <time>2023-06-16T05:19:24.000+02:00</time>
      </trkpt>
      <trkpt lat="42.69833" lon="-6.23514">
        <ele>1000.8</ele>
        <time>2023-06-16T05:19:27.000+02:00</time>
      </trkpt>
      <trkpt lat="42.69835" lon="-6.23549">
        <ele>1002.8</ele>
        <time>2023-06-16T05:19:32.000+02:00</time>
      </trkpt>
      <trkpt lat="42.69851" lon="-6.23672">
        <ele>1012.8</ele>
        <time>2023-06-16T05:19:50.000+02:00</time>
      </trkpt>
      <trkpt lat="42.6985" lon="-6.23692">
        <ele>1013.8</ele>
        <time>2023-06-16T05:19:53.000+02:00</time>
      </trkpt>
      <trkpt lat="42.69845" lon="-6.23724">
        <ele>1014</ele>
        <time>2023-06-16T05:19:57.000+02:00</time>
      </trkpt>
      <trkpt lat="42.69845" lon="-6.23741">
        <ele>1015</ele>
        <time>2023-06-16T05:20:00.000+02:00</time>
      </trkpt>
      <trkpt lat="42.69846" lon="-6.23758">
        <ele>1015.3</ele>
        <time>2023-06-16T05:20:02.000+02:00</time>
      </trkpt>
      <trkpt lat="42.69851" lon="-6.23773">
        <ele>1016.3</ele>
        <time>2023-06-16T05:20:04.000+02:00</time>
      </trkpt>
      <trkpt lat="42.69862" lon="-6.23786">
        <ele>1018.8</ele>
        <time>2023-06-16T05:20:07.000+02:00</time>
      </trkpt>
      <trkpt lat="42.69874" lon="-6.23797">
        <ele>1021.8</ele>
        <time>2023-06-16T05:20:10.000+02:00</time>
      </trkpt>
      <trkpt lat="42.69889" lon="-6.23807">
        <ele>1026</ele>
        <time>2023-06-16T05:20:13.000+02:00</time>
      </trkpt>
      <trkpt lat="42.69896" lon="-6.23814">
        <ele>1028</ele>
        <time>2023-06-16T05:20:15.000+02:00</time>
      </trkpt>
      <trkpt lat="42.69899" lon="-6.2382">
        <ele>1028.8</ele>
        <time>2023-06-16T05:20:16.000+02:00</time>
      </trkpt>
      <trkpt lat="42.69901" lon="-6.23831">
        <ele>1029</ele>
        <time>2023-06-16T05:20:17.000+02:00</time>
      </trkpt>
      <trkpt lat="42.699" lon="-6.23843">
        <ele>1029.8</ele>
        <time>2023-06-16T05:20:19.000+02:00</time>
      </trkpt>
      <trkpt lat="42.69862" lon="-6.23948">
        <ele>1034</ele>
        <time>2023-06-16T05:20:36.000+02:00</time>
      </trkpt>
      <trkpt lat="42.69856" lon="-6.2396">
        <ele>1034.5</ele>
        <time>2023-06-16T05:20:38.000+02:00</time>
      </trkpt>
      <trkpt lat="42.69849" lon="-6.23971">
        <ele>1034.8</ele>
        <time>2023-06-16T05:20:40.000+02:00</time>
      </trkpt>
      <trkpt lat="42.69838" lon="-6.2398">
        <ele>1033.3</ele>
        <time>2023-06-16T05:20:42.000+02:00</time>
      </trkpt>
      <trkpt lat="42.69809" lon="-6.24">
        <ele>1030.3</ele>
        <time>2023-06-16T05:20:48.000+02:00</time>
      </trkpt>
      <trkpt lat="42.69798" lon="-6.24009">
        <ele>1029.5</ele>
        <time>2023-06-16T05:20:51.000+02:00</time>
      </trkpt>
      <trkpt lat="42.69786" lon="-6.24024">
        <ele>1029.3</ele>
        <time>2023-06-16T05:20:54.000+02:00</time>
      </trkpt>
      <trkpt lat="42.69772" lon="-6.24049">
        <ele>1029.8</ele>
        <time>2023-06-16T05:20:58.000+02:00</time>
      </trkpt>
      <trkpt lat="42.69765" lon="-6.24067">
        <ele>1031</ele>
        <time>2023-06-16T05:21:01.000+02:00</time>
      </trkpt>
      <trkpt lat="42.69759" lon="-6.24089">
        <ele>1032.3</ele>
        <time>2023-06-16T05:21:04.000+02:00</time>
      </trkpt>
      <trkpt lat="42.69753" lon="-6.24126">
        <ele>1034.5</ele>
        <time>2023-06-16T05:21:10.000+02:00</time>
      </trkpt>
      <trkpt lat="42.69751" lon="-6.24175">
        <ele>1039.5</ele>
        <time>2023-06-16T05:21:17.000+02:00</time>
      </trkpt>
      <trkpt lat="42.69749" lon="-6.24187">
        <ele>1041</ele>
        <time>2023-06-16T05:21:18.000+02:00</time>
      </trkpt>
      <trkpt lat="42.69744" lon="-6.24198">
        <ele>1042</ele>
        <time>2023-06-16T05:21:20.000+02:00</time>
      </trkpt>
      <trkpt lat="42.69736" lon="-6.24207">
        <ele>1042.3</ele>
        <time>2023-06-16T05:21:22.000+02:00</time>
      </trkpt>
      <trkpt lat="42.69728" lon="-6.24212">
        <ele>1041.5</ele>
        <time>2023-06-16T05:21:24.000+02:00</time>
      </trkpt>
      <trkpt lat="42.69712" lon="-6.24218">
        <ele>1039.8</ele>
        <time>2023-06-16T05:21:27.000+02:00</time>
      </trkpt>
      <trkpt lat="42.69704" lon="-6.24223">
        <ele>1039</ele>
        <time>2023-06-16T05:21:29.000+02:00</time>
      </trkpt>
      <trkpt lat="42.69698" lon="-6.24233">
        <ele>1038.5</ele>
        <time>2023-06-16T05:21:31.000+02:00</time>
      </trkpt>
      <trkpt lat="42.69693" lon="-6.24246">
        <ele>1038.3</ele>
        <time>2023-06-16T05:21:33.000+02:00</time>
      </trkpt>
      <trkpt lat="42.69691" lon="-6.24261">
        <ele>1037.8</ele>
        <time>2023-06-16T05:21:35.000+02:00</time>
      </trkpt>
      <trkpt lat="42.69691" lon="-6.24283">
        <ele>1037</ele>
        <time>2023-06-16T05:21:38.000+02:00</time>
      </trkpt>
      <trkpt lat="42.69696" lon="-6.24311">
        <ele>1037.3</ele>
        <time>2023-06-16T05:21:42.000+02:00</time>
      </trkpt>
      <trkpt lat="42.69704" lon="-6.24331">
        <ele>1039</ele>
        <time>2023-06-16T05:21:45.000+02:00</time>
      </trkpt>
      <trkpt lat="42.69718" lon="-6.24354">
        <ele>1040.8</ele>
        <time>2023-06-16T05:21:48.000+02:00</time>
      </trkpt>
      <trkpt lat="42.69733" lon="-6.2437">
        <ele>1042.8</ele>
        <time>2023-06-16T05:21:51.000+02:00</time>
      </trkpt>
      <trkpt lat="42.69779" lon="-6.24404">
        <ele>1047.8</ele>
        <time>2023-06-16T05:22:00.000+02:00</time>
      </trkpt>
      <trkpt lat="42.69812" lon="-6.24424">
        <ele>1049.5</ele>
        <time>2023-06-16T05:22:06.000+02:00</time>
      </trkpt>
      <trkpt lat="42.69877" lon="-6.24467">
        <ele>1055.8</ele>
        <time>2023-06-16T05:22:18.000+02:00</time>
      </trkpt>
      <trkpt lat="42.69886" lon="-6.24475">
        <ele>1056.8</ele>
        <time>2023-06-16T05:22:19.000+02:00</time>
      </trkpt>
      <trkpt lat="42.69892" lon="-6.2449">
        <ele>1056.5</ele>
        <time>2023-06-16T05:22:22.000+02:00</time>
      </trkpt>
      <trkpt lat="42.69895" lon="-6.24502">
        <ele>1055.3</ele>
        <time>2023-06-16T05:22:23.000+02:00</time>
      </trkpt>
      <trkpt lat="42.69894" lon="-6.24543">
        <ele>1049.8</ele>
        <time>2023-06-16T05:22:28.000+02:00</time>
      </trkpt>
      <trkpt lat="42.699" lon="-6.24564">
        <ele>1049</ele>
        <time>2023-06-16T05:22:31.000+02:00</time>
      </trkpt>
      <trkpt lat="42.69906" lon="-6.24574">
        <ele>1049.3</ele>
        <time>2023-06-16T05:22:32.000+02:00</time>
      </trkpt>
      <trkpt lat="42.69918" lon="-6.2458">
        <ele>1051.5</ele>
        <time>2023-06-16T05:22:34.000+02:00</time>
      </trkpt>
      <trkpt lat="42.6993" lon="-6.24582">
        <ele>1051.3</ele>
        <time>2023-06-16T05:22:36.000+02:00</time>
      </trkpt>
      <trkpt lat="42.70024" lon="-6.24582">
        <ele>1047</ele>
        <time>2023-06-16T05:22:52.000+02:00</time>
      </trkpt>
      <trkpt lat="42.7004" lon="-6.24578">
        <ele>1045</ele>
        <time>2023-06-16T05:22:54.000+02:00</time>
      </trkpt>
      <trkpt lat="42.70053" lon="-6.24568">
        <ele>1045.3</ele>
        <time>2023-06-16T05:22:57.000+02:00</time>
      </trkpt>
      <trkpt lat="42.70061" lon="-6.24551">
        <ele>1049.5</ele>
        <time>2023-06-16T05:22:59.000+02:00</time>
      </trkpt>
      <trkpt lat="42.70068" lon="-6.24529">
        <ele>1055.3</ele>
        <time>2023-06-16T05:23:02.000+02:00</time>
      </trkpt>
      <trkpt lat="42.70077" lon="-6.24497">
        <ele>1064</ele>
        <time>2023-06-16T05:23:06.000+02:00</time>
      </trkpt>
      <trkpt lat="42.70086" lon="-6.24477">
        <ele>1069.5</ele>
        <time>2023-06-16T05:23:09.000+02:00</time>
      </trkpt>
      <trkpt lat="42.70094" lon="-6.24468">
        <ele>1071</ele>
        <time>2023-06-16T05:23:11.000+02:00</time>
      </trkpt>
      <trkpt lat="42.70103" lon="-6.24467">
        <ele>1069.8</ele>
        <time>2023-06-16T05:23:12.000+02:00</time>
      </trkpt>
      <trkpt lat="42.70146" lon="-6.24483">
        <ele>1055.8</ele>
        <time>2023-06-16T05:23:19.000+02:00</time>
      </trkpt>
      <trkpt lat="42.70175" lon="-6.24485">
        <ele>1049.8</ele>
        <time>2023-06-16T05:23:24.000+02:00</time>
      </trkpt>
      <trkpt lat="42.70191" lon="-6.24482">
        <ele>1048.8</ele>
        <time>2023-06-16T05:23:27.000+02:00</time>
      </trkpt>
      <trkpt lat="42.70208" lon="-6.24476">
        <ele>1048.3</ele>
        <time>2023-06-16T05:23:30.000+02:00</time>
      </trkpt>
      <trkpt lat="42.70225" lon="-6.24467">
        <ele>1048.5</ele>
        <time>2023-06-16T05:23:33.000+02:00</time>
      </trkpt>
      <trkpt lat="42.70237" lon="-6.24459">
        <ele>1048.8</ele>
        <time>2023-06-16T05:23:35.000+02:00</time>
      </trkpt>
      <trkpt lat="42.70248" lon="-6.24449">
        <ele>1049</ele>
        <time>2023-06-16T05:23:37.000+02:00</time>
      </trkpt>
      <trkpt lat="42.70259" lon="-6.24434">
        <ele>1048.3</ele>
        <time>2023-06-16T05:23:40.000+02:00</time>
      </trkpt>
      <trkpt lat="42.70316" lon="-6.24331">
        <ele>1043.3</ele>
        <time>2023-06-16T05:23:55.000+02:00</time>
      </trkpt>
      <trkpt lat="42.70328" lon="-6.24314">
        <ele>1040.3</ele>
        <time>2023-06-16T05:23:58.000+02:00</time>
      </trkpt>
      <trkpt lat="42.70391" lon="-6.24237">
        <ele>1039.3</ele>
        <time>2023-06-16T05:24:12.000+02:00</time>
      </trkpt>
      <trkpt lat="42.70408" lon="-6.24219">
        <ele>1038.5</ele>
        <time>2023-06-16T05:24:15.000+02:00</time>
      </trkpt>
      <trkpt lat="42.70418" lon="-6.24214">
        <ele>1037.8</ele>
        <time>2023-06-16T05:24:17.000+02:00</time>
      </trkpt>
      <trkpt lat="42.70426" lon="-6.24216">
        <ele>1038.8</ele>
        <time>2023-06-16T05:24:18.000+02:00</time>
      </trkpt>
      <trkpt lat="42.70449" lon="-6.24239">
        <ele>1038</ele>
        <time>2023-06-16T05:24:23.000+02:00</time>
      </trkpt>
      <trkpt lat="42.70473" lon="-6.24267">
        <ele>1036.5</ele>
        <time>2023-06-16T05:24:28.000+02:00</time>
      </trkpt>
      <trkpt lat="42.70476" lon="-6.24271">
        <ele>1036.5</ele>
        <time>2023-06-16T05:24:29.000+02:00</time>
      </trkpt>
      <trkpt lat="42.70519" lon="-6.24325">
        <ele>1033.8</ele>
        <time>2023-06-16T05:24:38.000+02:00</time>
      </trkpt>
      <trkpt lat="42.70533" lon="-6.24344">
        <ele>1032</ele>
        <time>2023-06-16T05:24:42.000+02:00</time>
      </trkpt>
      <trkpt lat="42.70537" lon="-6.2435">
        <ele>1031.3</ele>
        <time>2023-06-16T05:24:43.000+02:00</time>
      </trkpt>
      <trkpt lat="42.70547" lon="-6.24362">
        <ele>1029.5</ele>
        <time>2023-06-16T05:24:45.000+02:00</time>
      </trkpt>
      <trkpt lat="42.70554" lon="-6.24367">
        <ele>1028.8</ele>
        <time>2023-06-16T05:24:46.000+02:00</time>
      </trkpt>
      <trkpt lat="42.70562" lon="-6.2437">
        <ele>1028.3</ele>
        <time>2023-06-16T05:24:48.000+02:00</time>
      </trkpt>
      <trkpt lat="42.706" lon="-6.24376">
        <ele>1026.3</ele>
        <time>2023-06-16T05:24:54.000+02:00</time>
      </trkpt>
      <trkpt lat="42.70612" lon="-6.2438">
        <ele>1024.5</ele>
        <time>2023-06-16T05:24:56.000+02:00</time>
      </trkpt>
      <trkpt lat="42.70629" lon="-6.24392">
        <ele>1020.3</ele>
        <time>2023-06-16T05:24:59.000+02:00</time>
      </trkpt>
      <trkpt lat="42.70649" lon="-6.24398">
        <ele>1017</ele>
        <time>2023-06-16T05:25:02.000+02:00</time>
      </trkpt>
      <trkpt lat="42.70661" lon="-6.24399">
        <ele>1016.3</ele>
        <time>2023-06-16T05:25:04.000+02:00</time>
      </trkpt>
      <trkpt lat="42.70673" lon="-6.24396">
        <ele>1015.8</ele>
        <time>2023-06-16T05:25:06.000+02:00</time>
      </trkpt>
      <trkpt lat="42.70682" lon="-6.2439">
        <ele>1016</ele>
        <time>2023-06-16T05:25:08.000+02:00</time>
      </trkpt>
      <trkpt lat="42.70691" lon="-6.24382">
        <ele>1016.8</ele>
        <time>2023-06-16T05:25:10.000+02:00</time>
      </trkpt>
      <trkpt lat="42.70699" lon="-6.2437">
        <ele>1018.3</ele>
        <time>2023-06-16T05:25:12.000+02:00</time>
      </trkpt>
      <trkpt lat="42.70706" lon="-6.24355">
        <ele>1020.5</ele>
        <time>2023-06-16T05:25:14.000+02:00</time>
      </trkpt>
      <trkpt lat="42.70711" lon="-6.24339">
        <ele>1023.3</ele>
        <time>2023-06-16T05:25:16.000+02:00</time>
      </trkpt>
      <trkpt lat="42.70723" lon="-6.24293">
        <ele>1029.8</ele>
        <time>2023-06-16T05:25:22.000+02:00</time>
      </trkpt>
      <trkpt lat="42.70728" lon="-6.24281">
        <ele>1031</ele>
        <time>2023-06-16T05:25:23.000+02:00</time>
      </trkpt>
      <trkpt lat="42.70735" lon="-6.24275">
        <ele>1030.5</ele>
        <time>2023-06-16T05:25:25.000+02:00</time>
      </trkpt>
      <trkpt lat="42.70746" lon="-6.24274">
        <ele>1028.3</ele>
        <time>2023-06-16T05:25:26.000+02:00</time>
      </trkpt>
      <trkpt lat="42.70753" lon="-6.24281">
        <ele>1026.5</ele>
        <time>2023-06-16T05:25:28.000+02:00</time>
      </trkpt>
      <trkpt lat="42.70759" lon="-6.24292">
        <ele>1025.5</ele>
        <time>2023-06-16T05:25:30.000+02:00</time>
      </trkpt>
      <trkpt lat="42.70768" lon="-6.24322">
        <ele>1021.5</ele>
        <time>2023-06-16T05:25:34.000+02:00</time>
      </trkpt>
      <trkpt lat="42.70774" lon="-6.24357">
        <ele>1016.5</ele>
        <time>2023-06-16T05:25:38.000+02:00</time>
      </trkpt>
      <trkpt lat="42.70782" lon="-6.24382">
        <ele>1013.5</ele>
        <time>2023-06-16T05:25:41.000+02:00</time>
      </trkpt>
      <trkpt lat="42.7079" lon="-6.24402">
        <ele>1011.5</ele>
        <time>2023-06-16T05:25:44.000+02:00</time>
      </trkpt>
      <trkpt lat="42.70799" lon="-6.24419">
        <ele>1010.5</ele>
        <time>2023-06-16T05:25:46.000+02:00</time>
      </trkpt>
      <trkpt lat="42.70814" lon="-6.24435">
        <ele>1011</ele>
        <time>2023-06-16T05:25:49.000+02:00</time>
      </trkpt>
      <trkpt lat="42.70828" lon="-6.24462">
        <ele>1010</ele>
        <time>2023-06-16T05:25:53.000+02:00</time>
      </trkpt>
      <trkpt lat="42.70834" lon="-6.24478">
        <ele>1008.8</ele>
        <time>2023-06-16T05:25:55.000+02:00</time>
      </trkpt>
      <trkpt lat="42.70835" lon="-6.24497">
        <ele>1006.5</ele>
        <time>2023-06-16T05:25:58.000+02:00</time>
      </trkpt>
      <trkpt lat="42.70844" lon="-6.24541">
        <ele>1000.3</ele>
        <time>2023-06-16T05:26:03.000+02:00</time>
      </trkpt>
      <trkpt lat="42.70851" lon="-6.24562">
        <ele>997</ele>
        <time>2023-06-16T05:26:06.000+02:00</time>
      </trkpt>
      <trkpt lat="42.70859" lon="-6.24579">
        <ele>994.3</ele>
        <time>2023-06-16T05:26:08.000+02:00</time>
      </trkpt>
      <trkpt lat="42.70868" lon="-6.24587">
        <ele>993</ele>
        <time>2023-06-16T05:26:10.000+02:00</time>
      </trkpt>
      <trkpt lat="42.70882" lon="-6.24592">
        <ele>992.8</ele>
        <time>2023-06-16T05:26:13.000+02:00</time>
      </trkpt>
      <trkpt lat="42.70922" lon="-6.24584">
        <ele>996</ele>
        <time>2023-06-16T05:26:19.000+02:00</time>
      </trkpt>
      <trkpt lat="42.70974" lon="-6.24579">
        <ele>991.3</ele>
        <time>2023-06-16T05:26:28.000+02:00</time>
      </trkpt>
      <trkpt lat="42.70988" lon="-6.24573">
        <ele>991.5</ele>
        <time>2023-06-16T05:26:30.000+02:00</time>
      </trkpt>
      <trkpt lat="42.71038" lon="-6.24534">
        <ele>996.3</ele>
        <time>2023-06-16T05:26:40.000+02:00</time>
      </trkpt>
      <trkpt lat="42.71054" lon="-6.24533">
        <ele>994.3</ele>
        <time>2023-06-16T05:26:42.000+02:00</time>
      </trkpt>
      <trkpt lat="42.71068" lon="-6.2453">
        <ele>992.8</ele>
        <time>2023-06-16T05:26:45.000+02:00</time>
      </trkpt>
      <trkpt lat="42.71119" lon="-6.24497">
        <ele>996.3</ele>
        <time>2023-06-16T05:26:54.000+02:00</time>
      </trkpt>
      <trkpt lat="42.71138" lon="-6.24487">
        <ele>996.5</ele>
        <time>2023-06-16T05:26:57.000+02:00</time>
      </trkpt>
      <trkpt lat="42.71149" lon="-6.24487">
        <ele>995.5</ele>
        <time>2023-06-16T05:26:59.000+02:00</time>
      </trkpt>
      <trkpt lat="42.71156" lon="-6.2449">
        <ele>994.3</ele>
        <time>2023-06-16T05:27:00.000+02:00</time>
      </trkpt>
      <trkpt lat="42.71163" lon="-6.24501">
        <ele>992</ele>
        <time>2023-06-16T05:27:02.000+02:00</time>
      </trkpt>
      <trkpt lat="42.71169" lon="-6.24517">
        <ele>990.5</ele>
        <time>2023-06-16T05:27:04.000+02:00</time>
      </trkpt>
      <trkpt lat="42.71185" lon="-6.24588">
        <ele>984.5</ele>
        <time>2023-06-16T05:27:13.000+02:00</time>
      </trkpt>
      <trkpt lat="42.71194" lon="-6.2461">
        <ele>985.3</ele>
        <time>2023-06-16T05:27:16.000+02:00</time>
      </trkpt>
      <trkpt lat="42.71201" lon="-6.24622">
        <ele>985.5</ele>
        <time>2023-06-16T05:27:18.000+02:00</time>
      </trkpt>
      <trkpt lat="42.71208" lon="-6.24628">
        <ele>985.5</ele>
        <time>2023-06-16T05:27:19.000+02:00</time>
      </trkpt>
      <trkpt lat="42.71218" lon="-6.24631">
        <ele>985.5</ele>
        <time>2023-06-16T05:27:21.000+02:00</time>
      </trkpt>
      <trkpt lat="42.71224" lon="-6.24624">
        <ele>986.3</ele>
        <time>2023-06-16T05:27:22.000+02:00</time>
      </trkpt>
      <trkpt lat="42.71264" lon="-6.24619">
        <ele>988.3</ele>
        <time>2023-06-16T05:27:29.000+02:00</time>
      </trkpt>
      <trkpt lat="42.7129" lon="-6.24628">
        <ele>987.3</ele>
        <time>2023-06-16T05:27:33.000+02:00</time>
      </trkpt>
      <trkpt lat="42.71342" lon="-6.24649">
        <ele>987.5</ele>
        <time>2023-06-16T05:27:42.000+02:00</time>
      </trkpt>
      <trkpt lat="42.71402" lon="-6.24661">
        <ele>988.5</ele>
        <time>2023-06-16T05:27:52.000+02:00</time>
      </trkpt>
      <trkpt lat="42.71462" lon="-6.24704">
        <ele>996</ele>
        <time>2023-06-16T05:28:03.000+02:00</time>
      </trkpt>
      <trkpt lat="42.71499" lon="-6.24697">
        <ele>1000.5</ele>
        <time>2023-06-16T05:28:09.000+02:00</time>
      </trkpt>
      <trkpt lat="42.71509" lon="-6.24703">
        <ele>1001.8</ele>
        <time>2023-06-16T05:28:11.000+02:00</time>
      </trkpt>
      <trkpt lat="42.71533" lon="-6.24727">
        <ele>1003.5</ele>
        <time>2023-06-16T05:28:16.000+02:00</time>
      </trkpt>
      <trkpt lat="42.71534" lon="-6.24759">
        <ele>1000.3</ele>
        <time>2023-06-16T05:28:20.000+02:00</time>
      </trkpt>
      <trkpt lat="42.71545" lon="-6.24793">
        <ele>1002.5</ele>
        <time>2023-06-16T05:28:24.000+02:00</time>
      </trkpt>
      <trkpt lat="42.71562" lon="-6.24837">
        <ele>1001.5</ele>
        <time>2023-06-16T05:28:30.000+02:00</time>
      </trkpt>
      <trkpt lat="42.71595" lon="-6.24859">
        <ele>1000.8</ele>
        <time>2023-06-16T05:28:36.000+02:00</time>
      </trkpt>
      <trkpt lat="42.71625" lon="-6.24877">
        <ele>1003.8</ele>
        <time>2023-06-16T05:28:41.000+02:00</time>
      </trkpt>
      <trkpt lat="42.7167" lon="-6.24912">
        <ele>1000.5</ele>
        <time>2023-06-16T05:28:50.000+02:00</time>
      </trkpt>
      <trkpt lat="42.71702" lon="-6.2495">
        <ele>1004.5</ele>
        <time>2023-06-16T05:28:57.000+02:00</time>
      </trkpt>
      <trkpt lat="42.71718" lon="-6.24951">
        <ele>1005.5</ele>
        <time>2023-06-16T05:28:59.000+02:00</time>
      </trkpt>
      <trkpt lat="42.7174" lon="-6.24936">
        <ele>1007</ele>
        <time>2023-06-16T05:29:03.000+02:00</time>
      </trkpt>
      <trkpt lat="42.71751" lon="-6.24929">
        <ele>1008.3</ele>
        <time>2023-06-16T05:29:05.000+02:00</time>
      </trkpt>
      <trkpt lat="42.71791" lon="-6.24916">
        <ele>1009.5</ele>
        <time>2023-06-16T05:29:12.000+02:00</time>
      </trkpt>
      <trkpt lat="42.71809" lon="-6.24904">
        <ele>1013.3</ele>
        <time>2023-06-16T05:29:15.000+02:00</time>
      </trkpt>
      <trkpt lat="42.71829" lon="-6.24896">
        <ele>1015.5</ele>
        <time>2023-06-16T05:29:19.000+02:00</time>
      </trkpt>
      <trkpt lat="42.71848" lon="-6.24908">
        <ele>1015.5</ele>
        <time>2023-06-16T05:29:22.000+02:00</time>
      </trkpt>
      <trkpt lat="42.71883" lon="-6.24944">
        <ele>1019.8</ele>
        <time>2023-06-16T05:29:29.000+02:00</time>
      </trkpt>
      <trkpt lat="42.71898" lon="-6.24987">
        <ele>1018.8</ele>
        <time>2023-06-16T05:29:35.000+02:00</time>
      </trkpt>
      <trkpt lat="42.7191" lon="-6.25029">
        <ele>1018</ele>
        <time>2023-06-16T05:29:40.000+02:00</time>
      </trkpt>
      <trkpt lat="42.71922" lon="-6.25058">
        <ele>1017.3</ele>
        <time>2023-06-16T05:29:44.000+02:00</time>
      </trkpt>
      <trkpt lat="42.71954" lon="-6.25099">
        <ele>1020.8</ele>
        <time>2023-06-16T05:29:52.000+02:00</time>
      </trkpt>
      <trkpt lat="42.71997" lon="-6.25127">
        <ele>1019.8</ele>
        <time>2023-06-16T05:29:59.000+02:00</time>
      </trkpt>
      <trkpt lat="42.72041" lon="-6.25144">
        <ele>1019.5</ele>
        <time>2023-06-16T05:30:07.000+02:00</time>
      </trkpt>
      <trkpt lat="42.72099" lon="-6.25133">
        <ele>1024.5</ele>
        <time>2023-06-16T05:30:16.000+02:00</time>
      </trkpt>
      <trkpt lat="42.72128" lon="-6.25125">
        <ele>1026.5</ele>
        <time>2023-06-16T05:30:21.000+02:00</time>
      </trkpt>
      <trkpt lat="42.72158" lon="-6.25111">
        <ele>1028</ele>
        <time>2023-06-16T05:30:27.000+02:00</time>
      </trkpt>
      <trkpt lat="42.72192" lon="-6.2509">
        <ele>1028.3</ele>
        <time>2023-06-16T05:30:33.000+02:00</time>
      </trkpt>
      <trkpt lat="42.72196" lon="-6.25087">
        <ele>1028</ele>
        <time>2023-06-16T05:30:33.000+02:00</time>
      </trkpt>
      <trkpt lat="42.722" lon="-6.25087">
        <ele>1028</ele>
        <time>2023-06-16T05:30:34.000+02:00</time>
      </trkpt>
      <trkpt lat="42.72218" lon="-6.25091">
        <ele>1027.3</ele>
        <time>2023-06-16T05:30:37.000+02:00</time>
      </trkpt>
      <trkpt lat="42.72225" lon="-6.25092">
        <ele>1027</ele>
        <time>2023-06-16T05:30:38.000+02:00</time>
      </trkpt>
      <trkpt lat="42.72252" lon="-6.25092">
        <ele>1026</ele>
        <time>2023-06-16T05:30:43.000+02:00</time>
      </trkpt>
      <trkpt lat="42.72281" lon="-6.25088">
        <ele>1028</ele>
        <time>2023-06-16T05:30:47.000+02:00</time>
      </trkpt>
      <trkpt lat="42.72292" lon="-6.25088">
        <ele>1028.8</ele>
        <time>2023-06-16T05:30:49.000+02:00</time>
      </trkpt>
      <trkpt lat="42.72295" lon="-6.25086">
        <ele>1028.5</ele>
        <time>2023-06-16T05:30:50.000+02:00</time>
      </trkpt>
      <trkpt lat="42.72303" lon="-6.25086">
        <ele>1029.3</ele>
        <time>2023-06-16T05:30:51.000+02:00</time>
      </trkpt>
      <trkpt lat="42.72326" lon="-6.25081">
        <ele>1030.8</ele>
        <time>2023-06-16T05:30:55.000+02:00</time>
      </trkpt>
      <trkpt lat="42.72356" lon="-6.2507">
        <ele>1034.8</ele>
        <time>2023-06-16T05:31:00.000+02:00</time>
      </trkpt>
      <trkpt lat="42.72385" lon="-6.25062">
        <ele>1036.3</ele>
        <time>2023-06-16T05:31:05.000+02:00</time>
      </trkpt>
      <trkpt lat="42.72395" lon="-6.25061">
        <ele>1036.5</ele>
        <time>2023-06-16T05:31:06.000+02:00</time>
      </trkpt>
      <trkpt lat="42.72408" lon="-6.25072">
        <ele>1036</ele>
        <time>2023-06-16T05:31:09.000+02:00</time>
      </trkpt>
      <trkpt lat="42.72421" lon="-6.25071">
        <ele>1036.8</ele>
        <time>2023-06-16T05:31:11.000+02:00</time>
      </trkpt>
      <trkpt lat="42.72438" lon="-6.25066">
        <ele>1039</ele>
        <time>2023-06-16T05:31:14.000+02:00</time>
      </trkpt>
      <trkpt lat="42.72454" lon="-6.25068">
        <ele>1041</ele>
        <time>2023-06-16T05:31:17.000+02:00</time>
      </trkpt>
      <trkpt lat="42.7247" lon="-6.25058">
        <ele>1042</ele>
        <time>2023-06-16T05:31:19.000+02:00</time>
      </trkpt>
      <trkpt lat="42.7249" lon="-6.25041">
        <ele>1041.3</ele>
        <time>2023-06-16T05:31:23.000+02:00</time>
      </trkpt>
      <trkpt lat="42.72509" lon="-6.25034">
        <ele>1042.3</ele>
        <time>2023-06-16T05:31:27.000+02:00</time>
      </trkpt>
      <trkpt lat="42.72514" lon="-6.25019">
        <ele>1040.5</ele>
        <time>2023-06-16T05:31:28.000+02:00</time>
      </trkpt>
      <trkpt lat="42.72511" lon="-6.24993">
        <ele>1036.8</ele>
        <time>2023-06-16T05:31:32.000+02:00</time>
      </trkpt>
      <trkpt lat="42.72515" lon="-6.2497">
        <ele>1038</ele>
        <time>2023-06-16T05:31:34.000+02:00</time>
      </trkpt>
      <trkpt lat="42.7253" lon="-6.24936">
        <ele>1040.8</ele>
        <time>2023-06-16T05:31:39.000+02:00</time>
      </trkpt>
      <trkpt lat="42.72546" lon="-6.24914">
        <ele>1042.8</ele>
        <time>2023-06-16T05:31:43.000+02:00</time>
      </trkpt>
      <trkpt lat="42.7257" lon="-6.24895">
        <ele>1045</ele>
        <time>2023-06-16T05:31:47.000+02:00</time>
      </trkpt>
      <trkpt lat="42.72584" lon="-6.24894">
        <ele>1045.8</ele>
        <time>2023-06-16T05:31:50.000+02:00</time>
      </trkpt>
      <trkpt lat="42.72602" lon="-6.24888">
        <ele>1051.3</ele>
        <time>2023-06-16T05:31:53.000+02:00</time>
      </trkpt>
      <trkpt lat="42.72635" lon="-6.24828">
        <ele>1054.8</ele>
        <time>2023-06-16T05:32:02.000+02:00</time>
      </trkpt>
      <trkpt lat="42.72655" lon="-6.24811">
        <ele>1058.5</ele>
        <time>2023-06-16T05:32:06.000+02:00</time>
      </trkpt>
      <trkpt lat="42.72659" lon="-6.24779">
        <ele>1056.8</ele>
        <time>2023-06-16T05:32:10.000+02:00</time>
      </trkpt>
      <trkpt lat="42.72677" lon="-6.24731">
        <ele>1056.5</ele>
        <time>2023-06-16T05:32:16.000+02:00</time>
      </trkpt>
      <trkpt lat="42.72696" lon="-6.24696">
        <ele>1056.5</ele>
        <time>2023-06-16T05:32:21.000+02:00</time>
      </trkpt>
      <trkpt lat="42.72733" lon="-6.24686">
        <ele>1062</ele>
        <time>2023-06-16T05:32:27.000+02:00</time>
      </trkpt>
      <trkpt lat="42.72748" lon="-6.24683">
        <ele>1064</ele>
        <time>2023-06-16T05:32:30.000+02:00</time>
      </trkpt>
      <trkpt lat="42.7277" lon="-6.24672">
        <ele>1066.3</ele>
        <time>2023-06-16T05:32:34.000+02:00</time>
      </trkpt>
      <trkpt lat="42.72795" lon="-6.24643">
        <ele>1067.3</ele>
        <time>2023-06-16T05:32:39.000+02:00</time>
      </trkpt>
      <trkpt lat="42.72816" lon="-6.24611">
        <ele>1064.3</ele>
        <time>2023-06-16T05:32:44.000+02:00</time>
      </trkpt>
      <trkpt lat="42.72848" lon="-6.24579">
        <ele>1061.8</ele>
        <time>2023-06-16T05:32:51.000+02:00</time>
      </trkpt>
      <trkpt lat="42.72893" lon="-6.24588">
        <ele>1072.8</ele>
        <time>2023-06-16T05:32:58.000+02:00</time>
      </trkpt>
      <trkpt lat="42.72914" lon="-6.24588">
        <ele>1077</ele>
        <time>2023-06-16T05:33:02.000+02:00</time>
      </trkpt>
      <trkpt lat="42.72945" lon="-6.24563">
        <ele>1078.3</ele>
        <time>2023-06-16T05:33:08.000+02:00</time>
      </trkpt>
      <trkpt lat="42.72985" lon="-6.24536">
        <ele>1079</ele>
        <time>2023-06-16T05:33:15.000+02:00</time>
      </trkpt>
      <trkpt lat="42.72995" lon="-6.24531">
        <ele>1079.5</ele>
        <time>2023-06-16T05:33:17.000+02:00</time>
      </trkpt>
      <trkpt lat="42.73017" lon="-6.24533">
        <ele>1083</ele>
        <time>2023-06-16T05:33:20.000+02:00</time>
      </trkpt>
      <trkpt lat="42.73053" lon="-6.24523">
        <ele>1085.8</ele>
        <time>2023-06-16T05:33:26.000+02:00</time>
      </trkpt>
      <trkpt lat="42.7307" lon="-6.2451">
        <ele>1085.8</ele>
        <time>2023-06-16T05:33:29.000+02:00</time>
      </trkpt>
      <trkpt lat="42.73085" lon="-6.2448">
        <ele>1084</ele>
        <time>2023-06-16T05:33:34.000+02:00</time>
      </trkpt>
      <trkpt lat="42.73102" lon="-6.2445">
        <ele>1082</ele>
        <time>2023-06-16T05:33:38.000+02:00</time>
      </trkpt>
      <trkpt lat="42.73116" lon="-6.24442">
        <ele>1081.8</ele>
        <time>2023-06-16T05:33:41.000+02:00</time>
      </trkpt>
      <trkpt lat="42.73131" lon="-6.24441">
        <ele>1082.5</ele>
        <time>2023-06-16T05:33:43.000+02:00</time>
      </trkpt>
      <trkpt lat="42.73164" lon="-6.24475">
        <ele>1088.3</ele>
        <time>2023-06-16T05:33:50.000+02:00</time>
      </trkpt>
      <trkpt lat="42.73192" lon="-6.24492">
        <ele>1090</ele>
        <time>2023-06-16T05:33:55.000+02:00</time>
      </trkpt>
      <trkpt lat="42.73206" lon="-6.24504">
        <ele>1091</ele>
        <time>2023-06-16T05:33:58.000+02:00</time>
      </trkpt>
      <trkpt lat="42.73216" lon="-6.2451">
        <ele>1092.8</ele>
        <time>2023-06-16T05:34:00.000+02:00</time>
      </trkpt>
      <trkpt lat="42.73268" lon="-6.24515">
        <ele>1092.8</ele>
        <time>2023-06-16T05:34:08.000+02:00</time>
      </trkpt>
      <trkpt lat="42.73284" lon="-6.24514">
        <ele>1092.5</ele>
        <time>2023-06-16T05:34:11.000+02:00</time>
      </trkpt>
      <trkpt lat="42.73321" lon="-6.24537">
        <ele>1098.5</ele>
        <time>2023-06-16T05:34:17.000+02:00</time>
      </trkpt>
      <trkpt lat="42.73332" lon="-6.24524">
        <ele>1095</ele>
        <time>2023-06-16T05:34:20.000+02:00</time>
      </trkpt>
      <trkpt lat="42.73343" lon="-6.24504">
        <ele>1092.5</ele>
        <time>2023-06-16T05:34:23.000+02:00</time>
      </trkpt>
      <trkpt lat="42.73352" lon="-6.24491">
        <ele>1093</ele>
        <time>2023-06-16T05:34:25.000+02:00</time>
      </trkpt>
      <trkpt lat="42.73364" lon="-6.24486">
        <ele>1095.3</ele>
        <time>2023-06-16T05:34:27.000+02:00</time>
      </trkpt>
      <trkpt lat="42.73389" lon="-6.24431">
        <ele>1092</ele>
        <time>2023-06-16T05:34:34.000+02:00</time>
      </trkpt>
      <trkpt lat="42.73405" lon="-6.24403">
        <ele>1090.8</ele>
        <time>2023-06-16T05:34:39.000+02:00</time>
      </trkpt>
      <trkpt lat="42.73417" lon="-6.24382">
        <ele>1090.3</ele>
        <time>2023-06-16T05:34:42.000+02:00</time>
      </trkpt>
      <trkpt lat="42.73419" lon="-6.24382">
        <ele>1090.5</ele>
        <time>2023-06-16T05:34:42.000+02:00</time>
      </trkpt>
      <trkpt lat="42.73423" lon="-6.24388">
        <ele>1091.3</ele>
        <time>2023-06-16T05:34:43.000+02:00</time>
      </trkpt>
      <trkpt lat="42.73411" lon="-6.24416">
        <ele>1091.3</ele>
        <time>2023-06-16T05:34:47.000+02:00</time>
      </trkpt>
      <trkpt lat="42.73402" lon="-6.24443">
        <ele>1095.8</ele>
        <time>2023-06-16T05:34:51.000+02:00</time>
      </trkpt>
      <trkpt lat="42.73395" lon="-6.24471">
        <ele>1100</ele>
        <time>2023-06-16T05:34:54.000+02:00</time>
      </trkpt>
      <trkpt lat="42.73387" lon="-6.24495">
        <ele>1102.3</ele>
        <time>2023-06-16T05:34:57.000+02:00</time>
      </trkpt>
      <trkpt lat="42.73374" lon="-6.24516">
        <ele>1103.8</ele>
        <time>2023-06-16T05:35:01.000+02:00</time>
      </trkpt>
      <trkpt lat="42.73369" lon="-6.24533">
        <ele>1107</ele>
        <time>2023-06-16T05:35:03.000+02:00</time>
      </trkpt>
      <trkpt lat="42.73362" lon="-6.24593">
        <ele>1121.3</ele>
        <time>2023-06-16T05:35:10.000+02:00</time>
      </trkpt>
      <trkpt lat="42.73353" lon="-6.24601">
        <ele>1120.8</ele>
        <time>2023-06-16T05:35:12.000+02:00</time>
      </trkpt>
      <trkpt lat="42.73342" lon="-6.24599">
        <ele>1117</ele>
        <time>2023-06-16T05:35:14.000+02:00</time>
      </trkpt>
      <trkpt lat="42.73328" lon="-6.24599">
        <ele>1115</ele>
        <time>2023-06-16T05:35:16.000+02:00</time>
      </trkpt>
      <trkpt lat="42.73315" lon="-6.24606">
        <ele>1117.8</ele>
        <time>2023-06-16T05:35:18.000+02:00</time>
      </trkpt>
      <trkpt lat="42.73304" lon="-6.24614">
        <ele>1120.8</ele>
        <time>2023-06-16T05:35:20.000+02:00</time>
      </trkpt>
      <trkpt lat="42.73294" lon="-6.24613">
        <ele>1120.8</ele>
        <time>2023-06-16T05:35:22.000+02:00</time>
      </trkpt>
      <trkpt lat="42.73286" lon="-6.24599">
        <ele>1117.5</ele>
        <time>2023-06-16T05:35:24.000+02:00</time>
      </trkpt>
      <trkpt lat="42.73276" lon="-6.24591">
        <ele>1116.3</ele>
        <time>2023-06-16T05:35:26.000+02:00</time>
      </trkpt>
      <trkpt lat="42.73269" lon="-6.24592">
        <ele>1116.8</ele>
        <time>2023-06-16T05:35:27.000+02:00</time>
      </trkpt>
      <trkpt lat="42.73258" lon="-6.24597">
        <ele>1118.8</ele>
        <time>2023-06-16T05:35:29.000+02:00</time>
      </trkpt>
      <trkpt lat="42.7325" lon="-6.24598">
        <ele>1119.5</ele>
        <time>2023-06-16T05:35:30.000+02:00</time>
      </trkpt>
      <trkpt lat="42.73229" lon="-6.24607">
        <ele>1120.5</ele>
        <time>2023-06-16T05:35:34.000+02:00</time>
      </trkpt>
      <trkpt lat="42.73204" lon="-6.24627">
        <ele>1122.8</ele>
        <time>2023-06-16T05:35:39.000+02:00</time>
      </trkpt>
      <trkpt lat="42.73172" lon="-6.24653">
        <ele>1124.5</ele>
        <time>2023-06-16T05:35:45.000+02:00</time>
      </trkpt>
      <trkpt lat="42.7316" lon="-6.24667">
        <ele>1125.5</ele>
        <time>2023-06-16T05:35:47.000+02:00</time>
      </trkpt>
      <trkpt lat="42.73137" lon="-6.24684">
        <ele>1126.5</ele>
        <time>2023-06-16T05:35:52.000+02:00</time>
      </trkpt>
      <trkpt lat="42.73121" lon="-6.24692">
        <ele>1126.8</ele>
        <time>2023-06-16T05:35:54.000+02:00</time>
      </trkpt>
      <trkpt lat="42.73102" lon="-6.24701">
        <ele>1127</ele>
        <time>2023-06-16T05:35:58.000+02:00</time>
      </trkpt>
      <trkpt lat="42.73093" lon="-6.24718">
        <ele>1129</ele>
        <time>2023-06-16T05:36:00.000+02:00</time>
      </trkpt>
      <trkpt lat="42.7309" lon="-6.24739">
        <ele>1132.5</ele>
        <time>2023-06-16T05:36:03.000+02:00</time>
      </trkpt>
      <trkpt lat="42.73082" lon="-6.24746">
        <ele>1133.3</ele>
        <time>2023-06-16T05:36:04.000+02:00</time>
      </trkpt>
      <trkpt lat="42.73059" lon="-6.24736">
        <ele>1132.8</ele>
        <time>2023-06-16T05:36:08.000+02:00</time>
      </trkpt>
      <trkpt lat="42.73048" lon="-6.24728">
        <ele>1131.8</ele>
        <time>2023-06-16T05:36:10.000+02:00</time>
      </trkpt>
      <trkpt lat="42.73001" lon="-6.24726">
        <ele>1133.5</ele>
        <time>2023-06-16T05:36:18.000+02:00</time>
      </trkpt>
      <trkpt lat="42.72959" lon="-6.24735">
        <ele>1131.8</ele>
        <time>2023-06-16T05:36:25.000+02:00</time>
      </trkpt>
      <trkpt lat="42.72943" lon="-6.24732">
        <ele>1129.8</ele>
        <time>2023-06-16T05:36:28.000+02:00</time>
      </trkpt>
      <trkpt lat="42.72925" lon="-6.24738">
        <ele>1129.8</ele>
        <time>2023-06-16T05:36:31.000+02:00</time>
      </trkpt>
      <trkpt lat="42.7291" lon="-6.24753">
        <ele>1131.8</ele>
        <time>2023-06-16T05:36:34.000+02:00</time>
      </trkpt>
      <trkpt lat="42.72883" lon="-6.24789">
        <ele>1135</ele>
        <time>2023-06-16T05:36:40.000+02:00</time>
      </trkpt>
      <trkpt lat="42.72871" lon="-6.24799">
        <ele>1134.8</ele>
        <time>2023-06-16T05:36:42.000+02:00</time>
      </trkpt>
      <trkpt lat="42.72863" lon="-6.24816">
        <ele>1137.3</ele>
        <time>2023-06-16T05:36:45.000+02:00</time>
      </trkpt>
      <trkpt lat="42.72851" lon="-6.24848">
        <ele>1141</ele>
        <time>2023-06-16T05:36:49.000+02:00</time>
      </trkpt>
      <trkpt lat="42.72835" lon="-6.24884">
        <ele>1141.8</ele>
        <time>2023-06-16T05:36:54.000+02:00</time>
      </trkpt>
      <trkpt lat="42.7283" lon="-6.24996">
        <ele>1150.7</ele>
        <time>2023-06-16T05:37:07.000+02:00</time>
      </trkpt>
      <trkpt lat="42.72852" lon="-6.2506">
        <ele>1156.4</ele>
        <time>2023-06-16T05:37:15.000+02:00</time>
      </trkpt>
      <trkpt lat="42.72999" lon="-6.25287">
        <ele>1163.9</ele>
        <time>2023-06-16T05:37:49.000+02:00</time>
      </trkpt>
      <trkpt lat="42.72962" lon="-6.25535">
        <ele>1167.4</ele>
        <time>2023-06-16T05:38:18.000+02:00</time>
      </trkpt>
      <trkpt lat="42.73014" lon="-6.25924">
        <ele>1165.7</ele>
        <time>2023-06-16T05:39:02.000+02:00</time>
      </trkpt>
      <trkpt lat="42.72986" lon="-6.26159">
        <ele>1150.9</ele>
        <time>2023-06-16T05:39:29.000+02:00</time>
      </trkpt>
      <trkpt lat="42.7302" lon="-6.26282">
        <ele>1142.2</ele>
        <time>2023-06-16T05:39:44.000+02:00</time>
      </trkpt>
      <trkpt lat="42.72975" lon="-6.26473">
        <ele>1120.9</ele>
        <time>2023-06-16T05:40:06.000+02:00</time>
      </trkpt>
      <trkpt lat="42.72862" lon="-6.26327">
        <ele>1103.7</ele>
        <time>2023-06-16T05:40:30.000+02:00</time>
      </trkpt>
      <trkpt lat="42.72809" lon="-6.26179">
        <ele>1089.1</ele>
        <time>2023-06-16T05:40:48.000+02:00</time>
      </trkpt>
      <trkpt lat="42.72766" lon="-6.26364">
        <ele>1079.8</ele>
        <time>2023-06-16T05:41:10.000+02:00</time>
      </trkpt>
      <trkpt lat="42.72624" lon="-6.26667">
        <ele>1064.3</ele>
        <time>2023-06-16T05:41:50.000+02:00</time>
      </trkpt>
      <trkpt lat="42.72595" lon="-6.26798">
        <ele>1055.1</ele>
        <time>2023-06-16T05:42:06.000+02:00</time>
      </trkpt>
      <trkpt lat="42.72615" lon="-6.26909">
        <ele>1041.2</ele>
        <time>2023-06-16T05:42:19.000+02:00</time>
      </trkpt>
      <trkpt lat="42.72562" lon="-6.26924">
        <ele>1033.3</ele>
        <time>2023-06-16T05:42:27.000+02:00</time>
      </trkpt>
      <trkpt lat="42.72632" lon="-6.27049">
        <ele>1017.9</ele>
        <time>2023-06-16T05:42:44.000+02:00</time>
      </trkpt>
      <trkpt lat="42.7267" lon="-6.27042">
        <ele>1012.1</ele>
        <time>2023-06-16T05:42:50.000+02:00</time>
      </trkpt>
      <trkpt lat="42.72687" lon="-6.26994">
        <ele>1010.3</ele>
        <time>2023-06-16T05:42:56.000+02:00</time>
      </trkpt>
      <trkpt lat="42.72715" lon="-6.26998">
        <ele>1004.6</ele>
        <time>2023-06-16T05:43:01.000+02:00</time>
      </trkpt>
      <trkpt lat="42.7269" lon="-6.27124">
        <ele>988.8</ele>
        <time>2023-06-16T05:43:15.000+02:00</time>
      </trkpt>
      <trkpt lat="42.72723" lon="-6.27301">
        <ele>965.4</ele>
        <time>2023-06-16T05:43:36.000+02:00</time>
      </trkpt>
      <trkpt lat="42.72723" lon="-6.27525">
        <ele>939.3</ele>
        <time>2023-06-16T05:44:01.000+02:00</time>
      </trkpt>
      <trkpt lat="42.7268" lon="-6.27543">
        <ele>933.4</ele>
        <time>2023-06-16T05:44:08.000+02:00</time>
      </trkpt>
      <trkpt lat="42.72636" lon="-6.27523">
        <ele>932.4</ele>
        <time>2023-06-16T05:44:15.000+02:00</time>
      </trkpt>
      <trkpt lat="42.72636" lon="-6.27602">
        <ele>926.8</ele>
        <time>2023-06-16T05:44:24.000+02:00</time>
      </trkpt>
      <trkpt lat="42.72534" lon="-6.27656">
        <ele>914.5</ele>
        <time>2023-06-16T05:44:40.000+02:00</time>
      </trkpt>
      <trkpt lat="42.72569" lon="-6.27767">
        <ele>905.7</ele>
        <time>2023-06-16T05:44:54.000+02:00</time>
      </trkpt>
      <trkpt lat="42.72717" lon="-6.27727">
        <ele>907</ele>
        <time>2023-06-16T05:45:17.000+02:00</time>
      </trkpt>
      <trkpt lat="42.72939" lon="-6.27883">
        <ele>913.4</ele>
        <time>2023-06-16T05:45:55.000+02:00</time>
      </trkpt>
      <trkpt lat="42.73122" lon="-6.27855">
        <ele>915.8</ele>
        <time>2023-06-16T05:46:23.000+02:00</time>
      </trkpt>
      <trkpt lat="42.73328" lon="-6.27779">
        <ele>918.7</ele>
        <time>2023-06-16T05:46:56.000+02:00</time>
      </trkpt>
      <trkpt lat="42.73495" lon="-6.2784">
        <ele>931.3</ele>
        <time>2023-06-16T05:47:22.000+02:00</time>
      </trkpt>
      <trkpt lat="42.73439" lon="-6.27846">
        <ele>937.8</ele>
        <time>2023-06-16T05:47:31.000+02:00</time>
      </trkpt>
      <trkpt lat="42.73306" lon="-6.27934">
        <ele>942</ele>
        <time>2023-06-16T05:47:54.000+02:00</time>
      </trkpt>
      <trkpt lat="42.73099" lon="-6.27937">
        <ele>953.3</ele>
        <time>2023-06-16T05:48:25.000+02:00</time>
      </trkpt>
      <trkpt lat="42.73008" lon="-6.2807">
        <ele>983.3</ele>
        <time>2023-06-16T05:48:46.000+02:00</time>
      </trkpt>
      <trkpt lat="42.73005" lon="-6.2826">
        <ele>1013</ele>
        <time>2023-06-16T05:49:07.000+02:00</time>
      </trkpt>
      <trkpt lat="42.72906" lon="-6.28236">
        <ele>1013.7</ele>
        <time>2023-06-16T05:49:22.000+02:00</time>
      </trkpt>
      <trkpt lat="42.72872" lon="-6.28315">
        <ele>1028.8</ele>
        <time>2023-06-16T05:49:32.000+02:00</time>
      </trkpt>
      <trkpt lat="42.72859" lon="-6.28472">
        <ele>1042.1</ele>
        <time>2023-06-16T05:49:50.000+02:00</time>
      </trkpt>
      <trkpt lat="42.7267" lon="-6.28467">
        <ele>1036.4</ele>
        <time>2023-06-16T05:50:19.000+02:00</time>
      </trkpt>
      <trkpt lat="42.72473" lon="-6.28726">
        <ele>1065</ele>
        <time>2023-06-16T05:51:01.000+02:00</time>
      </trkpt>
      <trkpt lat="42.72419" lon="-6.2876">
        <ele>1068.5</ele>
        <time>2023-06-16T05:51:10.000+02:00</time>
      </trkpt>
      <trkpt lat="42.7247" lon="-6.28871">
        <ele>1088.3</ele>
        <time>2023-06-16T05:51:25.000+02:00</time>
      </trkpt>
      <trkpt lat="42.72582" lon="-6.2877">
        <ele>1108.4</ele>
        <time>2023-06-16T05:51:45.000+02:00</time>
      </trkpt>
      <trkpt lat="42.72758" lon="-6.28723">
        <ele>1135</ele>
        <time>2023-06-16T05:52:13.000+02:00</time>
      </trkpt>
      <trkpt lat="42.72928" lon="-6.28613">
        <ele>1126.6</ele>
        <time>2023-06-16T05:52:41.000+02:00</time>
      </trkpt>
      <trkpt lat="42.72992" lon="-6.28515">
        <ele>1127.4</ele>
        <time>2023-06-16T05:52:56.000+02:00</time>
      </trkpt>
      <trkpt lat="42.73088" lon="-6.28536">
        <ele>1125.4</ele>
        <time>2023-06-16T05:53:11.000+02:00</time>
      </trkpt>
      <trkpt lat="42.73222" lon="-6.28305">
        <ele>1124.8</ele>
        <time>2023-06-16T05:53:44.000+02:00</time>
      </trkpt>
      <trkpt lat="42.73303" lon="-6.28322">
        <ele>1122.2</ele>
        <time>2023-06-16T05:53:57.000+02:00</time>
      </trkpt>
      <trkpt lat="42.73346" lon="-6.28385">
        <ele>1124.3</ele>
        <time>2023-06-16T05:54:06.000+02:00</time>
      </trkpt>
      <trkpt lat="42.73367" lon="-6.28449">
        <ele>1123.1</ele>
        <time>2023-06-16T05:54:14.000+02:00</time>
      </trkpt>
      <trkpt lat="42.73348" lon="-6.28561">
        <ele>1127.6</ele>
        <time>2023-06-16T05:54:27.000+02:00</time>
      </trkpt>
      <trkpt lat="42.73371" lon="-6.28667">
        <ele>1132</ele>
        <time>2023-06-16T05:54:39.000+02:00</time>
      </trkpt>
      <trkpt lat="42.73431" lon="-6.28715">
        <ele>1133.1</ele>
        <time>2023-06-16T05:54:50.000+02:00</time>
      </trkpt>
      <trkpt lat="42.73474" lon="-6.28832">
        <ele>1135.1</ele>
        <time>2023-06-16T05:55:05.000+02:00</time>
      </trkpt>
      <trkpt lat="42.73445" lon="-6.29036">
        <ele>1143.4</ele>
        <time>2023-06-16T05:55:28.000+02:00</time>
      </trkpt>
      <trkpt lat="42.73557" lon="-6.29114">
        <ele>1143.2</ele>
        <time>2023-06-16T05:55:47.000+02:00</time>
      </trkpt>
      <trkpt lat="42.73568" lon="-6.29218">
        <ele>1151.5</ele>
        <time>2023-06-16T05:55:59.000+02:00</time>
      </trkpt>
      <trkpt lat="42.73652" lon="-6.29236">
        <ele>1152.2</ele>
        <time>2023-06-16T05:56:12.000+02:00</time>
      </trkpt>
      <trkpt lat="42.73693" lon="-6.29195">
        <ele>1147.9</ele>
        <time>2023-06-16T05:56:20.000+02:00</time>
      </trkpt>
      <trkpt lat="42.73717" lon="-6.29216">
        <ele>1148.9</ele>
        <time>2023-06-16T05:56:24.000+02:00</time>
      </trkpt>
      <trkpt lat="42.73797" lon="-6.29405">
        <ele>1150.9</ele>
        <time>2023-06-16T05:56:49.000+02:00</time>
      </trkpt>
      <trkpt lat="42.73705" lon="-6.29758">
        <ele>1157</ele>
        <time>2023-06-16T05:57:31.000+02:00</time>
      </trkpt>
      <trkpt lat="42.7362" lon="-6.29864">
        <ele>1162.3</ele>
        <time>2023-06-16T05:57:48.000+02:00</time>
      </trkpt>
      <trkpt lat="42.73685" lon="-6.29968">
        <ele>1165.5</ele>
        <time>2023-06-16T05:58:04.000+02:00</time>
      </trkpt>
      <trkpt lat="42.73678" lon="-6.30154">
        <ele>1177.6</ele>
        <time>2023-06-16T05:58:25.000+02:00</time>
      </trkpt>
      <trkpt lat="42.73729" lon="-6.30157">
        <ele>1172.6</ele>
        <time>2023-06-16T05:58:32.000+02:00</time>
      </trkpt>
      <trkpt lat="42.73759" lon="-6.30197">
        <ele>1180.4</ele>
        <time>2023-06-16T05:58:39.000+02:00</time>
      </trkpt>
      <trkpt lat="42.73787" lon="-6.3018">
        <ele>1181.6</ele>
        <time>2023-06-16T05:58:43.000+02:00</time>
      </trkpt>
      <trkpt lat="42.73814" lon="-6.301">
        <ele>1187.7</ele>
        <time>2023-06-16T05:58:53.000+02:00</time>
      </trkpt>
      <trkpt lat="42.73905" lon="-6.30112">
        <ele>1207.9</ele>
        <time>2023-06-16T05:59:07.000+02:00</time>
      </trkpt>
      <trkpt lat="42.73936" lon="-6.30078">
        <ele>1206.7</ele>
        <time>2023-06-16T05:59:13.000+02:00</time>
      </trkpt>
      <trkpt lat="42.73993" lon="-6.30132">
        <ele>1219.7</ele>
        <time>2023-06-16T05:59:24.000+02:00</time>
      </trkpt>
      <trkpt lat="42.74067" lon="-6.30321">
        <ele>1243.1</ele>
        <time>2023-06-16T05:59:48.000+02:00</time>
      </trkpt>
      <trkpt lat="42.74036" lon="-6.30639">
        <ele>1272.5</ele>
        <time>2023-06-16T06:00:24.000+02:00</time>
      </trkpt>
      <trkpt lat="42.74059" lon="-6.30746">
        <ele>1278.6</ele>
        <time>2023-06-16T06:00:37.000+02:00</time>
      </trkpt>
      <trkpt lat="42.74258" lon="-6.30844">
        <ele>1284.6</ele>
        <time>2023-06-16T06:01:09.000+02:00</time>
      </trkpt>
      <trkpt lat="42.74243" lon="-6.30777">
        <ele>1271.9</ele>
        <time>2023-06-16T06:01:17.000+02:00</time>
      </trkpt>
      <trkpt lat="42.74318" lon="-6.30822">
        <ele>1259.1</ele>
        <time>2023-06-16T06:01:29.000+02:00</time>
      </trkpt>
      <trkpt lat="42.74357" lon="-6.30957">
        <ele>1244.6</ele>
        <time>2023-06-16T06:01:45.000+02:00</time>
      </trkpt>
      <trkpt lat="42.74462" lon="-6.30997">
        <ele>1232.8</ele>
        <time>2023-06-16T06:02:02.000+02:00</time>
      </trkpt>
      <trkpt lat="42.74558" lon="-6.31176">
        <ele>1207.5</ele>
        <time>2023-06-16T06:02:27.000+02:00</time>
      </trkpt>
      <trkpt lat="42.74507" lon="-6.3132">
        <ele>1217.8</ele>
        <time>2023-06-16T06:02:45.000+02:00</time>
      </trkpt>
      <trkpt lat="42.74696" lon="-6.31422">
        <ele>1236.9</ele>
        <time>2023-06-16T06:03:16.000+02:00</time>
      </trkpt>
      <trkpt lat="42.74624" lon="-6.31726">
        <ele>1272.2</ele>
        <time>2023-06-16T06:03:52.000+02:00</time>
      </trkpt>
      <trkpt lat="42.74736" lon="-6.31776">
        <ele>1286.5</ele>
        <time>2023-06-16T06:04:10.000+02:00</time>
      </trkpt>
      <trkpt lat="42.74781" lon="-6.31919">
        <ele>1312.8</ele>
        <time>2023-06-16T06:04:27.000+02:00</time>
      </trkpt>
      <trkpt lat="42.74809" lon="-6.31947">
        <ele>1317.8</ele>
        <time>2023-06-16T06:04:33.000+02:00</time>
      </trkpt>
      <trkpt lat="42.74859" lon="-6.31939">
        <ele>1325.8</ele>
        <time>2023-06-16T06:04:40.000+02:00</time>
      </trkpt>
      <trkpt lat="42.74885" lon="-6.3198">
        <ele>1333.4</ele>
        <time>2023-06-16T06:04:46.000+02:00</time>
      </trkpt>
      <trkpt lat="42.74883" lon="-6.32101">
        <ele>1352.2</ele>
        <time>2023-06-16T06:05:00.000+02:00</time>
      </trkpt>
      <trkpt lat="42.74774" lon="-6.32399">
        <ele>1361.8</ele>
        <time>2023-06-16T06:05:37.000+02:00</time>
      </trkpt>
      <trkpt lat="42.74856" lon="-6.3247">
        <ele>1358.5</ele>
        <time>2023-06-16T06:05:52.000+02:00</time>
      </trkpt>
      <trkpt lat="42.74969" lon="-6.32491">
        <ele>1351.7</ele>
        <time>2023-06-16T06:06:09.000+02:00</time>
      </trkpt>
      <trkpt lat="42.75007" lon="-6.32557">
        <ele>1344.8</ele>
        <time>2023-06-16T06:06:19.000+02:00</time>
      </trkpt>
      <trkpt lat="42.74964" lon="-6.32873">
        <ele>1336.5</ele>
        <time>2023-06-16T06:06:55.000+02:00</time>
      </trkpt>
      <trkpt lat="42.75199" lon="-6.32893">
        <ele>1335.5</ele>
        <time>2023-06-16T06:07:31.000+02:00</time>
      </trkpt>
      <trkpt lat="42.753" lon="-6.32961">
        <ele>1342</ele>
        <time>2023-06-16T06:07:48.000+02:00</time>
      </trkpt>
      <trkpt lat="42.75162" lon="-6.33233">
        <ele>1372</ele>
        <time>2023-06-16T06:08:25.000+02:00</time>
      </trkpt>
      <trkpt lat="42.75115" lon="-6.33383">
        <ele>1390</ele>
        <time>2023-06-16T06:08:43.000+02:00</time>
      </trkpt>
      <trkpt lat="42.75031" lon="-6.33478">
        <ele>1401</ele>
        <time>2023-06-16T06:09:00.000+02:00</time>
      </trkpt>
      <trkpt lat="42.75029" lon="-6.33556">
        <ele>1403.5</ele>
        <time>2023-06-16T06:09:09.000+02:00</time>
      </trkpt>
      <trkpt lat="42.7494" lon="-6.33877">
        <ele>1418</ele>
        <time>2023-06-16T06:09:47.000+02:00</time>
      </trkpt>
      <trkpt lat="42.74959" lon="-6.33919">
        <ele>1421.3</ele>
        <time>2023-06-16T06:09:53.000+02:00</time>
      </trkpt>
      <trkpt lat="42.75006" lon="-6.33937">
        <ele>1417.7</ele>
        <time>2023-06-16T06:10:00.000+02:00</time>
      </trkpt>
      <trkpt lat="42.75009" lon="-6.3399">
        <ele>1423.4</ele>
        <time>2023-06-16T06:10:06.000+02:00</time>
      </trkpt>
      <trkpt lat="42.75031" lon="-6.34005">
        <ele>1427</ele>
        <time>2023-06-16T06:10:10.000+02:00</time>
      </trkpt>
      <trkpt lat="42.75113" lon="-6.33998">
        <ele>1431</ele>
        <time>2023-06-16T06:10:22.000+02:00</time>
      </trkpt>
      <trkpt lat="42.75211" lon="-6.33945">
        <ele>1427.2</ele>
        <time>2023-06-16T06:10:39.000+02:00</time>
      </trkpt>
      <trkpt lat="42.75283" lon="-6.34058">
        <ele>1433.8</ele>
        <time>2023-06-16T06:10:55.000+02:00</time>
      </trkpt>
      <trkpt lat="42.75298" lon="-6.34214">
        <ele>1433.6</ele>
        <time>2023-06-16T06:11:13.000+02:00</time>
      </trkpt>
      <trkpt lat="42.75227" lon="-6.34426">
        <ele>1436.7</ele>
        <time>2023-06-16T06:11:39.000+02:00</time>
      </trkpt>
      <trkpt lat="42.75239" lon="-6.34447">
        <ele>1436.6</ele>
        <time>2023-06-16T06:11:42.000+02:00</time>
      </trkpt>
      <trkpt lat="42.75427" lon="-6.34444">
        <ele>1417.7</ele>
        <time>2023-06-16T06:12:11.000+02:00</time>
      </trkpt>
      <trkpt lat="42.75462" lon="-6.34419">
        <ele>1411.5</ele>
        <time>2023-06-16T06:12:17.000+02:00</time>
      </trkpt>
      <trkpt lat="42.75489" lon="-6.34448">
        <ele>1412.5</ele>
        <time>2023-06-16T06:12:22.000+02:00</time>
      </trkpt>
      <trkpt lat="42.755" lon="-6.34519">
        <ele>1414</ele>
        <time>2023-06-16T06:12:30.000+02:00</time>
      </trkpt>
      <trkpt lat="42.75483" lon="-6.34604">
        <ele>1416</ele>
        <time>2023-06-16T06:12:40.000+02:00</time>
      </trkpt>
      <trkpt lat="42.75391" lon="-6.34884">
        <ele>1418.8</ele>
        <time>2023-06-16T06:13:15.000+02:00</time>
      </trkpt>
      <trkpt lat="42.75481" lon="-6.35081">
        <ele>1434.9</ele>
        <time>2023-06-16T06:13:41.000+02:00</time>
      </trkpt>
      <trkpt lat="42.75483" lon="-6.3513">
        <ele>1438.1</ele>
        <time>2023-06-16T06:13:46.000+02:00</time>
      </trkpt>
      <trkpt lat="42.7542" lon="-6.3522">
        <ele>1444.4</ele>
        <time>2023-06-16T06:14:00.000+02:00</time>
      </trkpt>
      <trkpt lat="42.75295" lon="-6.35237">
        <ele>1461</ele>
        <time>2023-06-16T06:14:19.000+02:00</time>
      </trkpt>
      <trkpt lat="42.75116" lon="-6.35329">
        <ele>1496.8</ele>
        <time>2023-06-16T06:14:49.000+02:00</time>
      </trkpt>
      <trkpt lat="42.75061" lon="-6.35409">
        <ele>1510</ele>
        <time>2023-06-16T06:15:01.000+02:00</time>
      </trkpt>
      <trkpt lat="42.75063" lon="-6.35364">
        <ele>1513.9</ele>
        <time>2023-06-16T06:15:06.000+02:00</time>
      </trkpt>
      <trkpt lat="42.7517" lon="-6.3519">
        <ele>1533.9</ele>
        <time>2023-06-16T06:15:31.000+02:00</time>
      </trkpt>
      <trkpt lat="42.75189" lon="-6.35117">
        <ele>1542.8</ele>
        <time>2023-06-16T06:15:40.000+02:00</time>
      </trkpt>
      <trkpt lat="42.75213" lon="-6.34936">
        <ele>1549.4</ele>
        <time>2023-06-16T06:16:01.000+02:00</time>
      </trkpt>
      <trkpt lat="42.75198" lon="-6.34842">
        <ele>1548</ele>
        <time>2023-06-16T06:16:12.000+02:00</time>
      </trkpt>
      <trkpt lat="42.75085" lon="-6.34821">
        <ele>1564.3</ele>
        <time>2023-06-16T06:16:29.000+02:00</time>
      </trkpt>
      <trkpt lat="42.75035" lon="-6.34775">
        <ele>1574.9</ele>
        <time>2023-06-16T06:16:38.000+02:00</time>
      </trkpt>
      <trkpt lat="42.74954" lon="-6.34636">
        <ele>1588.4</ele>
        <time>2023-06-16T06:16:58.000+02:00</time>
      </trkpt>
      <trkpt lat="42.74959" lon="-6.34555">
        <ele>1594.1</ele>
        <time>2023-06-16T06:17:07.000+02:00</time>
      </trkpt>
      <trkpt lat="42.74925" lon="-6.34409">
        <ele>1604.4</ele>
        <time>2023-06-16T06:17:24.000+02:00</time>
      </trkpt>
      <trkpt lat="42.74816" lon="-6.34499">
        <ele>1610.6</ele>
        <time>2023-06-16T06:17:44.000+02:00</time>
      </trkpt>
      <trkpt lat="42.74734" lon="-6.34441">
        <ele>1609</ele>
        <time>2023-06-16T06:17:58.000+02:00</time>
      </trkpt>
      <trkpt lat="42.74692" lon="-6.34349">
        <ele>1612</ele>
        <time>2023-06-16T06:18:10.000+02:00</time>
      </trkpt>
      <trkpt lat="42.74601" lon="-6.33957">
        <ele>1600.7</ele>
        <time>2023-06-16T06:18:56.000+02:00</time>
      </trkpt>
      <trkpt lat="42.74491" lon="-6.34046">
        <ele>1613.7</ele>
        <time>2023-06-16T06:19:16.000+02:00</time>
      </trkpt>
      <trkpt lat="42.74398" lon="-6.34177">
        <ele>1627.5</ele>
        <time>2023-06-16T06:19:36.000+02:00</time>
      </trkpt>
      <trkpt lat="42.74375" lon="-6.34257">
        <ele>1634.3</ele>
        <time>2023-06-16T06:19:46.000+02:00</time>
      </trkpt>
      <trkpt lat="42.74483" lon="-6.34252">
        <ele>1646.7</ele>
        <time>2023-06-16T06:20:03.000+02:00</time>
      </trkpt>
      <trkpt lat="42.74548" lon="-6.34315">
        <ele>1655.4</ele>
        <time>2023-06-16T06:20:15.000+02:00</time>
      </trkpt>
      <trkpt lat="42.74618" lon="-6.34577">
        <ele>1677.6</ele>
        <time>2023-06-16T06:20:46.000+02:00</time>
      </trkpt>
      <trkpt lat="42.74631" lon="-6.3481">
        <ele>1697.3</ele>
        <time>2023-06-16T06:21:12.000+02:00</time>
      </trkpt>
      <trkpt lat="42.74533" lon="-6.34968">
        <ele>1713.5</ele>
        <time>2023-06-16T06:21:35.000+02:00</time>
      </trkpt>
      <trkpt lat="42.74395" lon="-6.35013">
        <ele>1721.3</ele>
        <time>2023-06-16T06:21:57.000+02:00</time>
      </trkpt>
      <trkpt lat="42.74326" lon="-6.35095">
        <ele>1722.3</ele>
        <time>2023-06-16T06:22:11.000+02:00</time>
      </trkpt>
      <trkpt lat="42.74291" lon="-6.35259">
        <ele>1729.3</ele>
        <time>2023-06-16T06:22:30.000+02:00</time>
      </trkpt>
      <trkpt lat="42.74238" lon="-6.35347">
        <ele>1734.9</ele>
        <time>2023-06-16T06:22:43.000+02:00</time>
      </trkpt>
      <trkpt lat="42.74247" lon="-6.3558">
        <ele>1746.5</ele>
        <time>2023-06-16T06:23:09.000+02:00</time>
      </trkpt>
      <trkpt lat="42.74208" lon="-6.3573">
        <ele>1741.9</ele>
        <time>2023-06-16T06:23:27.000+02:00</time>
      </trkpt>
      <trkpt lat="42.74235" lon="-6.35854">
        <ele>1732.6</ele>
        <time>2023-06-16T06:23:42.000+02:00</time>
      </trkpt>
      <trkpt lat="42.74333" lon="-6.36017">
        <ele>1718.2</ele>
        <time>2023-06-16T06:24:05.000+02:00</time>
      </trkpt>
      <trkpt lat="42.74347" lon="-6.36082">
        <ele>1713.6</ele>
        <time>2023-06-16T06:24:13.000+02:00</time>
      </trkpt>
      <trkpt lat="42.74323" lon="-6.36297">
        <ele>1717.3</ele>
        <time>2023-06-16T06:24:37.000+02:00</time>
      </trkpt>
      <trkpt lat="42.7438" lon="-6.36484">
        <ele>1727.4</ele>
        <time>2023-06-16T06:25:00.000+02:00</time>
      </trkpt>
      <trkpt lat="42.74348" lon="-6.3681">
        <ele>1718.4</ele>
        <time>2023-06-16T06:25:37.000+02:00</time>
      </trkpt>
      <trkpt lat="42.74381" lon="-6.36887">
        <ele>1715.7</ele>
        <time>2023-06-16T06:25:47.000+02:00</time>
      </trkpt>
      <trkpt lat="42.74562" lon="-6.37082">
        <ele>1701.7</ele>
        <time>2023-06-16T06:26:22.000+02:00</time>
      </trkpt>
      <trkpt lat="42.74658" lon="-6.37237">
        <ele>1688.6</ele>
        <time>2023-06-16T06:26:45.000+02:00</time>
      </trkpt>
      <trkpt lat="42.74861" lon="-6.3728">
        <ele>1670.8</ele>
        <time>2023-06-16T06:27:16.000+02:00</time>
      </trkpt>
      <trkpt lat="42.7517" lon="-6.37553">
        <ele>1638.2</ele>
        <time>2023-06-16T06:28:13.000+02:00</time>
      </trkpt>
      <trkpt lat="42.7522" lon="-6.37568">
        <ele>1634.7</ele>
        <time>2023-06-16T06:28:20.000+02:00</time>
      </trkpt>
      <trkpt lat="42.75431" lon="-6.37901">
        <ele>1635.8</ele>
        <time>2023-06-16T06:29:10.000+02:00</time>
      </trkpt>
      <trkpt lat="42.75504" lon="-6.38069">
        <ele>1634.4</ele>
        <time>2023-06-16T06:29:32.000+02:00</time>
      </trkpt>
      <trkpt lat="42.75648" lon="-6.38227">
        <ele>1643.4</ele>
        <time>2023-06-16T06:30:00.000+02:00</time>
      </trkpt>
      <trkpt lat="42.75728" lon="-6.3844">
        <ele>1660.5</ele>
        <time>2023-06-16T06:30:27.000+02:00</time>
      </trkpt>
      <trkpt lat="42.75737" lon="-6.38766">
        <ele>1681.3</ele>
        <time>2023-06-16T06:31:03.000+02:00</time>
      </trkpt>
      <trkpt lat="42.7578" lon="-6.39035">
        <ele>1697</ele>
        <time>2023-06-16T06:31:34.000+02:00</time>
      </trkpt>
      <trkpt lat="42.757" lon="-6.39081">
        <ele>1699.3</ele>
        <time>2023-06-16T06:31:47.000+02:00</time>
      </trkpt>
      <trkpt lat="42.75629" lon="-6.39218">
        <ele>1707.4</ele>
        <time>2023-06-16T06:32:06.000+02:00</time>
      </trkpt>
      <trkpt lat="42.75761" lon="-6.39368">
        <ele>1724.1</ele>
        <time>2023-06-16T06:32:33.000+02:00</time>
      </trkpt>
      <trkpt lat="42.7581" lon="-6.39507">
        <ele>1733.1</ele>
        <time>2023-06-16T06:32:50.000+02:00</time>
      </trkpt>
      <trkpt lat="42.75897" lon="-6.39591">
        <ele>1739.2</ele>
        <time>2023-06-16T06:33:06.000+02:00</time>
      </trkpt>
      <trkpt lat="42.75941" lon="-6.3982">
        <ele>1741.1</ele>
        <time>2023-06-16T06:33:33.000+02:00</time>
      </trkpt>
      <trkpt lat="42.7591" lon="-6.40006">
        <ele>1743.6</ele>
        <time>2023-06-16T06:33:54.000+02:00</time>
      </trkpt>
      <trkpt lat="42.75873" lon="-6.40076">
        <ele>1746.9</ele>
        <time>2023-06-16T06:34:04.000+02:00</time>
      </trkpt>
      <trkpt lat="42.75602" lon="-6.40214">
        <ele>1738.1</ele>
        <time>2023-06-16T06:34:48.000+02:00</time>
      </trkpt>
      <trkpt lat="42.75557" lon="-6.40355">
        <ele>1738.3</ele>
        <time>2023-06-16T06:35:05.000+02:00</time>
      </trkpt>
      <trkpt lat="42.75584" lon="-6.40435">
        <ele>1737.1</ele>
        <time>2023-06-16T06:35:15.000+02:00</time>
      </trkpt>
      <trkpt lat="42.75715" lon="-6.40554">
        <ele>1739.2</ele>
        <time>2023-06-16T06:35:39.000+02:00</time>
      </trkpt>
      <trkpt lat="42.7574" lon="-6.40628">
        <ele>1740.8</ele>
        <time>2023-06-16T06:35:48.000+02:00</time>
      </trkpt>
      <trkpt lat="42.75818" lon="-6.40703">
        <ele>1744.9</ele>
        <time>2023-06-16T06:36:03.000+02:00</time>
      </trkpt>
      <trkpt lat="42.75865" lon="-6.40694">
        <ele>1745.4</ele>
        <time>2023-06-16T06:36:10.000+02:00</time>
      </trkpt>
      <trkpt lat="42.75956" lon="-6.40561">
        <ele>1749.5</ele>
        <time>2023-06-16T06:36:31.000+02:00</time>
      </trkpt>
      <trkpt lat="42.76018" lon="-6.40548">
        <ele>1748.9</ele>
        <time>2023-06-16T06:36:40.000+02:00</time>
      </trkpt>
      <trkpt lat="42.76179" lon="-6.40426">
        <ele>1758.4</ele>
        <time>2023-06-16T06:37:08.000+02:00</time>
      </trkpt>
      <trkpt lat="42.76327" lon="-6.40573">
        <ele>1763.2</ele>
        <time>2023-06-16T06:37:36.000+02:00</time>
      </trkpt>
      <trkpt lat="42.76499" lon="-6.40596">
        <ele>1775.8</ele>
        <time>2023-06-16T06:38:03.000+02:00</time>
      </trkpt>
      <trkpt lat="42.76601" lon="-6.40538">
        <ele>1774.5</ele>
        <time>2023-06-16T06:38:19.000+02:00</time>
      </trkpt>
      <trkpt lat="42.76673" lon="-6.40562">
        <ele>1772.3</ele>
        <time>2023-06-16T06:38:31.000+02:00</time>
      </trkpt>
      <trkpt lat="42.76701" lon="-6.40594">
        <ele>1774.9</ele>
        <time>2023-06-16T06:38:36.000+02:00</time>
      </trkpt>
      <trkpt lat="42.76708" lon="-6.40723">
        <ele>1783.4</ele>
        <time>2023-06-16T06:38:51.000+02:00</time>
      </trkpt>
      <trkpt lat="42.76648" lon="-6.40984">
        <ele>1799.3</ele>
        <time>2023-06-16T06:39:22.000+02:00</time>
      </trkpt>
      <trkpt lat="42.7667" lon="-6.41109">
        <ele>1807.9</ele>
        <time>2023-06-16T06:39:36.000+02:00</time>
      </trkpt>
      <trkpt lat="42.76712" lon="-6.41137">
        <ele>1809.3</ele>
        <time>2023-06-16T06:39:43.000+02:00</time>
      </trkpt>
      <trkpt lat="42.76794" lon="-6.40966">
        <ele>1809.1</ele>
        <time>2023-06-16T06:40:06.000+02:00</time>
      </trkpt>
      <trkpt lat="42.76849" lon="-6.40955">
        <ele>1809</ele>
        <time>2023-06-16T06:40:15.000+02:00</time>
      </trkpt>
      <trkpt lat="42.76933" lon="-6.41085">
        <ele>1806.9</ele>
        <time>2023-06-16T06:40:34.000+02:00</time>
      </trkpt>
      <trkpt lat="42.77032" lon="-6.41396">
        <ele>1800.6</ele>
        <time>2023-06-16T06:41:12.000+02:00</time>
      </trkpt>
      <trkpt lat="42.77106" lon="-6.41466">
        <ele>1797.6</ele>
        <time>2023-06-16T06:41:26.000+02:00</time>
      </trkpt>
      <trkpt lat="42.77143" lon="-6.41365">
        <ele>1799.4</ele>
        <time>2023-06-16T06:41:38.000+02:00</time>
      </trkpt>
      <trkpt lat="42.77273" lon="-6.41166">
        <ele>1791.8</ele>
        <time>2023-06-16T06:42:08.000+02:00</time>
      </trkpt>
      <trkpt lat="42.77412" lon="-6.41021">
        <ele>1783.5</ele>
        <time>2023-06-16T06:42:35.000+02:00</time>
      </trkpt>
      <trkpt lat="42.77473" lon="-6.40818">
        <ele>1779</ele>
        <time>2023-06-16T06:43:00.000+02:00</time>
      </trkpt>
      <trkpt lat="42.77474" lon="-6.4074">
        <ele>1774.7</ele>
        <time>2023-06-16T06:43:08.000+02:00</time>
      </trkpt>
      <trkpt lat="42.77507" lon="-6.4068">
        <ele>1767.9</ele>
        <time>2023-06-16T06:43:17.000+02:00</time>
      </trkpt>
      <trkpt lat="42.77553" lon="-6.40634">
        <ele>1763.8</ele>
        <time>2023-06-16T06:43:25.000+02:00</time>
      </trkpt>
      <trkpt lat="42.77634" lon="-6.40624">
        <ele>1762.9</ele>
        <time>2023-06-16T06:43:38.000+02:00</time>
      </trkpt>
      <trkpt lat="42.77778" lon="-6.40688">
        <ele>1758.7</ele>
        <time>2023-06-16T06:44:01.000+02:00</time>
      </trkpt>
      <trkpt lat="42.77893" lon="-6.40631">
        <ele>1747.4</ele>
        <time>2023-06-16T06:44:20.000+02:00</time>
      </trkpt>
      <trkpt lat="42.78031" lon="-6.40406">
        <ele>1731.1</ele>
        <time>2023-06-16T06:44:53.000+02:00</time>
      </trkpt>
      <trkpt lat="42.78129" lon="-6.40352">
        <ele>1718.1</ele>
        <time>2023-06-16T06:45:09.000+02:00</time>
      </trkpt>
      <trkpt lat="42.78063" lon="-6.40113">
        <ele>1703.5</ele>
        <time>2023-06-16T06:45:37.000+02:00</time>
      </trkpt>
      <trkpt lat="42.7808" lon="-6.39806">
        <ele>1690</ele>
        <time>2023-06-16T06:46:12.000+02:00</time>
      </trkpt>
      <trkpt lat="42.78164" lon="-6.3971">
        <ele>1689.7</ele>
        <time>2023-06-16T06:46:29.000+02:00</time>
      </trkpt>
      <trkpt lat="42.78244" lon="-6.39431">
        <ele>1688.2</ele>
        <time>2023-06-16T06:47:02.000+02:00</time>
      </trkpt>
      <trkpt lat="42.78408" lon="-6.39139">
        <ele>1683.7</ele>
        <time>2023-06-16T06:47:43.000+02:00</time>
      </trkpt>
      <trkpt lat="42.78456" lon="-6.38905">
        <ele>1680.6</ele>
        <time>2023-06-16T06:48:11.000+02:00</time>
      </trkpt>
      <trkpt lat="42.78588" lon="-6.38762">
        <ele>1677.7</ele>
        <time>2023-06-16T06:48:36.000+02:00</time>
      </trkpt>
      <trkpt lat="42.78659" lon="-6.38616">
        <ele>1675.3</ele>
        <time>2023-06-16T06:48:56.000+02:00</time>
      </trkpt>
      <trkpt lat="42.78668" lon="-6.385">
        <ele>1674.5</ele>
        <time>2023-06-16T06:49:09.000+02:00</time>
      </trkpt>
      <trkpt lat="42.78601" lon="-6.38178">
        <ele>1664.4</ele>
        <time>2023-06-16T06:49:47.000+02:00</time>
      </trkpt>
      <trkpt lat="42.78608" lon="-6.38132">
        <ele>1666.1</ele>
        <time>2023-06-16T06:49:52.000+02:00</time>
      </trkpt>
      <trkpt lat="42.78699" lon="-6.38021">
        <ele>1672.1</ele>
        <time>2023-06-16T06:50:11.000+02:00</time>
      </trkpt>
      <trkpt lat="42.78863" lon="-6.376">
        <ele>1692.5</ele>
        <time>2023-06-16T06:51:04.000+02:00</time>
      </trkpt>
      <trkpt lat="42.78972" lon="-6.37574">
        <ele>1690.4</ele>
        <time>2023-06-16T06:51:21.000+02:00</time>
      </trkpt>
      <trkpt lat="42.79054" lon="-6.37466">
        <ele>1691.3</ele>
        <time>2023-06-16T06:51:38.000+02:00</time>
      </trkpt>
      <trkpt lat="42.79133" lon="-6.37505">
        <ele>1691.7</ele>
        <time>2023-06-16T06:51:51.000+02:00</time>
      </trkpt>
      <trkpt lat="42.79181" lon="-6.37779">
        <ele>1694.4</ele>
        <time>2023-06-16T06:52:23.000+02:00</time>
      </trkpt>
      <trkpt lat="42.79176" lon="-6.37878">
        <ele>1693.4</ele>
        <time>2023-06-16T06:52:34.000+02:00</time>
      </trkpt>
      <trkpt lat="42.79226" lon="-6.3798">
        <ele>1694.4</ele>
        <time>2023-06-16T06:52:48.000+02:00</time>
      </trkpt>
      <trkpt lat="42.79477" lon="-6.38191">
        <ele>1699.5</ele>
        <time>2023-06-16T06:53:33.000+02:00</time>
      </trkpt>
      <trkpt lat="42.79754" lon="-6.38537">
        <ele>1707.2</ele>
        <time>2023-06-16T06:54:30.000+02:00</time>
      </trkpt>
      <trkpt lat="42.79771" lon="-6.38638">
        <ele>1706.2</ele>
        <time>2023-06-16T06:54:42.000+02:00</time>
      </trkpt>
      <trkpt lat="42.79745" lon="-6.38885">
        <ele>1694</ele>
        <time>2023-06-16T06:55:10.000+02:00</time>
      </trkpt>
      <trkpt lat="42.79837" lon="-6.39187">
        <ele>1684.6</ele>
        <time>2023-06-16T06:55:46.000+02:00</time>
      </trkpt>
      <trkpt lat="42.79852" lon="-6.39305">
        <ele>1686.8</ele>
        <time>2023-06-16T06:56:00.000+02:00</time>
      </trkpt>
      <trkpt lat="42.79899" lon="-6.39367">
        <ele>1683.1</ele>
        <time>2023-06-16T06:56:10.000+02:00</time>
      </trkpt>
      <trkpt lat="42.80112" lon="-6.39465">
        <ele>1674.3</ele>
        <time>2023-06-16T06:56:44.000+02:00</time>
      </trkpt>
      <trkpt lat="42.80161" lon="-6.39534">
        <ele>1670.9</ele>
        <time>2023-06-16T06:56:55.000+02:00</time>
      </trkpt>
      <trkpt lat="42.80172" lon="-6.39709">
        <ele>1663.5</ele>
        <time>2023-06-16T06:57:15.000+02:00</time>
      </trkpt>
      <trkpt lat="42.80079" lon="-6.39928">
        <ele>1655.9</ele>
        <time>2023-06-16T06:57:43.000+02:00</time>
      </trkpt>
      <trkpt lat="42.80071" lon="-6.40036">
        <ele>1653.8</ele>
        <time>2023-06-16T06:57:55.000+02:00</time>
      </trkpt>
      <trkpt lat="42.80186" lon="-6.40358">
        <ele>1636.9</ele>
        <time>2023-06-16T06:58:35.000+02:00</time>
      </trkpt>
      <trkpt lat="42.80193" lon="-6.40569">
        <ele>1625.9</ele>
        <time>2023-06-16T06:58:59.000+02:00</time>
      </trkpt>
      <trkpt lat="42.80287" lon="-6.40684">
        <ele>1617.1</ele>
        <time>2023-06-16T06:59:18.000+02:00</time>
      </trkpt>
      <trkpt lat="42.80324" lon="-6.40809">
        <ele>1609.4</ele>
        <time>2023-06-16T06:59:33.000+02:00</time>
      </trkpt>
      <trkpt lat="42.80342" lon="-6.41017">
        <ele>1603.5</ele>
        <time>2023-06-16T06:59:57.000+02:00</time>
      </trkpt>
      <trkpt lat="42.80434" lon="-6.41194">
        <ele>1596.7</ele>
        <time>2023-06-16T07:00:21.000+02:00</time>
      </trkpt>
      <trkpt lat="42.80441" lon="-6.41314">
        <ele>1591.8</ele>
        <time>2023-06-16T07:00:35.000+02:00</time>
      </trkpt>
      <trkpt lat="42.80407" lon="-6.41534">
        <ele>1583.4</ele>
        <time>2023-06-16T07:01:00.000+02:00</time>
      </trkpt>
      <trkpt lat="42.80444" lon="-6.41758">
        <ele>1577.3</ele>
        <time>2023-06-16T07:01:26.000+02:00</time>
      </trkpt>
      <trkpt lat="42.80435" lon="-6.42042">
        <ele>1572.2</ele>
        <time>2023-06-16T07:01:58.000+02:00</time>
      </trkpt>
      <trkpt lat="42.80481" lon="-6.42306">
        <ele>1568</ele>
        <time>2023-06-16T07:02:28.000+02:00</time>
      </trkpt>
      <trkpt lat="42.80462" lon="-6.42479">
        <ele>1563.1</ele>
        <time>2023-06-16T07:02:48.000+02:00</time>
      </trkpt>
      <trkpt lat="42.80416" lon="-6.42568">
        <ele>1561</ele>
        <time>2023-06-16T07:03:00.000+02:00</time>
      </trkpt>
      <trkpt lat="42.80474" lon="-6.42722">
        <ele>1560.7</ele>
        <time>2023-06-16T07:03:19.000+02:00</time>
      </trkpt>
      <trkpt lat="42.80565" lon="-6.42858">
        <ele>1556.5</ele>
        <time>2023-06-16T07:03:40.000+02:00</time>
      </trkpt>
      <trkpt lat="42.80423" lon="-6.43228">
        <ele>1543.3</ele>
        <time>2023-06-16T07:04:27.000+02:00</time>
      </trkpt>
      <trkpt lat="42.80457" lon="-6.43364">
        <ele>1541.4</ele>
        <time>2023-06-16T07:04:43.000+02:00</time>
      </trkpt>
      <trkpt lat="42.80342" lon="-6.43483">
        <ele>1533.2</ele>
        <time>2023-06-16T07:05:05.000+02:00</time>
      </trkpt>
      <trkpt lat="42.80347" lon="-6.4353">
        <ele>1532.1</ele>
        <time>2023-06-16T07:05:10.000+02:00</time>
      </trkpt>
      <trkpt lat="42.80316" lon="-6.43576">
        <ele>1528.6</ele>
        <time>2023-06-16T07:05:17.000+02:00</time>
      </trkpt>
      <trkpt lat="42.80285" lon="-6.43723">
        <ele>1526.7</ele>
        <time>2023-06-16T07:05:34.000+02:00</time>
      </trkpt>
      <trkpt lat="42.8024" lon="-6.44123">
        <ele>1506</ele>
        <time>2023-06-16T07:06:20.000+02:00</time>
      </trkpt>
      <trkpt lat="42.80279" lon="-6.4448">
        <ele>1482.2</ele>
        <time>2023-06-16T07:07:00.000+02:00</time>
      </trkpt>
      <trkpt lat="42.80183" lon="-6.44802">
        <ele>1461.2</ele>
        <time>2023-06-16T07:07:39.000+02:00</time>
      </trkpt>
      <trkpt lat="42.80087" lon="-6.4483">
        <ele>1457.1</ele>
        <time>2023-06-16T07:07:54.000+02:00</time>
      </trkpt>
      <trkpt lat="42.7994" lon="-6.44814">
        <ele>1452.7</ele>
        <time>2023-06-16T07:08:17.000+02:00</time>
      </trkpt>
      <trkpt lat="42.79897" lon="-6.44887">
        <ele>1450.5</ele>
        <time>2023-06-16T07:08:27.000+02:00</time>
      </trkpt>
      <trkpt lat="42.79874" lon="-6.451">
        <ele>1433.3</ele>
        <time>2023-06-16T07:08:51.000+02:00</time>
      </trkpt>
      <trkpt lat="42.79822" lon="-6.45151">
        <ele>1427.3</ele>
        <time>2023-06-16T07:09:01.000+02:00</time>
      </trkpt>
      <trkpt lat="42.79802" lon="-6.45232">
        <ele>1418.2</ele>
        <time>2023-06-16T07:09:11.000+02:00</time>
      </trkpt>
      <trkpt lat="42.79826" lon="-6.45542">
        <ele>1394.1</ele>
        <time>2023-06-16T07:09:45.000+02:00</time>
      </trkpt>
      <trkpt lat="42.79772" lon="-6.45748">
        <ele>1373.7</ele>
        <time>2023-06-16T07:10:10.000+02:00</time>
      </trkpt>
      <trkpt lat="42.79888" lon="-6.45959">
        <ele>1348.1</ele>
        <time>2023-06-16T07:10:40.000+02:00</time>
      </trkpt>
      <trkpt lat="42.79907" lon="-6.46068">
        <ele>1336.5</ele>
        <time>2023-06-16T07:10:52.000+02:00</time>
      </trkpt>
      <trkpt lat="42.79888" lon="-6.46149">
        <ele>1329.9</ele>
        <time>2023-06-16T07:11:02.000+02:00</time>
      </trkpt>
      <trkpt lat="42.79846" lon="-6.46176">
        <ele>1327.5</ele>
        <time>2023-06-16T07:11:09.000+02:00</time>
      </trkpt>
      <trkpt lat="42.79869" lon="-6.46256">
        <ele>1315.9</ele>
        <time>2023-06-16T07:11:18.000+02:00</time>
      </trkpt>
      <trkpt lat="42.79866" lon="-6.46402">
        <ele>1304.7</ele>
        <time>2023-06-16T07:11:35.000+02:00</time>
      </trkpt>
      <trkpt lat="42.79931" lon="-6.46541">
        <ele>1287</ele>
        <time>2023-06-16T07:11:53.000+02:00</time>
      </trkpt>
      <trkpt lat="42.79929" lon="-6.46675">
        <ele>1278.4</ele>
        <time>2023-06-16T07:12:08.000+02:00</time>
      </trkpt>
      <trkpt lat="42.79974" lon="-6.46745">
        <ele>1269.2</ele>
        <time>2023-06-16T07:12:19.000+02:00</time>
      </trkpt>
      <trkpt lat="42.80016" lon="-6.46764">
        <ele>1263.2</ele>
        <time>2023-06-16T07:12:26.000+02:00</time>
      </trkpt>
      <trkpt lat="42.80098" lon="-6.46949">
        <ele>1245.4</ele>
        <time>2023-06-16T07:12:50.000+02:00</time>
      </trkpt>
      <trkpt lat="42.80063" lon="-6.47118">
        <ele>1230.8</ele>
        <time>2023-06-16T07:13:09.000+02:00</time>
      </trkpt>
      <trkpt lat="42.80086" lon="-6.47485">
        <ele>1200.3</ele>
        <time>2023-06-16T07:13:51.000+02:00</time>
      </trkpt>
      <trkpt lat="42.8006" lon="-6.47791">
        <ele>1171.7</ele>
        <time>2023-06-16T07:14:25.000+02:00</time>
      </trkpt>
      <trkpt lat="42.80094" lon="-6.47834">
        <ele>1169</ele>
        <time>2023-06-16T07:14:32.000+02:00</time>
      </trkpt>
      <trkpt lat="42.79986" lon="-6.47893">
        <ele>1156.1</ele>
        <time>2023-06-16T07:14:50.000+02:00</time>
      </trkpt>
      <trkpt lat="42.79975" lon="-6.48042">
        <ele>1134.1</ele>
        <time>2023-06-16T07:15:07.000+02:00</time>
      </trkpt>
      <trkpt lat="42.79887" lon="-6.48203">
        <ele>1113.2</ele>
        <time>2023-06-16T07:15:29.000+02:00</time>
      </trkpt>
      <trkpt lat="42.79904" lon="-6.48336">
        <ele>1106.1</ele>
        <time>2023-06-16T07:15:45.000+02:00</time>
      </trkpt>
      <trkpt lat="42.79848" lon="-6.48494">
        <ele>1094</ele>
        <time>2023-06-16T07:16:04.000+02:00</time>
      </trkpt>
      <trkpt lat="42.79883" lon="-6.48749">
        <ele>1086.6</ele>
        <time>2023-06-16T07:16:33.000+02:00</time>
      </trkpt>
      <trkpt lat="42.79823" lon="-6.48879">
        <ele>1070.6</ele>
        <time>2023-06-16T07:16:50.000+02:00</time>
      </trkpt>
      <trkpt lat="42.79809" lon="-6.49066">
        <ele>1063.4</ele>
        <time>2023-06-16T07:17:12.000+02:00</time>
      </trkpt>
      <trkpt lat="42.79636" lon="-6.4929">
        <ele>1043</ele>
        <time>2023-06-16T07:17:48.000+02:00</time>
      </trkpt>
      <trkpt lat="42.79516" lon="-6.49512">
        <ele>1024.9</ele>
        <time>2023-06-16T07:18:19.000+02:00</time>
      </trkpt>
      <trkpt lat="42.79501" lon="-6.49699">
        <ele>1013</ele>
        <time>2023-06-16T07:18:40.000+02:00</time>
      </trkpt>
      <trkpt lat="42.79454" lon="-6.49767">
        <ele>1011.2</ele>
        <time>2023-06-16T07:18:51.000+02:00</time>
      </trkpt>
      <trkpt lat="42.79301" lon="-6.49872">
        <ele>1003.6</ele>
        <time>2023-06-16T07:19:17.000+02:00</time>
      </trkpt>
      <trkpt lat="42.79178" lon="-6.50073">
        <ele>1001.4</ele>
        <time>2023-06-16T07:19:46.000+02:00</time>
      </trkpt>
      <trkpt lat="42.79183" lon="-6.50135">
        <ele>1001.1</ele>
        <time>2023-06-16T07:19:53.000+02:00</time>
      </trkpt>
      <trkpt lat="42.79106" lon="-6.50173">
        <ele>995.1</ele>
        <time>2023-06-16T07:20:05.000+02:00</time>
      </trkpt>
      <trkpt lat="42.79026" lon="-6.50348">
        <ele>979.7</ele>
        <time>2023-06-16T07:20:29.000+02:00</time>
      </trkpt>
      <trkpt lat="42.78868" lon="-6.50411">
        <ele>967.9</ele>
        <time>2023-06-16T07:20:54.000+02:00</time>
      </trkpt>
      <trkpt lat="42.78716" lon="-6.50566">
        <ele>966.4</ele>
        <time>2023-06-16T07:21:23.000+02:00</time>
      </trkpt>
      <trkpt lat="42.78687" lon="-6.5064">
        <ele>970.2</ele>
        <time>2023-06-16T07:21:32.000+02:00</time>
      </trkpt>
      <trkpt lat="42.78706" lon="-6.50766">
        <ele>960.2</ele>
        <time>2023-06-16T07:21:47.000+02:00</time>
      </trkpt>
      <trkpt lat="42.78625" lon="-6.50677">
        <ele>939.4</ele>
        <time>2023-06-16T07:22:03.000+02:00</time>
      </trkpt>
      <trkpt lat="42.78594" lon="-6.50622">
        <ele>931.7</ele>
        <time>2023-06-16T07:22:10.000+02:00</time>
      </trkpt>
      <trkpt lat="42.78599" lon="-6.50588">
        <ele>932.3</ele>
        <time>2023-06-16T07:22:14.000+02:00</time>
      </trkpt>
      <trkpt lat="42.78583" lon="-6.50592">
        <ele>930.7</ele>
        <time>2023-06-16T07:22:17.000+02:00</time>
      </trkpt>
      <trkpt lat="42.7856" lon="-6.50654">
        <ele>937.8</ele>
        <time>2023-06-16T07:22:25.000+02:00</time>
      </trkpt>
      <trkpt lat="42.78574" lon="-6.50796">
        <ele>950.1</ele>
        <time>2023-06-16T07:22:41.000+02:00</time>
      </trkpt>
      <trkpt lat="42.78525" lon="-6.50962">
        <ele>972.9</ele>
        <time>2023-06-16T07:23:01.000+02:00</time>
      </trkpt>
      <trkpt lat="42.78531" lon="-6.51053">
        <ele>975.2</ele>
        <time>2023-06-16T07:23:11.000+02:00</time>
      </trkpt>
      <trkpt lat="42.78439" lon="-6.5133">
        <ele>971.2</ele>
        <time>2023-06-16T07:23:45.000+02:00</time>
      </trkpt>
      <trkpt lat="42.78409" lon="-6.51326">
        <ele>968.7</ele>
        <time>2023-06-16T07:23:50.000+02:00</time>
      </trkpt>
      <trkpt lat="42.78346" lon="-6.51243">
        <ele>964.8</ele>
        <time>2023-06-16T07:24:03.000+02:00</time>
      </trkpt>
      <trkpt lat="42.78223" lon="-6.51196">
        <ele>948.8</ele>
        <time>2023-06-16T07:24:23.000+02:00</time>
      </trkpt>
      <trkpt lat="42.78123" lon="-6.51283">
        <ele>938.9</ele>
        <time>2023-06-16T07:24:41.000+02:00</time>
      </trkpt>
      <trkpt lat="42.78117" lon="-6.51341">
        <ele>930.3</ele>
        <time>2023-06-16T07:24:47.000+02:00</time>
      </trkpt>
      <trkpt lat="42.78099" lon="-6.51342">
        <ele>928.4</ele>
        <time>2023-06-16T07:24:50.000+02:00</time>
      </trkpt>
      <trkpt lat="42.78104" lon="-6.51396">
        <ele>923.3</ele>
        <time>2023-06-16T07:24:56.000+02:00</time>
      </trkpt>
      <trkpt lat="42.78019" lon="-6.51356">
        <ele>908.8</ele>
        <time>2023-06-16T07:25:10.000+02:00</time>
      </trkpt>
      <trkpt lat="42.78046" lon="-6.51438">
        <ele>898.9</ele>
        <time>2023-06-16T07:25:20.000+02:00</time>
      </trkpt>
      <trkpt lat="42.77957" lon="-6.51425">
        <ele>887.6</ele>
        <time>2023-06-16T07:25:34.000+02:00</time>
      </trkpt>
      <trkpt lat="42.77923" lon="-6.5138">
        <ele>886.9</ele>
        <time>2023-06-16T07:25:41.000+02:00</time>
      </trkpt>
      <trkpt lat="42.77937" lon="-6.51545">
        <ele>863</ele>
        <time>2023-06-16T07:25:59.000+02:00</time>
      </trkpt>
      <trkpt lat="42.7791" lon="-6.51589">
        <ele>865.3</ele>
        <time>2023-06-16T07:26:06.000+02:00</time>
      </trkpt>
      <trkpt lat="42.77905" lon="-6.51671">
        <ele>860</ele>
        <time>2023-06-16T07:26:15.000+02:00</time>
      </trkpt>
      <trkpt lat="42.77946" lon="-6.51689">
        <ele>843.6</ele>
        <time>2023-06-16T07:26:22.000+02:00</time>
      </trkpt>
      <trkpt lat="42.7795" lon="-6.51716">
        <ele>838.6</ele>
        <time>2023-06-16T07:26:25.000+02:00</time>
      </trkpt>
      <trkpt lat="42.7791" lon="-6.51955">
        <ele>820.8</ele>
        <time>2023-06-16T07:26:52.000+02:00</time>
      </trkpt>
      <trkpt lat="42.77922" lon="-6.52247">
        <ele>808.3</ele>
        <time>2023-06-16T07:27:25.000+02:00</time>
      </trkpt>
      <trkpt lat="42.77903" lon="-6.52328">
        <ele>802.8</ele>
        <time>2023-06-16T07:27:35.000+02:00</time>
      </trkpt>
      <trkpt lat="42.77678" lon="-6.52499">
        <ele>755.7</ele>
        <time>2023-06-16T07:28:14.000+02:00</time>
      </trkpt>
      <trkpt lat="42.77603" lon="-6.52513">
        <ele>748.1</ele>
        <time>2023-06-16T07:28:26.000+02:00</time>
      </trkpt>
      <trkpt lat="42.7744" lon="-6.52618">
        <ele>729.4</ele>
        <time>2023-06-16T07:28:53.000+02:00</time>
      </trkpt>
      <trkpt lat="42.77393" lon="-6.52701">
        <ele>723</ele>
        <time>2023-06-16T07:29:05.000+02:00</time>
      </trkpt>
      <trkpt lat="42.77471" lon="-6.52639">
        <ele>718.2</ele>
        <time>2023-06-16T07:29:19.000+02:00</time>
      </trkpt>
      <trkpt lat="42.77536" lon="-6.5263">
        <ele>716.5</ele>
        <time>2023-06-16T07:29:29.000+02:00</time>
      </trkpt>
      <trkpt lat="42.77534" lon="-6.52655">
        <ele>713.3</ele>
        <time>2023-06-16T07:29:32.000+02:00</time>
      </trkpt>
      <trkpt lat="42.77356" lon="-6.52739">
        <ele>722.6</ele>
        <time>2023-06-16T07:30:00.000+02:00</time>
      </trkpt>
      <trkpt lat="42.77203" lon="-6.52901">
        <ele>715.4</ele>
        <time>2023-06-16T07:30:30.000+02:00</time>
      </trkpt>
      <trkpt lat="42.77137" lon="-6.52937">
        <ele>714.4</ele>
        <time>2023-06-16T07:30:41.000+02:00</time>
      </trkpt>
      <trkpt lat="42.76868" lon="-6.52994">
        <ele>715.4</ele>
        <time>2023-06-16T07:31:22.000+02:00</time>
      </trkpt>
      <trkpt lat="42.76596" lon="-6.52926">
        <ele>718</ele>
        <time>2023-06-16T07:32:05.000+02:00</time>
      </trkpt>
      <trkpt lat="42.7626" lon="-6.53063">
        <ele>720.4</ele>
        <time>2023-06-16T07:32:58.000+02:00</time>
      </trkpt>
      <trkpt lat="42.76136" lon="-6.53074">
        <ele>716.5</ele>
        <time>2023-06-16T07:33:17.000+02:00</time>
      </trkpt>
      <trkpt lat="42.76041" lon="-6.53036">
        <ele>713</ele>
        <time>2023-06-16T07:33:32.000+02:00</time>
      </trkpt>
      <trkpt lat="42.75936" lon="-6.52943">
        <ele>709.4</ele>
        <time>2023-06-16T07:33:51.000+02:00</time>
      </trkpt>
      <trkpt lat="42.75815" lon="-6.52917">
        <ele>707.6</ele>
        <time>2023-06-16T07:34:10.000+02:00</time>
      </trkpt>
      <trkpt lat="42.757" lon="-6.53017">
        <ele>701.1</ele>
        <time>2023-06-16T07:34:31.000+02:00</time>
      </trkpt>
      <trkpt lat="42.75591" lon="-6.53209">
        <ele>701.9</ele>
        <time>2023-06-16T07:34:58.000+02:00</time>
      </trkpt>
      <trkpt lat="42.75401" lon="-6.53405">
        <ele>709.3</ele>
        <time>2023-06-16T07:35:35.000+02:00</time>
      </trkpt>
      <trkpt lat="42.75343" lon="-6.53504">
        <ele>711.4</ele>
        <time>2023-06-16T07:35:49.000+02:00</time>
      </trkpt>
      <trkpt lat="42.75301" lon="-6.53527">
        <ele>710.6</ele>
        <time>2023-06-16T07:35:56.000+02:00</time>
      </trkpt>
      <trkpt lat="42.75098" lon="-6.53527">
        <ele>703.9</ele>
        <time>2023-06-16T07:36:27.000+02:00</time>
      </trkpt>
      <trkpt lat="42.74486" lon="-6.53393">
        <ele>694.8</ele>
        <time>2023-06-16T07:38:01.000+02:00</time>
      </trkpt>
      <trkpt lat="42.74336" lon="-6.53333">
        <ele>689.9</ele>
        <time>2023-06-16T07:38:25.000+02:00</time>
      </trkpt>
      <trkpt lat="42.7415" lon="-6.53359">
        <ele>689.7</ele>
        <time>2023-06-16T07:38:54.000+02:00</time>
      </trkpt>
      <trkpt lat="42.73739" lon="-6.53221">
        <ele>686.2</ele>
        <time>2023-06-16T07:39:59.000+02:00</time>
      </trkpt>
      <trkpt lat="42.73591" lon="-6.531">
        <ele>685.4</ele>
        <time>2023-06-16T07:40:25.000+02:00</time>
      </trkpt>
      <trkpt lat="42.73523" lon="-6.52977">
        <ele>686.9</ele>
        <time>2023-06-16T07:40:42.000+02:00</time>
      </trkpt>
      <trkpt lat="42.73513" lon="-6.52762">
        <ele>686.3</ele>
        <time>2023-06-16T07:41:07.000+02:00</time>
      </trkpt>
      <trkpt lat="42.73442" lon="-6.52657">
        <ele>686.2</ele>
        <time>2023-06-16T07:41:23.000+02:00</time>
      </trkpt>
      <trkpt lat="42.72932" lon="-6.52438">
        <ele>683.2</ele>
        <time>2023-06-16T07:42:44.000+02:00</time>
      </trkpt>
      <trkpt lat="42.72707" lon="-6.52399">
        <ele>677.9</ele>
        <time>2023-06-16T07:43:19.000+02:00</time>
      </trkpt>
      <trkpt lat="42.72416" lon="-6.52114">
        <ele>676.2</ele>
        <time>2023-06-16T07:44:14.000+02:00</time>
      </trkpt>
      <trkpt lat="42.72036" lon="-6.51812">
        <ele>676.9</ele>
        <time>2023-06-16T07:45:21.000+02:00</time>
      </trkpt>
      <trkpt lat="42.71829" lon="-6.51789">
        <ele>680.2</ele>
        <time>2023-06-16T07:45:53.000+02:00</time>
      </trkpt>
      <trkpt lat="42.71559" lon="-6.51866">
        <ele>681.2</ele>
        <time>2023-06-16T07:46:35.000+02:00</time>
      </trkpt>
      <trkpt lat="42.71481" lon="-6.51863">
        <ele>677.4</ele>
        <time>2023-06-16T07:46:47.000+02:00</time>
      </trkpt>
      <trkpt lat="42.71236" lon="-6.51712">
        <ele>671.3</ele>
        <time>2023-06-16T07:47:28.000+02:00</time>
      </trkpt>
      <trkpt lat="42.71087" lon="-6.51579">
        <ele>667.1</ele>
        <time>2023-06-16T07:47:55.000+02:00</time>
      </trkpt>
      <trkpt lat="42.70565" lon="-6.51567">
        <ele>666</ele>
        <time>2023-06-16T07:49:15.000+02:00</time>
      </trkpt>
      <trkpt lat="42.70336" lon="-6.51349">
        <ele>664.7</ele>
        <time>2023-06-16T07:49:58.000+02:00</time>
      </trkpt>
    </trkseg>
  </trk>
</gpx>